<?xml version='1.0' encoding='UTF-8'?><gpx version="1.1" creator="JPX - https://github.com/jenetics/jpx" xmlns="http://www.topografix.com/GPX/1/1"><trk><trkseg><trkpt lat="43.6274032" lon="11.5162533"><ele>147.0</ele><time>2026-03-24T14:46:05.03Z</time></trkpt><trkpt lat="43.6274498" lon="11.5163191"><ele>147.0</ele><time>2026-03-24T14:46:08.967Z</time></trkpt><trkpt lat="43.6274722" lon="11.5164019"><ele>147.0</ele><time>2026-03-24T14:46:14.063Z</time></trkpt><trkpt lat="43.6274828" lon="11.5164908"><ele>147.0</ele><time>2026-03-24T14:46:21.933Z</time></trkpt><trkpt lat="43.6274249" lon="11.5165417"><ele>147.0</ele><time>2026-03-24T14:46:39.999Z</time></trkpt><trkpt lat="43.6273673" lon="11.5165907"><ele>147.0</ele><time>2026-03-24T14:46:46.019Z</time></trkpt><trkpt lat="43.62702" lon="11.51684"><ele>147.0</ele><time>2026-03-24T14:46:47.934Z</time></trkpt><trkpt lat="43.62699" lon="11.5169767"><ele>147.0</ele><time>2026-03-24T14:46:49.932Z</time></trkpt><trkpt lat="43.6269783" lon="11.5170967"><ele>147.0</ele><time>2026-03-24T14:46:51.933Z</time></trkpt><trkpt lat="43.6270433" lon="11.5171667"><ele>147.0</ele><time>2026-03-24T14:46:53.931Z</time></trkpt><trkpt lat="43.627135" lon="11.5172183"><ele>147.0</ele><time>2026-03-24T14:46:55.932Z</time></trkpt><trkpt lat="43.6272433" lon="11.517255"><ele>147.6</ele><time>2026-03-24T14:46:57.932Z</time></trkpt><trkpt lat="43.627345" lon="11.5172883"><ele>148.2</ele><time>2026-03-24T14:46:59.932Z</time></trkpt><trkpt lat="43.62745" lon="11.5173167"><ele>148.8</ele><time>2026-03-24T14:47:01.933Z</time></trkpt><trkpt lat="43.6275533" lon="11.51734"><ele>149.4</ele><time>2026-03-24T14:47:03.935Z</time></trkpt><trkpt lat="43.6276333" lon="11.5173683"><ele>150.0</ele><time>2026-03-24T14:47:05.932Z</time></trkpt><trkpt lat="43.6277017" lon="11.5173917"><ele>150.0</ele><time>2026-03-24T14:47:08.933Z</time></trkpt><trkpt lat="43.627785" lon="11.517375"><ele>150.0</ele><time>2026-03-24T14:47:12.932Z</time></trkpt><trkpt lat="43.627855" lon="11.5173033"><ele>150.0</ele><time>2026-03-24T14:47:15.931Z</time></trkpt><trkpt lat="43.6278809" lon="11.5170497"><ele>150.0</ele><time>2026-03-24T14:47:28.933Z</time></trkpt><trkpt lat="43.6278684" lon="11.5168415"><ele>150.8</ele><time>2026-03-24T14:47:29.933Z</time></trkpt><trkpt lat="43.6278633" lon="11.5167113"><ele>151.6</ele><time>2026-03-24T14:47:30.933Z</time></trkpt><trkpt lat="43.6278615" lon="11.5165919"><ele>152.4</ele><time>2026-03-24T14:47:31.934Z</time></trkpt><trkpt lat="43.6278617" lon="11.5164683"><ele>153.2</ele><time>2026-03-24T14:47:32.934Z</time></trkpt><trkpt lat="43.6278625" lon="11.5163426"><ele>154.0</ele><time>2026-03-24T14:47:33.933Z</time></trkpt><trkpt lat="43.6278628" lon="11.5162195"><ele>154.0</ele><time>2026-03-24T14:47:34.934Z</time></trkpt><trkpt lat="43.6278609" lon="11.5160957"><ele>154.0</ele><time>2026-03-24T14:47:35.932Z</time></trkpt><trkpt lat="43.6278556" lon="11.5159763"><ele>154.0</ele><time>2026-03-24T14:47:36.932Z</time></trkpt><trkpt lat="43.6278483" lon="11.5158567"><ele>154.0</ele><time>2026-03-24T14:47:37.931Z</time></trkpt><trkpt lat="43.627845" lon="11.5157367"><ele>154.0</ele><time>2026-03-24T14:47:38.934Z</time></trkpt><trkpt lat="43.6278417" lon="11.5156167"><ele>154.0</ele><time>2026-03-24T14:47:39.934Z</time></trkpt><trkpt lat="43.6278383" lon="11.5154933"><ele>154.0</ele><time>2026-03-24T14:47:40.932Z</time></trkpt><trkpt lat="43.6278333" lon="11.5153717"><ele>154.0</ele><time>2026-03-24T14:47:41.932Z</time></trkpt><trkpt lat="43.62783" lon="11.51525"><ele>154.0</ele><time>2026-03-24T14:47:42.932Z</time></trkpt><trkpt lat="43.627825" lon="11.5151317"><ele>154.0</ele><time>2026-03-24T14:47:43.933Z</time></trkpt><trkpt lat="43.62782" lon="11.5150083"><ele>154.0</ele><time>2026-03-24T14:47:44.932Z</time></trkpt><trkpt lat="43.6278117" lon="11.5148883"><ele>154.0</ele><time>2026-03-24T14:47:45.933Z</time></trkpt><trkpt lat="43.6278033" lon="11.5147667"><ele>152.66666666666669</ele><time>2026-03-24T14:47:46.933Z</time></trkpt><trkpt lat="43.627795" lon="11.5146483"><ele>151.33333333333334</ele><time>2026-03-24T14:47:47.932Z</time></trkpt><trkpt lat="43.6277867" lon="11.5145267"><ele>150.0</ele><time>2026-03-24T14:47:48.934Z</time></trkpt><trkpt lat="43.62777" lon="11.5144067"><ele>148.66666666666666</ele><time>2026-03-24T14:47:49.934Z</time></trkpt><trkpt lat="43.6277533" lon="11.5142867"><ele>147.33333333333331</ele><time>2026-03-24T14:47:50.933Z</time></trkpt><trkpt lat="43.6277367" lon="11.514165"><ele>146.0</ele><time>2026-03-24T14:47:51.932Z</time></trkpt><trkpt lat="43.6277233" lon="11.5140383"><ele>145.83333333333331</ele><time>2026-03-24T14:47:52.932Z</time></trkpt><trkpt lat="43.6277133" lon="11.5139117"><ele>145.66666666666666</ele><time>2026-03-24T14:47:53.934Z</time></trkpt><trkpt lat="43.627705" lon="11.5137917"><ele>145.5</ele><time>2026-03-24T14:47:54.933Z</time></trkpt><trkpt lat="43.6277" lon="11.5136817"><ele>145.33333333333334</ele><time>2026-03-24T14:47:55.932Z</time></trkpt><trkpt lat="43.6277017" lon="11.51359"><ele>145.16666666666669</ele><time>2026-03-24T14:47:56.934Z</time></trkpt><trkpt lat="43.62771" lon="11.513485"><ele>145.0</ele><time>2026-03-24T14:47:58.932Z</time></trkpt><trkpt lat="43.6277117" lon="11.5133917"><ele>144.5</ele><time>2026-03-24T14:48:01.933Z</time></trkpt><trkpt lat="43.62769" lon="11.513275"><ele>144.0</ele><time>2026-03-24T14:48:03.933Z</time></trkpt><trkpt lat="43.6276083" lon="11.51317"><ele>143.5</ele><time>2026-03-24T14:48:05.932Z</time></trkpt><trkpt lat="43.627545" lon="11.5131383"><ele>143.0</ele><time>2026-03-24T14:48:06.933Z</time></trkpt><trkpt lat="43.6274783" lon="11.5131117"><ele>142.5</ele><time>2026-03-24T14:48:07.934Z</time></trkpt><trkpt lat="43.6274083" lon="11.51309"><ele>142.0</ele><time>2026-03-24T14:48:08.934Z</time></trkpt><trkpt lat="43.62734" lon="11.51306"><ele>142.0</ele><time>2026-03-24T14:48:09.932Z</time></trkpt><trkpt lat="43.62727" lon="11.513035"><ele>142.0</ele><time>2026-03-24T14:48:10.932Z</time></trkpt><trkpt lat="43.6271967" lon="11.5130167"><ele>142.0</ele><time>2026-03-24T14:48:11.932Z</time></trkpt><trkpt lat="43.6271233" lon="11.5129967"><ele>142.0</ele><time>2026-03-24T14:48:12.932Z</time></trkpt><trkpt lat="43.6270483" lon="11.51297"><ele>142.0</ele><time>2026-03-24T14:48:13.934Z</time></trkpt><trkpt lat="43.6269733" lon="11.5129383"><ele>142.0</ele><time>2026-03-24T14:48:14.933Z</time></trkpt><trkpt lat="43.6268983" lon="11.5129033"><ele>141.83333333333334</ele><time>2026-03-24T14:48:15.936Z</time></trkpt><trkpt lat="43.626825" lon="11.5128633"><ele>141.66666666666669</ele><time>2026-03-24T14:48:16.932Z</time></trkpt><trkpt lat="43.626755" lon="11.5128133"><ele>141.5</ele><time>2026-03-24T14:48:17.934Z</time></trkpt><trkpt lat="43.6266883" lon="11.5127583"><ele>141.33333333333334</ele><time>2026-03-24T14:48:18.932Z</time></trkpt><trkpt lat="43.626625" lon="11.5127033"><ele>141.16666666666666</ele><time>2026-03-24T14:48:19.932Z</time></trkpt><trkpt lat="43.6265567" lon="11.5126483"><ele>141.0</ele><time>2026-03-24T14:48:20.936Z</time></trkpt><trkpt lat="43.626485" lon="11.512605"><ele>141.0</ele><time>2026-03-24T14:48:21.934Z</time></trkpt><trkpt lat="43.6264117" lon="11.51257"><ele>141.0</ele><time>2026-03-24T14:48:22.933Z</time></trkpt><trkpt lat="43.6263367" lon="11.5125383"><ele>141.0</ele><time>2026-03-24T14:48:23.933Z</time></trkpt><trkpt lat="43.6262583" lon="11.512505"><ele>141.0</ele><time>2026-03-24T14:48:24.932Z</time></trkpt><trkpt lat="43.62618" lon="11.51247"><ele>141.0</ele><time>2026-03-24T14:48:25.932Z</time></trkpt><trkpt lat="43.6261033" lon="11.5124367"><ele>141.0</ele><time>2026-03-24T14:48:26.932Z</time></trkpt><trkpt lat="43.6260267" lon="11.512405"><ele>140.83333333333334</ele><time>2026-03-24T14:48:27.934Z</time></trkpt><trkpt lat="43.6259517" lon="11.512375"><ele>140.66666666666666</ele><time>2026-03-24T14:48:28.933Z</time></trkpt><trkpt lat="43.6258767" lon="11.5123433"><ele>140.5</ele><time>2026-03-24T14:48:29.932Z</time></trkpt><trkpt lat="43.6258033" lon="11.5123083"><ele>140.33333333333331</ele><time>2026-03-24T14:48:30.933Z</time></trkpt><trkpt lat="43.6257317" lon="11.5122633"><ele>140.16666666666666</ele><time>2026-03-24T14:48:31.933Z</time></trkpt><trkpt lat="43.6256633" lon="11.51221"><ele>140.0</ele><time>2026-03-24T14:48:32.932Z</time></trkpt><trkpt lat="43.6255933" lon="11.512155"><ele>140.0</ele><time>2026-03-24T14:48:33.932Z</time></trkpt><trkpt lat="43.625525" lon="11.5120967"><ele>140.0</ele><time>2026-03-24T14:48:34.932Z</time></trkpt><trkpt lat="43.6254567" lon="11.5120367"><ele>140.0</ele><time>2026-03-24T14:48:35.931Z</time></trkpt><trkpt lat="43.62539" lon="11.5119733"><ele>140.0</ele><time>2026-03-24T14:48:36.932Z</time></trkpt><trkpt lat="43.625325" lon="11.5119067"><ele>140.0</ele><time>2026-03-24T14:48:37.934Z</time></trkpt><trkpt lat="43.62526" lon="11.5118433"><ele>140.0</ele><time>2026-03-24T14:48:38.933Z</time></trkpt><trkpt lat="43.6251967" lon="11.51178"><ele>139.66666666666666</ele><time>2026-03-24T14:48:39.933Z</time></trkpt><trkpt lat="43.625135" lon="11.511715"><ele>139.33333333333331</ele><time>2026-03-24T14:48:40.934Z</time></trkpt><trkpt lat="43.6250767" lon="11.511645"><ele>139.0</ele><time>2026-03-24T14:48:41.934Z</time></trkpt><trkpt lat="43.6250167" lon="11.5115783"><ele>138.66666666666666</ele><time>2026-03-24T14:48:42.932Z</time></trkpt><trkpt lat="43.6249533" lon="11.5115083"><ele>138.33333333333334</ele><time>2026-03-24T14:48:43.932Z</time></trkpt><trkpt lat="43.62489" lon="11.51144"><ele>138.0</ele><time>2026-03-24T14:48:44.933Z</time></trkpt><trkpt lat="43.6248333" lon="11.51137"><ele>138.0</ele><time>2026-03-24T14:48:45.934Z</time></trkpt><trkpt lat="43.6247767" lon="11.5112967"><ele>138.0</ele><time>2026-03-24T14:48:46.933Z</time></trkpt><trkpt lat="43.6247217" lon="11.51122"><ele>138.0</ele><time>2026-03-24T14:48:47.934Z</time></trkpt><trkpt lat="43.6246733" lon="11.511135"><ele>138.0</ele><time>2026-03-24T14:48:48.931Z</time></trkpt><trkpt lat="43.6246283" lon="11.5110433"><ele>138.0</ele><time>2026-03-24T14:48:49.933Z</time></trkpt><trkpt lat="43.6245933" lon="11.5109433"><ele>138.0</ele><time>2026-03-24T14:48:50.935Z</time></trkpt><trkpt lat="43.6245633" lon="11.510835"><ele>138.0</ele><time>2026-03-24T14:48:51.933Z</time></trkpt><trkpt lat="43.6245333" lon="11.51073"><ele>138.0</ele><time>2026-03-24T14:48:52.932Z</time></trkpt><trkpt lat="43.6245067" lon="11.5106183"><ele>138.0</ele><time>2026-03-24T14:48:53.935Z</time></trkpt><trkpt lat="43.6244783" lon="11.510505"><ele>138.0</ele><time>2026-03-24T14:48:54.934Z</time></trkpt><trkpt lat="43.6244483" lon="11.5104"><ele>138.0</ele><time>2026-03-24T14:48:55.934Z</time></trkpt><trkpt lat="43.6244183" lon="11.5102883"><ele>138.0</ele><time>2026-03-24T14:48:56.932Z</time></trkpt><trkpt lat="43.6243917" lon="11.5101767"><ele>137.83333333333334</ele><time>2026-03-24T14:48:57.932Z</time></trkpt><trkpt lat="43.6243633" lon="11.5100667"><ele>137.66666666666666</ele><time>2026-03-24T14:48:58.934Z</time></trkpt><trkpt lat="43.6243367" lon="11.5099567"><ele>137.5</ele><time>2026-03-24T14:48:59.932Z</time></trkpt><trkpt lat="43.6243067" lon="11.509845"><ele>137.33333333333331</ele><time>2026-03-24T14:49:00.933Z</time></trkpt><trkpt lat="43.6242767" lon="11.5097333"><ele>137.16666666666666</ele><time>2026-03-24T14:49:01.933Z</time></trkpt><trkpt lat="43.6242483" lon="11.509625"><ele>137.0</ele><time>2026-03-24T14:49:02.933Z</time></trkpt><trkpt lat="43.62422" lon="11.5095167"><ele>136.83333333333331</ele><time>2026-03-24T14:49:03.933Z</time></trkpt><trkpt lat="43.6241917" lon="11.50941"><ele>136.66666666666666</ele><time>2026-03-24T14:49:04.932Z</time></trkpt><trkpt lat="43.6241617" lon="11.5093"><ele>136.5</ele><time>2026-03-24T14:49:05.933Z</time></trkpt><trkpt lat="43.624135" lon="11.50919"><ele>136.33333333333334</ele><time>2026-03-24T14:49:06.933Z</time></trkpt><trkpt lat="43.6241083" lon="11.509075"><ele>136.16666666666669</ele><time>2026-03-24T14:49:07.933Z</time></trkpt><trkpt lat="43.62408" lon="11.50896"><ele>136.0</ele><time>2026-03-24T14:49:08.933Z</time></trkpt><trkpt lat="43.6240517" lon="11.5088483"><ele>135.83333333333334</ele><time>2026-03-24T14:49:09.932Z</time></trkpt><trkpt lat="43.6240217" lon="11.5087367"><ele>135.66666666666669</ele><time>2026-03-24T14:49:10.932Z</time></trkpt><trkpt lat="43.62399" lon="11.5086267"><ele>135.5</ele><time>2026-03-24T14:49:11.933Z</time></trkpt><trkpt lat="43.6239533" lon="11.50852"><ele>135.33333333333334</ele><time>2026-03-24T14:49:12.932Z</time></trkpt><trkpt lat="43.6239117" lon="11.5084183"><ele>135.16666666666666</ele><time>2026-03-24T14:49:13.932Z</time></trkpt><trkpt lat="43.6238667" lon="11.5083133"><ele>135.0</ele><time>2026-03-24T14:49:14.935Z</time></trkpt><trkpt lat="43.62382" lon="11.5082083"><ele>135.0</ele><time>2026-03-24T14:49:15.934Z</time></trkpt><trkpt lat="43.6237717" lon="11.5081"><ele>135.0</ele><time>2026-03-24T14:49:16.932Z</time></trkpt><trkpt lat="43.62372" lon="11.5079967"><ele>135.0</ele><time>2026-03-24T14:49:17.933Z</time></trkpt><trkpt lat="43.623665" lon="11.507895"><ele>135.0</ele><time>2026-03-24T14:49:18.934Z</time></trkpt><trkpt lat="43.6236083" lon="11.5078017"><ele>135.0</ele><time>2026-03-24T14:49:19.932Z</time></trkpt><trkpt lat="43.6235483" lon="11.5077117"><ele>134.66666666666666</ele><time>2026-03-24T14:49:20.933Z</time></trkpt><trkpt lat="43.6234867" lon="11.507625"><ele>134.33333333333334</ele><time>2026-03-24T14:49:21.934Z</time></trkpt><trkpt lat="43.6234217" lon="11.5075417"><ele>134.0</ele><time>2026-03-24T14:49:22.931Z</time></trkpt><trkpt lat="43.623355" lon="11.5074617"><ele>133.66666666666669</ele><time>2026-03-24T14:49:23.932Z</time></trkpt><trkpt lat="43.6232867" lon="11.5073867"><ele>133.33333333333334</ele><time>2026-03-24T14:49:24.934Z</time></trkpt><trkpt lat="43.6232167" lon="11.5073117"><ele>133.0</ele><time>2026-03-24T14:49:25.932Z</time></trkpt><trkpt lat="43.623145" lon="11.5072417"><ele>133.0</ele><time>2026-03-24T14:49:26.934Z</time></trkpt><trkpt lat="43.6230717" lon="11.5071767"><ele>133.0</ele><time>2026-03-24T14:49:27.932Z</time></trkpt><trkpt lat="43.6229983" lon="11.5071133"><ele>133.0</ele><time>2026-03-24T14:49:28.932Z</time></trkpt><trkpt lat="43.6229233" lon="11.507055"><ele>133.0</ele><time>2026-03-24T14:49:29.933Z</time></trkpt><trkpt lat="43.622845" lon="11.5069983"><ele>133.0</ele><time>2026-03-24T14:49:30.934Z</time></trkpt><trkpt lat="43.6227667" lon="11.5069433"><ele>133.0</ele><time>2026-03-24T14:49:31.932Z</time></trkpt><trkpt lat="43.6226883" lon="11.5068883"><ele>133.16666666666669</ele><time>2026-03-24T14:49:32.933Z</time></trkpt><trkpt lat="43.6226117" lon="11.5068333"><ele>133.33333333333334</ele><time>2026-03-24T14:49:33.933Z</time></trkpt><trkpt lat="43.622535" lon="11.5067733"><ele>133.5</ele><time>2026-03-24T14:49:34.932Z</time></trkpt><trkpt lat="43.6224583" lon="11.5067183"><ele>133.66666666666666</ele><time>2026-03-24T14:49:35.937Z</time></trkpt><trkpt lat="43.6223783" lon="11.5066667"><ele>133.83333333333331</ele><time>2026-03-24T14:49:36.933Z</time></trkpt><trkpt lat="43.6222983" lon="11.5066117"><ele>134.0</ele><time>2026-03-24T14:49:37.932Z</time></trkpt><trkpt lat="43.6222183" lon="11.5065583"><ele>134.0</ele><time>2026-03-24T14:49:38.933Z</time></trkpt><trkpt lat="43.6221383" lon="11.5065017"><ele>134.0</ele><time>2026-03-24T14:49:39.933Z</time></trkpt><trkpt lat="43.6220583" lon="11.5064483"><ele>134.0</ele><time>2026-03-24T14:49:40.934Z</time></trkpt><trkpt lat="43.6219783" lon="11.506385"><ele>134.0</ele><time>2026-03-24T14:49:41.934Z</time></trkpt><trkpt lat="43.6218983" lon="11.5063283"><ele>134.0</ele><time>2026-03-24T14:49:42.932Z</time></trkpt><trkpt lat="43.62182" lon="11.5062717"><ele>134.0</ele><time>2026-03-24T14:49:43.933Z</time></trkpt><trkpt lat="43.62174" lon="11.5062183"><ele>134.2</ele><time>2026-03-24T14:49:44.933Z</time></trkpt><trkpt lat="43.6216583" lon="11.5061583"><ele>134.4</ele><time>2026-03-24T14:49:45.934Z</time></trkpt><trkpt lat="43.6215783" lon="11.5060933"><ele>134.6</ele><time>2026-03-24T14:49:46.933Z</time></trkpt><trkpt lat="43.621495" lon="11.5060367"><ele>134.8</ele><time>2026-03-24T14:49:47.932Z</time></trkpt><trkpt lat="43.621415" lon="11.505975"><ele>135.0</ele><time>2026-03-24T14:49:48.931Z</time></trkpt><trkpt lat="43.6213333" lon="11.5059183"><ele>135.0</ele><time>2026-03-24T14:49:49.933Z</time></trkpt><trkpt lat="43.6212517" lon="11.5058633"><ele>135.0</ele><time>2026-03-24T14:49:50.933Z</time></trkpt><trkpt lat="43.6211717" lon="11.5058033"><ele>135.0</ele><time>2026-03-24T14:49:51.933Z</time></trkpt><trkpt lat="43.62109" lon="11.50575"><ele>135.0</ele><time>2026-03-24T14:49:52.933Z</time></trkpt><trkpt lat="43.62101" lon="11.5056917"><ele>135.0</ele><time>2026-03-24T14:49:53.933Z</time></trkpt><trkpt lat="43.6209267" lon="11.5056383"><ele>134.6</ele><time>2026-03-24T14:49:54.936Z</time></trkpt><trkpt lat="43.6208433" lon="11.5055967"><ele>134.2</ele><time>2026-03-24T14:49:55.934Z</time></trkpt><trkpt lat="43.6207567" lon="11.5055567"><ele>133.8</ele><time>2026-03-24T14:49:56.934Z</time></trkpt><trkpt lat="43.62067" lon="11.50552"><ele>133.4</ele><time>2026-03-24T14:49:57.933Z</time></trkpt><trkpt lat="43.620585" lon="11.5054833"><ele>133.0</ele><time>2026-03-24T14:49:58.934Z</time></trkpt><trkpt lat="43.620495" lon="11.505455"><ele>133.0</ele><time>2026-03-24T14:49:59.935Z</time></trkpt><trkpt lat="43.6204067" lon="11.5054267"><ele>133.0</ele><time>2026-03-24T14:50:00.932Z</time></trkpt><trkpt lat="43.6203167" lon="11.5054017"><ele>133.0</ele><time>2026-03-24T14:50:01.933Z</time></trkpt><trkpt lat="43.6202283" lon="11.50538"><ele>133.0</ele><time>2026-03-24T14:50:02.933Z</time></trkpt><trkpt lat="43.6201367" lon="11.5053733"><ele>133.0</ele><time>2026-03-24T14:50:03.934Z</time></trkpt><trkpt lat="43.620045" lon="11.50537"><ele>133.6</ele><time>2026-03-24T14:50:04.933Z</time></trkpt><trkpt lat="43.619955" lon="11.505365"><ele>134.20000000000002</ele><time>2026-03-24T14:50:05.932Z</time></trkpt><trkpt lat="43.6198633" lon="11.5053667"><ele>134.8</ele><time>2026-03-24T14:50:06.934Z</time></trkpt><trkpt lat="43.6197717" lon="11.5053667"><ele>135.4</ele><time>2026-03-24T14:50:07.934Z</time></trkpt><trkpt lat="43.61968" lon="11.5053733"><ele>136.0</ele><time>2026-03-24T14:50:08.933Z</time></trkpt><trkpt lat="43.619585" lon="11.5053783"><ele>136.0</ele><time>2026-03-24T14:50:09.932Z</time></trkpt><trkpt lat="43.6194917" lon="11.50539"><ele>136.0</ele><time>2026-03-24T14:50:10.933Z</time></trkpt><trkpt lat="43.6193983" lon="11.5053933"><ele>136.0</ele><time>2026-03-24T14:50:11.932Z</time></trkpt><trkpt lat="43.619305" lon="11.5053917"><ele>136.0</ele><time>2026-03-24T14:50:12.935Z</time></trkpt><trkpt lat="43.619215" lon="11.5053983"><ele>136.0</ele><time>2026-03-24T14:50:13.932Z</time></trkpt><trkpt lat="43.6191233" lon="11.5053967"><ele>136.4</ele><time>2026-03-24T14:50:14.933Z</time></trkpt><trkpt lat="43.6190283" lon="11.505395"><ele>136.8</ele><time>2026-03-24T14:50:15.932Z</time></trkpt><trkpt lat="43.6189333" lon="11.5053917"><ele>137.20000000000002</ele><time>2026-03-24T14:50:16.934Z</time></trkpt><trkpt lat="43.6188417" lon="11.5053833"><ele>137.6</ele><time>2026-03-24T14:50:17.933Z</time></trkpt><trkpt lat="43.6187517" lon="11.5053733"><ele>138.0</ele><time>2026-03-24T14:50:18.932Z</time></trkpt><trkpt lat="43.6186633" lon="11.50535"><ele>138.33333333333334</ele><time>2026-03-24T14:50:19.93Z</time></trkpt><trkpt lat="43.6185733" lon="11.505335"><ele>138.66666666666666</ele><time>2026-03-24T14:50:20.933Z</time></trkpt><trkpt lat="43.618485" lon="11.5053133"><ele>139.0</ele><time>2026-03-24T14:50:21.932Z</time></trkpt><trkpt lat="43.6183967" lon="11.5052933"><ele>139.33333333333331</ele><time>2026-03-24T14:50:22.932Z</time></trkpt><trkpt lat="43.6183083" lon="11.5052717"><ele>139.66666666666666</ele><time>2026-03-24T14:50:23.934Z</time></trkpt><trkpt lat="43.6182233" lon="11.505235"><ele>140.0</ele><time>2026-03-24T14:50:24.933Z</time></trkpt><trkpt lat="43.6181367" lon="11.5051983"><ele>140.0</ele><time>2026-03-24T14:50:25.931Z</time></trkpt><trkpt lat="43.6180483" lon="11.5051617"><ele>140.0</ele><time>2026-03-24T14:50:26.932Z</time></trkpt><trkpt lat="43.61796" lon="11.505125"><ele>140.0</ele><time>2026-03-24T14:50:27.933Z</time></trkpt><trkpt lat="43.617875" lon="11.5050833"><ele>140.0</ele><time>2026-03-24T14:50:28.932Z</time></trkpt><trkpt lat="43.6177883" lon="11.50504"><ele>140.0</ele><time>2026-03-24T14:50:29.933Z</time></trkpt><trkpt lat="43.6177017" lon="11.5050017"><ele>138.6</ele><time>2026-03-24T14:50:30.931Z</time></trkpt><trkpt lat="43.617615" lon="11.5049617"><ele>137.2</ele><time>2026-03-24T14:50:31.932Z</time></trkpt><trkpt lat="43.6175283" lon="11.5049267"><ele>135.8</ele><time>2026-03-24T14:50:32.932Z</time></trkpt><trkpt lat="43.61744" lon="11.50489"><ele>134.4</ele><time>2026-03-24T14:50:33.933Z</time></trkpt><trkpt lat="43.6173517" lon="11.5048483"><ele>133.0</ele><time>2026-03-24T14:50:34.932Z</time></trkpt><trkpt lat="43.617265" lon="11.5048083"><ele>133.0</ele><time>2026-03-24T14:50:35.932Z</time></trkpt><trkpt lat="43.6171767" lon="11.5047717"><ele>133.0</ele><time>2026-03-24T14:50:36.932Z</time></trkpt><trkpt lat="43.6170867" lon="11.504735"><ele>133.0</ele><time>2026-03-24T14:50:37.933Z</time></trkpt><trkpt lat="43.6170017" lon="11.504695"><ele>133.0</ele><time>2026-03-24T14:50:38.933Z</time></trkpt><trkpt lat="43.6169167" lon="11.504655"><ele>133.0</ele><time>2026-03-24T14:50:39.931Z</time></trkpt><trkpt lat="43.61683" lon="11.5046217"><ele>133.4</ele><time>2026-03-24T14:50:40.933Z</time></trkpt><trkpt lat="43.616745" lon="11.50458"><ele>133.8</ele><time>2026-03-24T14:50:41.933Z</time></trkpt><trkpt lat="43.6166583" lon="11.5045383"><ele>134.2</ele><time>2026-03-24T14:50:42.933Z</time></trkpt><trkpt lat="43.6165717" lon="11.5044933"><ele>134.6</ele><time>2026-03-24T14:50:43.934Z</time></trkpt><trkpt lat="43.6164867" lon="11.5044533"><ele>135.0</ele><time>2026-03-24T14:50:44.932Z</time></trkpt><trkpt lat="43.6164" lon="11.50441"><ele>135.0</ele><time>2026-03-24T14:50:45.932Z</time></trkpt><trkpt lat="43.6163117" lon="11.50437"><ele>135.0</ele><time>2026-03-24T14:50:46.934Z</time></trkpt><trkpt lat="43.6162233" lon="11.5043267"><ele>135.0</ele><time>2026-03-24T14:50:47.932Z</time></trkpt><trkpt lat="43.61614" lon="11.5042783"><ele>135.0</ele><time>2026-03-24T14:50:48.931Z</time></trkpt><trkpt lat="43.6160617" lon="11.50422"><ele>135.0</ele><time>2026-03-24T14:50:49.933Z</time></trkpt><trkpt lat="43.6159833" lon="11.50416"><ele>133.6</ele><time>2026-03-24T14:50:50.933Z</time></trkpt><trkpt lat="43.6159033" lon="11.504095"><ele>132.2</ele><time>2026-03-24T14:50:51.933Z</time></trkpt><trkpt lat="43.6158267" lon="11.5040267"><ele>130.8</ele><time>2026-03-24T14:50:52.934Z</time></trkpt><trkpt lat="43.6157483" lon="11.5039567"><ele>129.4</ele><time>2026-03-24T14:50:53.935Z</time></trkpt><trkpt lat="43.615675" lon="11.50388"><ele>128.0</ele><time>2026-03-24T14:50:54.931Z</time></trkpt><trkpt lat="43.6156067" lon="11.5037917"><ele>128.20000000000002</ele><time>2026-03-24T14:50:55.933Z</time></trkpt><trkpt lat="43.61554" lon="11.5037133"><ele>128.4</ele><time>2026-03-24T14:50:56.933Z</time></trkpt><trkpt lat="43.6154767" lon="11.5036217"><ele>128.60000000000002</ele><time>2026-03-24T14:50:57.932Z</time></trkpt><trkpt lat="43.6154167" lon="11.5035217"><ele>128.8</ele><time>2026-03-24T14:50:58.934Z</time></trkpt><trkpt lat="43.61536" lon="11.5034217"><ele>129.0</ele><time>2026-03-24T14:50:59.932Z</time></trkpt><trkpt lat="43.6153" lon="11.5033267"><ele>129.0</ele><time>2026-03-24T14:51:00.933Z</time></trkpt><trkpt lat="43.6152417" lon="11.50323"><ele>129.0</ele><time>2026-03-24T14:51:01.933Z</time></trkpt><trkpt lat="43.6151917" lon="11.503125"><ele>129.0</ele><time>2026-03-24T14:51:02.935Z</time></trkpt><trkpt lat="43.6151417" lon="11.5030217"><ele>129.0</ele><time>2026-03-24T14:51:03.932Z</time></trkpt><trkpt lat="43.6150983" lon="11.5029167"><ele>129.0</ele><time>2026-03-24T14:51:04.934Z</time></trkpt><trkpt lat="43.615055" lon="11.5028083"><ele>129.0</ele><time>2026-03-24T14:51:05.933Z</time></trkpt><trkpt lat="43.6150217" lon="11.5026967"><ele>128.66666666666666</ele><time>2026-03-24T14:51:06.932Z</time></trkpt><trkpt lat="43.614985" lon="11.5025833"><ele>128.33333333333334</ele><time>2026-03-24T14:51:07.935Z</time></trkpt><trkpt lat="43.6149533" lon="11.50247"><ele>128.0</ele><time>2026-03-24T14:51:08.933Z</time></trkpt><trkpt lat="43.614925" lon="11.5023533"><ele>127.66666666666667</ele><time>2026-03-24T14:51:09.932Z</time></trkpt><trkpt lat="43.6149" lon="11.502235"><ele>127.33333333333334</ele><time>2026-03-24T14:51:10.931Z</time></trkpt><trkpt lat="43.61488" lon="11.5021133"><ele>127.0</ele><time>2026-03-24T14:51:11.931Z</time></trkpt><trkpt lat="43.614865" lon="11.5019933"><ele>127.0</ele><time>2026-03-24T14:51:12.932Z</time></trkpt><trkpt lat="43.6148517" lon="11.5018733"><ele>126.99999999999999</ele><time>2026-03-24T14:51:13.934Z</time></trkpt><trkpt lat="43.6148417" lon="11.5017517"><ele>126.99999999999999</ele><time>2026-03-24T14:51:14.935Z</time></trkpt><trkpt lat="43.614835" lon="11.5016267"><ele>127.0</ele><time>2026-03-24T14:51:15.933Z</time></trkpt><trkpt lat="43.61483" lon="11.5015033"><ele>127.0</ele><time>2026-03-24T14:51:16.933Z</time></trkpt><trkpt lat="43.6148333" lon="11.5013733"><ele>126.8</ele><time>2026-03-24T14:51:17.933Z</time></trkpt><trkpt lat="43.6148367" lon="11.5012467"><ele>126.6</ele><time>2026-03-24T14:51:18.932Z</time></trkpt><trkpt lat="43.6148467" lon="11.5011217"><ele>126.39999999999999</ele><time>2026-03-24T14:51:19.935Z</time></trkpt><trkpt lat="43.6148533" lon="11.5009983"><ele>126.19999999999999</ele><time>2026-03-24T14:51:20.934Z</time></trkpt><trkpt lat="43.6148717" lon="11.5008767"><ele>126.0</ele><time>2026-03-24T14:51:21.932Z</time></trkpt><trkpt lat="43.6148883" lon="11.500755"><ele>126.0</ele><time>2026-03-24T14:51:22.932Z</time></trkpt><trkpt lat="43.614915" lon="11.5006383"><ele>126.0</ele><time>2026-03-24T14:51:23.932Z</time></trkpt><trkpt lat="43.6149417" lon="11.5005233"><ele>126.0</ele><time>2026-03-24T14:51:24.935Z</time></trkpt><trkpt lat="43.6149733" lon="11.5004133"><ele>126.0</ele><time>2026-03-24T14:51:25.933Z</time></trkpt><trkpt lat="43.615005" lon="11.5003"><ele>126.0</ele><time>2026-03-24T14:51:26.933Z</time></trkpt><trkpt lat="43.615045" lon="11.50019"><ele>126.0</ele><time>2026-03-24T14:51:27.932Z</time></trkpt><trkpt lat="43.6150883" lon="11.5000817"><ele>125.83333333333333</ele><time>2026-03-24T14:51:28.934Z</time></trkpt><trkpt lat="43.6151333" lon="11.4999767"><ele>125.66666666666666</ele><time>2026-03-24T14:51:29.932Z</time></trkpt><trkpt lat="43.6151833" lon="11.499875"><ele>125.5</ele><time>2026-03-24T14:51:30.935Z</time></trkpt><trkpt lat="43.6152333" lon="11.4997733"><ele>125.33333333333333</ele><time>2026-03-24T14:51:31.934Z</time></trkpt><trkpt lat="43.61529" lon="11.4996767"><ele>125.16666666666666</ele><time>2026-03-24T14:51:32.933Z</time></trkpt><trkpt lat="43.6153467" lon="11.49958"><ele>125.0</ele><time>2026-03-24T14:51:33.933Z</time></trkpt><trkpt lat="43.6154067" lon="11.499485"><ele>124.99999999999999</ele><time>2026-03-24T14:51:34.934Z</time></trkpt><trkpt lat="43.6154667" lon="11.4993933"><ele>125.0</ele><time>2026-03-24T14:51:35.933Z</time></trkpt><trkpt lat="43.615535" lon="11.4993133"><ele>125.0</ele><time>2026-03-24T14:51:36.934Z</time></trkpt><trkpt lat="43.6155983" lon="11.49923"><ele>125.0</ele><time>2026-03-24T14:51:37.934Z</time></trkpt><trkpt lat="43.615665" lon="11.49915"><ele>124.99999999999999</ele><time>2026-03-24T14:51:38.934Z</time></trkpt><trkpt lat="43.61573" lon="11.4990667"><ele>125.0</ele><time>2026-03-24T14:51:39.934Z</time></trkpt><trkpt lat="43.6157967" lon="11.4989867"><ele>124.99999999999999</ele><time>2026-03-24T14:51:40.932Z</time></trkpt><trkpt lat="43.6158617" lon="11.498905"><ele>125.0</ele><time>2026-03-24T14:51:41.933Z</time></trkpt><trkpt lat="43.6159317" lon="11.49883"><ele>125.0</ele><time>2026-03-24T14:51:42.934Z</time></trkpt><trkpt lat="43.6159967" lon="11.498755"><ele>125.0</ele><time>2026-03-24T14:51:43.934Z</time></trkpt><trkpt lat="43.6160633" lon="11.4986783"><ele>124.99999999999999</ele><time>2026-03-24T14:51:44.933Z</time></trkpt><trkpt lat="43.6161283" lon="11.4986017"><ele>125.0</ele><time>2026-03-24T14:51:45.934Z</time></trkpt><trkpt lat="43.616195" lon="11.4985283"><ele>124.99999999999999</ele><time>2026-03-24T14:51:46.932Z</time></trkpt><trkpt lat="43.61626" lon="11.4984533"><ele>125.0</ele><time>2026-03-24T14:51:47.933Z</time></trkpt><trkpt lat="43.6163283" lon="11.4983817"><ele>125.0</ele><time>2026-03-24T14:51:48.932Z</time></trkpt><trkpt lat="43.6163917" lon="11.498305"><ele>125.0</ele><time>2026-03-24T14:51:49.932Z</time></trkpt><trkpt lat="43.616455" lon="11.4982317"><ele>124.99999999999999</ele><time>2026-03-24T14:51:50.933Z</time></trkpt><trkpt lat="43.6165183" lon="11.4981567"><ele>125.0</ele><time>2026-03-24T14:51:51.936Z</time></trkpt><trkpt lat="43.6165817" lon="11.4980867"><ele>124.99999999999999</ele><time>2026-03-24T14:51:52.936Z</time></trkpt><trkpt lat="43.6166417" lon="11.4980133"><ele>125.0</ele><time>2026-03-24T14:51:53.932Z</time></trkpt><trkpt lat="43.616705" lon="11.4979433"><ele>125.0</ele><time>2026-03-24T14:51:54.934Z</time></trkpt><trkpt lat="43.6167667" lon="11.497875"><ele>125.0</ele><time>2026-03-24T14:51:55.933Z</time></trkpt><trkpt lat="43.6168267" lon="11.4978033"><ele>124.99999999999999</ele><time>2026-03-24T14:51:56.933Z</time></trkpt><trkpt lat="43.6168867" lon="11.4977317"><ele>125.0</ele><time>2026-03-24T14:51:57.932Z</time></trkpt><trkpt lat="43.6169483" lon="11.4976583"><ele>125.16666666666666</ele><time>2026-03-24T14:51:58.935Z</time></trkpt><trkpt lat="43.61701" lon="11.4975883"><ele>125.33333333333333</ele><time>2026-03-24T14:51:59.934Z</time></trkpt><trkpt lat="43.61707" lon="11.4975167"><ele>125.5</ele><time>2026-03-24T14:52:00.932Z</time></trkpt><trkpt lat="43.6171317" lon="11.4974467"><ele>125.66666666666666</ele><time>2026-03-24T14:52:01.931Z</time></trkpt><trkpt lat="43.617195" lon="11.4973783"><ele>125.83333333333333</ele><time>2026-03-24T14:52:02.935Z</time></trkpt><trkpt lat="43.6172567" lon="11.4973067"><ele>126.0</ele><time>2026-03-24T14:52:03.933Z</time></trkpt><trkpt lat="43.6173167" lon="11.4972367"><ele>126.0</ele><time>2026-03-24T14:52:04.932Z</time></trkpt><trkpt lat="43.6173783" lon="11.4971667"><ele>126.0</ele><time>2026-03-24T14:52:05.932Z</time></trkpt><trkpt lat="43.6174383" lon="11.4970983"><ele>126.0</ele><time>2026-03-24T14:52:06.934Z</time></trkpt><trkpt lat="43.6175017" lon="11.4970333"><ele>126.0</ele><time>2026-03-24T14:52:07.934Z</time></trkpt><trkpt lat="43.6175667" lon="11.49697"><ele>126.0</ele><time>2026-03-24T14:52:08.933Z</time></trkpt><trkpt lat="43.6176317" lon="11.4969083"><ele>126.0</ele><time>2026-03-24T14:52:09.933Z</time></trkpt><trkpt lat="43.6176983" lon="11.4968467"><ele>125.83333333333333</ele><time>2026-03-24T14:52:10.933Z</time></trkpt><trkpt lat="43.6177667" lon="11.49679"><ele>125.66666666666666</ele><time>2026-03-24T14:52:11.934Z</time></trkpt><trkpt lat="43.6178333" lon="11.4967383"><ele>125.5</ele><time>2026-03-24T14:52:12.932Z</time></trkpt><trkpt lat="43.6179017" lon="11.4966917"><ele>125.33333333333333</ele><time>2026-03-24T14:52:13.932Z</time></trkpt><trkpt lat="43.6179733" lon="11.4966467"><ele>125.16666666666666</ele><time>2026-03-24T14:52:14.935Z</time></trkpt><trkpt lat="43.6180467" lon="11.4966067"><ele>125.0</ele><time>2026-03-24T14:52:15.934Z</time></trkpt><trkpt lat="43.61812" lon="11.4965683"><ele>124.99999999999999</ele><time>2026-03-24T14:52:16.932Z</time></trkpt><trkpt lat="43.618195" lon="11.496535"><ele>125.0</ele><time>2026-03-24T14:52:17.933Z</time></trkpt><trkpt lat="43.61827" lon="11.4965067"><ele>125.0</ele><time>2026-03-24T14:52:18.932Z</time></trkpt><trkpt lat="43.6183467" lon="11.49648"><ele>125.0</ele><time>2026-03-24T14:52:19.936Z</time></trkpt><trkpt lat="43.61842" lon="11.4964567"><ele>124.99999999999999</ele><time>2026-03-24T14:52:20.934Z</time></trkpt><trkpt lat="43.6184917" lon="11.496435"><ele>125.0</ele><time>2026-03-24T14:52:21.932Z</time></trkpt><trkpt lat="43.6185667" lon="11.4964167"><ele>124.99999999999999</ele><time>2026-03-24T14:52:22.934Z</time></trkpt><trkpt lat="43.6186417" lon="11.4964033"><ele>125.0</ele><time>2026-03-24T14:52:23.933Z</time></trkpt><trkpt lat="43.6187167" lon="11.4963867"><ele>125.0</ele><time>2026-03-24T14:52:24.932Z</time></trkpt><trkpt lat="43.6187917" lon="11.4963733"><ele>125.0</ele><time>2026-03-24T14:52:25.933Z</time></trkpt><trkpt lat="43.6188683" lon="11.4963633"><ele>124.99999999999999</ele><time>2026-03-24T14:52:26.936Z</time></trkpt><trkpt lat="43.6189467" lon="11.4963517"><ele>125.0</ele><time>2026-03-24T14:52:27.932Z</time></trkpt><trkpt lat="43.6190233" lon="11.49634"><ele>125.66666666666666</ele><time>2026-03-24T14:52:28.934Z</time></trkpt><trkpt lat="43.6190983" lon="11.4963283"><ele>126.33333333333333</ele><time>2026-03-24T14:52:29.935Z</time></trkpt><trkpt lat="43.619175" lon="11.49632"><ele>127.0</ele><time>2026-03-24T14:52:30.934Z</time></trkpt><trkpt lat="43.6192533" lon="11.49631"><ele>127.66666666666666</ele><time>2026-03-24T14:52:31.933Z</time></trkpt><trkpt lat="43.6193317" lon="11.4963"><ele>128.33333333333334</ele><time>2026-03-24T14:52:32.933Z</time></trkpt><trkpt lat="43.61941" lon="11.4962933"><ele>129.0</ele><time>2026-03-24T14:52:33.934Z</time></trkpt><trkpt lat="43.6194883" lon="11.4962867"><ele>129.0</ele><time>2026-03-24T14:52:34.931Z</time></trkpt><trkpt lat="43.61957" lon="11.4962817"><ele>129.0</ele><time>2026-03-24T14:52:35.933Z</time></trkpt><trkpt lat="43.6196517" lon="11.4962767"><ele>129.0</ele><time>2026-03-24T14:52:36.934Z</time></trkpt><trkpt lat="43.61973" lon="11.49627"><ele>129.0</ele><time>2026-03-24T14:52:37.931Z</time></trkpt><trkpt lat="43.61981" lon="11.49626"><ele>129.0</ele><time>2026-03-24T14:52:38.935Z</time></trkpt><trkpt lat="43.6198883" lon="11.496245"><ele>129.0</ele><time>2026-03-24T14:52:39.934Z</time></trkpt><trkpt lat="43.619965" lon="11.4962367"><ele>128.33333333333334</ele><time>2026-03-24T14:52:40.933Z</time></trkpt><trkpt lat="43.620045" lon="11.49623"><ele>127.66666666666666</ele><time>2026-03-24T14:52:41.932Z</time></trkpt><trkpt lat="43.6201267" lon="11.496225"><ele>127.0</ele><time>2026-03-24T14:52:42.932Z</time></trkpt><trkpt lat="43.6202067" lon="11.4962183"><ele>126.33333333333333</ele><time>2026-03-24T14:52:43.934Z</time></trkpt><trkpt lat="43.6202833" lon="11.49621"><ele>125.66666666666666</ele><time>2026-03-24T14:52:44.934Z</time></trkpt><trkpt lat="43.6203567" lon="11.4961983"><ele>125.0</ele><time>2026-03-24T14:52:45.934Z</time></trkpt><trkpt lat="43.62043" lon="11.4961867"><ele>124.99999999999999</ele><time>2026-03-24T14:52:46.934Z</time></trkpt><trkpt lat="43.6205083" lon="11.49618"><ele>125.0</ele><time>2026-03-24T14:52:47.934Z</time></trkpt><trkpt lat="43.6205867" lon="11.49617"><ele>125.0</ele><time>2026-03-24T14:52:48.932Z</time></trkpt><trkpt lat="43.6206617" lon="11.4961533"><ele>125.0</ele><time>2026-03-24T14:52:49.933Z</time></trkpt><trkpt lat="43.6207383" lon="11.496135"><ele>124.99999999999999</ele><time>2026-03-24T14:52:50.932Z</time></trkpt><trkpt lat="43.6208133" lon="11.4961117"><ele>125.0</ele><time>2026-03-24T14:52:51.933Z</time></trkpt><trkpt lat="43.62089" lon="11.4960817"><ele>124.99999999999999</ele><time>2026-03-24T14:52:52.933Z</time></trkpt><trkpt lat="43.6209667" lon="11.4960467"><ele>125.0</ele><time>2026-03-24T14:52:53.933Z</time></trkpt><trkpt lat="43.6210367" lon="11.4960067"><ele>125.0</ele><time>2026-03-24T14:52:54.935Z</time></trkpt><trkpt lat="43.62111" lon="11.4959683"><ele>125.0</ele><time>2026-03-24T14:52:55.932Z</time></trkpt><trkpt lat="43.6211817" lon="11.495925"><ele>124.99999999999999</ele><time>2026-03-24T14:52:56.934Z</time></trkpt><trkpt lat="43.6212533" lon="11.4958783"><ele>125.0</ele><time>2026-03-24T14:52:57.933Z</time></trkpt><trkpt lat="43.621325" lon="11.4958317"><ele>125.33333333333333</ele><time>2026-03-24T14:52:58.932Z</time></trkpt><trkpt lat="43.6213983" lon="11.4957867"><ele>125.66666666666666</ele><time>2026-03-24T14:52:59.934Z</time></trkpt><trkpt lat="43.6214683" lon="11.495735"><ele>126.0</ele><time>2026-03-24T14:53:00.932Z</time></trkpt><trkpt lat="43.62154" lon="11.4956867"><ele>126.33333333333334</ele><time>2026-03-24T14:53:01.931Z</time></trkpt><trkpt lat="43.62161" lon="11.49564"><ele>126.66666666666667</ele><time>2026-03-24T14:53:02.933Z</time></trkpt><trkpt lat="43.62168" lon="11.4955933"><ele>127.0</ele><time>2026-03-24T14:53:03.934Z</time></trkpt><trkpt lat="43.6217483" lon="11.4955433"><ele>127.00000000000001</ele><time>2026-03-24T14:53:04.934Z</time></trkpt><trkpt lat="43.6218167" lon="11.49549"><ele>127.0</ele><time>2026-03-24T14:53:05.933Z</time></trkpt><trkpt lat="43.621885" lon="11.4954367"><ele>127.0</ele><time>2026-03-24T14:53:06.932Z</time></trkpt><trkpt lat="43.6219483" lon="11.4953783"><ele>127.0</ele><time>2026-03-24T14:53:07.934Z</time></trkpt><trkpt lat="43.6220117" lon="11.4953167"><ele>127.00000000000001</ele><time>2026-03-24T14:53:08.932Z</time></trkpt><trkpt lat="43.622075" lon="11.49526"><ele>127.0</ele><time>2026-03-24T14:53:09.933Z</time></trkpt><trkpt lat="43.6221417" lon="11.495205"><ele>127.0</ele><time>2026-03-24T14:53:10.931Z</time></trkpt><trkpt lat="43.62221" lon="11.4951533"><ele>127.0</ele><time>2026-03-24T14:53:11.933Z</time></trkpt><trkpt lat="43.622275" lon="11.4951033"><ele>127.0</ele><time>2026-03-24T14:53:12.934Z</time></trkpt><trkpt lat="43.62234" lon="11.4950567"><ele>127.0</ele><time>2026-03-24T14:53:13.931Z</time></trkpt><trkpt lat="43.6224033" lon="11.49501"><ele>127.0</ele><time>2026-03-24T14:53:14.933Z</time></trkpt><trkpt lat="43.6224617" lon="11.494965"><ele>127.0</ele><time>2026-03-24T14:53:15.933Z</time></trkpt><trkpt lat="43.62252" lon="11.4949183"><ele>127.0</ele><time>2026-03-24T14:53:16.931Z</time></trkpt><trkpt lat="43.6225817" lon="11.494875"><ele>127.0</ele><time>2026-03-24T14:53:17.933Z</time></trkpt><trkpt lat="43.6226433" lon="11.4948333"><ele>127.0</ele><time>2026-03-24T14:53:18.933Z</time></trkpt><trkpt lat="43.6227083" lon="11.4947983"><ele>127.0</ele><time>2026-03-24T14:53:19.933Z</time></trkpt><trkpt lat="43.62277" lon="11.4947633"><ele>127.0</ele><time>2026-03-24T14:53:20.933Z</time></trkpt><trkpt lat="43.6228317" lon="11.494725"><ele>127.0</ele><time>2026-03-24T14:53:21.935Z</time></trkpt><trkpt lat="43.622895" lon="11.4946883"><ele>127.0</ele><time>2026-03-24T14:53:22.933Z</time></trkpt><trkpt lat="43.6229567" lon="11.4946517"><ele>127.0</ele><time>2026-03-24T14:53:23.934Z</time></trkpt><trkpt lat="43.6230183" lon="11.4946133"><ele>126.85714285714286</ele><time>2026-03-24T14:53:24.934Z</time></trkpt><trkpt lat="43.62308" lon="11.4945733"><ele>126.71428571428571</ele><time>2026-03-24T14:53:25.934Z</time></trkpt><trkpt lat="43.6231383" lon="11.49453"><ele>126.57142857142857</ele><time>2026-03-24T14:53:26.934Z</time></trkpt><trkpt lat="43.6231933" lon="11.4944817"><ele>126.42857142857143</ele><time>2026-03-24T14:53:27.934Z</time></trkpt><trkpt lat="43.6232433" lon="11.4944283"><ele>126.28571428571428</ele><time>2026-03-24T14:53:28.934Z</time></trkpt><trkpt lat="43.62329" lon="11.4943633"><ele>126.14285714285714</ele><time>2026-03-24T14:53:29.933Z</time></trkpt><trkpt lat="43.623335" lon="11.4942933"><ele>126.0</ele><time>2026-03-24T14:53:30.934Z</time></trkpt><trkpt lat="43.623375" lon="11.4942183"><ele>126.0</ele><time>2026-03-24T14:53:31.933Z</time></trkpt><trkpt lat="43.6234083" lon="11.4941417"><ele>126.0</ele><time>2026-03-24T14:53:32.934Z</time></trkpt><trkpt lat="43.62344" lon="11.4940617"><ele>126.0</ele><time>2026-03-24T14:53:33.933Z</time></trkpt><trkpt lat="43.6234683" lon="11.4939767"><ele>126.0</ele><time>2026-03-24T14:53:34.933Z</time></trkpt><trkpt lat="43.6235" lon="11.493895"><ele>126.0</ele><time>2026-03-24T14:53:35.933Z</time></trkpt><trkpt lat="43.623535" lon="11.4938117"><ele>126.0</ele><time>2026-03-24T14:53:36.933Z</time></trkpt><trkpt lat="43.6235633" lon="11.4937267"><ele>126.0</ele><time>2026-03-24T14:53:37.933Z</time></trkpt><trkpt lat="43.623585" lon="11.4936383"><ele>125.85714285714286</ele><time>2026-03-24T14:53:38.934Z</time></trkpt><trkpt lat="43.62361" lon="11.4935483"><ele>125.71428571428572</ele><time>2026-03-24T14:53:39.934Z</time></trkpt><trkpt lat="43.6236333" lon="11.493455"><ele>125.57142857142857</ele><time>2026-03-24T14:53:40.933Z</time></trkpt><trkpt lat="43.6236567" lon="11.4933633"><ele>125.42857142857143</ele><time>2026-03-24T14:53:41.933Z</time></trkpt><trkpt lat="43.6236783" lon="11.4932717"><ele>125.28571428571429</ele><time>2026-03-24T14:53:42.934Z</time></trkpt><trkpt lat="43.6236967" lon="11.4931783"><ele>125.14285714285714</ele><time>2026-03-24T14:53:43.934Z</time></trkpt><trkpt lat="43.6237167" lon="11.4930867"><ele>125.0</ele><time>2026-03-24T14:53:44.934Z</time></trkpt><trkpt lat="43.6237317" lon="11.4929917"><ele>126.0</ele><time>2026-03-24T14:53:45.934Z</time></trkpt><trkpt lat="43.6237483" lon="11.4928967"><ele>127.0</ele><time>2026-03-24T14:53:46.934Z</time></trkpt><trkpt lat="43.62376" lon="11.4928017"><ele>128.0</ele><time>2026-03-24T14:53:47.932Z</time></trkpt><trkpt lat="43.6237683" lon="11.4927067"><ele>129.0</ele><time>2026-03-24T14:53:48.933Z</time></trkpt><trkpt lat="43.623775" lon="11.4926117"><ele>130.0</ele><time>2026-03-24T14:53:49.934Z</time></trkpt><trkpt lat="43.6237817" lon="11.4925183"><ele>131.0</ele><time>2026-03-24T14:53:50.934Z</time></trkpt><trkpt lat="43.623785" lon="11.492425"><ele>132.0</ele><time>2026-03-24T14:53:51.933Z</time></trkpt><trkpt lat="43.6237883" lon="11.4923317"><ele>132.0</ele><time>2026-03-24T14:53:52.934Z</time></trkpt><trkpt lat="43.6237883" lon="11.4922433"><ele>132.0</ele><time>2026-03-24T14:53:53.933Z</time></trkpt><trkpt lat="43.62379" lon="11.4920683"><ele>132.0</ele><time>2026-03-24T14:53:55.934Z</time></trkpt><trkpt lat="43.6237917" lon="11.491975"><ele>132.0</ele><time>2026-03-24T14:53:56.934Z</time></trkpt><trkpt lat="43.6237933" lon="11.4918833"><ele>132.0</ele><time>2026-03-24T14:53:57.932Z</time></trkpt><trkpt lat="43.623795" lon="11.49179"><ele>132.0</ele><time>2026-03-24T14:53:58.934Z</time></trkpt><trkpt lat="43.623795" lon="11.4916967"><ele>131.85714285714286</ele><time>2026-03-24T14:53:59.934Z</time></trkpt><trkpt lat="43.6238017" lon="11.491605"><ele>131.71428571428572</ele><time>2026-03-24T14:54:00.933Z</time></trkpt><trkpt lat="43.6238083" lon="11.4915067"><ele>131.57142857142858</ele><time>2026-03-24T14:54:01.933Z</time></trkpt><trkpt lat="43.6238117" lon="11.4914067"><ele>131.42857142857144</ele><time>2026-03-24T14:54:02.933Z</time></trkpt><trkpt lat="43.623815" lon="11.4913083"><ele>131.2857142857143</ele><time>2026-03-24T14:54:03.934Z</time></trkpt><trkpt lat="43.6238183" lon="11.4912067"><ele>131.14285714285714</ele><time>2026-03-24T14:54:04.933Z</time></trkpt><trkpt lat="43.6238217" lon="11.4911067"><ele>131.0</ele><time>2026-03-24T14:54:05.933Z</time></trkpt><trkpt lat="43.6238267" lon="11.491005"><ele>130.85714285714286</ele><time>2026-03-24T14:54:06.932Z</time></trkpt><trkpt lat="43.6238317" lon="11.4909017"><ele>130.71428571428572</ele><time>2026-03-24T14:54:07.933Z</time></trkpt><trkpt lat="43.6238367" lon="11.4907983"><ele>130.57142857142858</ele><time>2026-03-24T14:54:08.933Z</time></trkpt><trkpt lat="43.6238417" lon="11.4907"><ele>130.42857142857144</ele><time>2026-03-24T14:54:09.932Z</time></trkpt><trkpt lat="43.6238467" lon="11.4905967"><ele>130.28571428571428</ele><time>2026-03-24T14:54:10.932Z</time></trkpt><trkpt lat="43.6238517" lon="11.490495"><ele>130.14285714285717</ele><time>2026-03-24T14:54:11.931Z</time></trkpt><trkpt lat="43.6238567" lon="11.490395"><ele>130.0</ele><time>2026-03-24T14:54:12.935Z</time></trkpt><trkpt lat="43.6238617" lon="11.490295"><ele>129.66666666666669</ele><time>2026-03-24T14:54:13.933Z</time></trkpt><trkpt lat="43.6238683" lon="11.49019"><ele>129.33333333333334</ele><time>2026-03-24T14:54:14.933Z</time></trkpt><trkpt lat="43.623875" lon="11.490085"><ele>129.0</ele><time>2026-03-24T14:54:15.935Z</time></trkpt><trkpt lat="43.6238783" lon="11.4899817"><ele>128.66666666666666</ele><time>2026-03-24T14:54:16.933Z</time></trkpt><trkpt lat="43.6238817" lon="11.4898767"><ele>128.33333333333331</ele><time>2026-03-24T14:54:17.933Z</time></trkpt><trkpt lat="43.6238817" lon="11.489775"><ele>128.0</ele><time>2026-03-24T14:54:18.933Z</time></trkpt><trkpt lat="43.623885" lon="11.48967"><ele>127.83333333333333</ele><time>2026-03-24T14:54:19.932Z</time></trkpt><trkpt lat="43.6238917" lon="11.4895617"><ele>127.66666666666666</ele><time>2026-03-24T14:54:20.935Z</time></trkpt><trkpt lat="43.6238967" lon="11.489455"><ele>127.5</ele><time>2026-03-24T14:54:21.935Z</time></trkpt><trkpt lat="43.6239017" lon="11.489345"><ele>127.33333333333334</ele><time>2026-03-24T14:54:22.932Z</time></trkpt><trkpt lat="43.6239067" lon="11.4892333"><ele>127.16666666666667</ele><time>2026-03-24T14:54:23.932Z</time></trkpt><trkpt lat="43.6239133" lon="11.4891233"><ele>127.0</ele><time>2026-03-24T14:54:24.933Z</time></trkpt><trkpt lat="43.62392" lon="11.4890133"><ele>127.00000000000001</ele><time>2026-03-24T14:54:25.934Z</time></trkpt><trkpt lat="43.6239283" lon="11.488905"><ele>127.0</ele><time>2026-03-24T14:54:26.933Z</time></trkpt><trkpt lat="43.623935" lon="11.4887983"><ele>127.0</ele><time>2026-03-24T14:54:27.934Z</time></trkpt><trkpt lat="43.6239417" lon="11.4886883"><ele>127.0</ele><time>2026-03-24T14:54:28.933Z</time></trkpt><trkpt lat="43.62395" lon="11.4885783"><ele>127.00000000000001</ele><time>2026-03-24T14:54:29.933Z</time></trkpt><trkpt lat="43.6239583" lon="11.48847"><ele>127.0</ele><time>2026-03-24T14:54:30.934Z</time></trkpt><trkpt lat="43.6239683" lon="11.48836"><ele>127.00000000000001</ele><time>2026-03-24T14:54:31.933Z</time></trkpt><trkpt lat="43.62398" lon="11.48825"><ele>127.0</ele><time>2026-03-24T14:54:32.935Z</time></trkpt><trkpt lat="43.62399" lon="11.48814"><ele>127.0</ele><time>2026-03-24T14:54:33.932Z</time></trkpt><trkpt lat="43.6240017" lon="11.4880333"><ele>127.0</ele><time>2026-03-24T14:54:34.933Z</time></trkpt><trkpt lat="43.6240217" lon="11.4879267"><ele>127.00000000000001</ele><time>2026-03-24T14:54:35.933Z</time></trkpt><trkpt lat="43.624045" lon="11.487825"><ele>127.0</ele><time>2026-03-24T14:54:36.933Z</time></trkpt><trkpt lat="43.6240767" lon="11.4877283"><ele>126.66666666666667</ele><time>2026-03-24T14:54:37.932Z</time></trkpt><trkpt lat="43.624115" lon="11.487635"><ele>126.33333333333334</ele><time>2026-03-24T14:54:38.933Z</time></trkpt><trkpt lat="43.62416" lon="11.4875467"><ele>126.0</ele><time>2026-03-24T14:54:39.933Z</time></trkpt><trkpt lat="43.6242067" lon="11.4874683"><ele>125.66666666666666</ele><time>2026-03-24T14:54:40.933Z</time></trkpt><trkpt lat="43.6242567" lon="11.4873933"><ele>125.33333333333333</ele><time>2026-03-24T14:54:41.933Z</time></trkpt><trkpt lat="43.6243083" lon="11.48732"><ele>125.0</ele><time>2026-03-24T14:54:42.934Z</time></trkpt><trkpt lat="43.62436" lon="11.4872433"><ele>125.0</ele><time>2026-03-24T14:54:43.934Z</time></trkpt><trkpt lat="43.62441" lon="11.48717"><ele>125.0</ele><time>2026-03-24T14:54:44.933Z</time></trkpt><trkpt lat="43.62446" lon="11.4870967"><ele>125.0</ele><time>2026-03-24T14:54:45.932Z</time></trkpt><trkpt lat="43.6245133" lon="11.4870267"><ele>125.0</ele><time>2026-03-24T14:54:46.933Z</time></trkpt><trkpt lat="43.6245667" lon="11.4869567"><ele>125.0</ele><time>2026-03-24T14:54:47.931Z</time></trkpt><trkpt lat="43.62462" lon="11.4868883"><ele>125.0</ele><time>2026-03-24T14:54:48.932Z</time></trkpt><trkpt lat="43.6246767" lon="11.4868217"><ele>125.0</ele><time>2026-03-24T14:54:49.932Z</time></trkpt><trkpt lat="43.6247333" lon="11.4867617"><ele>125.14285714285714</ele><time>2026-03-24T14:54:50.933Z</time></trkpt><trkpt lat="43.62479" lon="11.4867017"><ele>125.28571428571429</ele><time>2026-03-24T14:54:51.934Z</time></trkpt><trkpt lat="43.6248483" lon="11.486645"><ele>125.42857142857143</ele><time>2026-03-24T14:54:52.933Z</time></trkpt><trkpt lat="43.6249067" lon="11.48659"><ele>125.57142857142857</ele><time>2026-03-24T14:54:53.933Z</time></trkpt><trkpt lat="43.624965" lon="11.4865383"><ele>125.71428571428572</ele><time>2026-03-24T14:54:54.933Z</time></trkpt><trkpt lat="43.6250217" lon="11.486485"><ele>125.85714285714286</ele><time>2026-03-24T14:54:55.933Z</time></trkpt><trkpt lat="43.625075" lon="11.4864283"><ele>126.0</ele><time>2026-03-24T14:54:56.933Z</time></trkpt><trkpt lat="43.6251267" lon="11.4863667"><ele>126.0</ele><time>2026-03-24T14:54:57.935Z</time></trkpt><trkpt lat="43.6251717" lon="11.4862983"><ele>126.0</ele><time>2026-03-24T14:54:58.934Z</time></trkpt><trkpt lat="43.6252133" lon="11.4862233"><ele>126.0</ele><time>2026-03-24T14:54:59.934Z</time></trkpt><trkpt lat="43.625255" lon="11.4861467"><ele>126.0</ele><time>2026-03-24T14:55:00.933Z</time></trkpt><trkpt lat="43.625295" lon="11.4860667"><ele>126.0</ele><time>2026-03-24T14:55:01.932Z</time></trkpt><trkpt lat="43.6253367" lon="11.4859883"><ele>126.0</ele><time>2026-03-24T14:55:02.935Z</time></trkpt><trkpt lat="43.62538" lon="11.4859083"><ele>126.0</ele><time>2026-03-24T14:55:03.933Z</time></trkpt><trkpt lat="43.6254233" lon="11.4858283"><ele>125.71428571428572</ele><time>2026-03-24T14:55:04.932Z</time></trkpt><trkpt lat="43.625465" lon="11.485745"><ele>125.42857142857143</ele><time>2026-03-24T14:55:05.934Z</time></trkpt><trkpt lat="43.6255067" lon="11.4856617"><ele>125.14285714285714</ele><time>2026-03-24T14:55:06.933Z</time></trkpt><trkpt lat="43.6255483" lon="11.48558"><ele>124.85714285714286</ele><time>2026-03-24T14:55:07.933Z</time></trkpt><trkpt lat="43.6255883" lon="11.4854967"><ele>124.57142857142858</ele><time>2026-03-24T14:55:08.932Z</time></trkpt><trkpt lat="43.6256283" lon="11.4854117"><ele>124.28571428571429</ele><time>2026-03-24T14:55:09.933Z</time></trkpt><trkpt lat="43.62567" lon="11.4853283"><ele>124.0</ele><time>2026-03-24T14:55:10.935Z</time></trkpt><trkpt lat="43.6257117" lon="11.485245"><ele>124.00000000000001</ele><time>2026-03-24T14:55:11.934Z</time></trkpt><trkpt lat="43.625755" lon="11.48516"><ele>124.0</ele><time>2026-03-24T14:55:12.933Z</time></trkpt><trkpt lat="43.6257933" lon="11.4850783"><ele>124.0</ele><time>2026-03-24T14:55:13.933Z</time></trkpt><trkpt lat="43.6258317" lon="11.484995"><ele>124.0</ele><time>2026-03-24T14:55:14.934Z</time></trkpt><trkpt lat="43.6258683" lon="11.4849117"><ele>124.00000000000001</ele><time>2026-03-24T14:55:15.934Z</time></trkpt><trkpt lat="43.6259017" lon="11.4848317"><ele>124.0</ele><time>2026-03-24T14:55:16.932Z</time></trkpt><trkpt lat="43.6259717" lon="11.484695"><ele>124.0</ele><time>2026-03-24T14:55:18.931Z</time></trkpt><trkpt lat="43.626045" lon="11.4845783"><ele>124.0</ele><time>2026-03-24T14:55:20.932Z</time></trkpt><trkpt lat="43.62612" lon="11.4844567"><ele>124.0</ele><time>2026-03-24T14:55:22.932Z</time></trkpt><trkpt lat="43.6261883" lon="11.48435"><ele>124.0</ele><time>2026-03-24T14:55:24.932Z</time></trkpt><trkpt lat="43.626275" lon="11.484295"><ele>124.0</ele><time>2026-03-24T14:55:26.934Z</time></trkpt><trkpt lat="43.6263483" lon="11.48436"><ele>124.00000000000001</ele><time>2026-03-24T14:55:28.933Z</time></trkpt><trkpt lat="43.6264117" lon="11.4845"><ele>124.0</ele><time>2026-03-24T14:55:30.933Z</time></trkpt><trkpt lat="43.6264467" lon="11.4845767"><ele>124.0</ele><time>2026-03-24T14:55:31.933Z</time></trkpt><trkpt lat="43.6264817" lon="11.4846533"><ele>124.0</ele><time>2026-03-24T14:55:32.933Z</time></trkpt><trkpt lat="43.62652" lon="11.48473"><ele>124.00000000000001</ele><time>2026-03-24T14:55:33.934Z</time></trkpt><trkpt lat="43.6265583" lon="11.484805"><ele>124.0</ele><time>2026-03-24T14:55:34.932Z</time></trkpt><trkpt lat="43.6265967" lon="11.4848817"><ele>124.0</ele><time>2026-03-24T14:55:35.932Z</time></trkpt><trkpt lat="43.6266333" lon="11.4849633"><ele>124.00000000000001</ele><time>2026-03-24T14:55:36.931Z</time></trkpt><trkpt lat="43.6266683" lon="11.485045"><ele>124.0</ele><time>2026-03-24T14:55:37.933Z</time></trkpt><trkpt lat="43.6267033" lon="11.4851283"><ele>124.0</ele><time>2026-03-24T14:55:38.933Z</time></trkpt><trkpt lat="43.6267383" lon="11.4852117"><ele>124.00000000000001</ele><time>2026-03-24T14:55:39.933Z</time></trkpt><trkpt lat="43.626775" lon="11.485295"><ele>124.0</ele><time>2026-03-24T14:55:40.933Z</time></trkpt><trkpt lat="43.62681" lon="11.4853783"><ele>124.0</ele><time>2026-03-24T14:55:41.933Z</time></trkpt><trkpt lat="43.626845" lon="11.4854617"><ele>124.0</ele><time>2026-03-24T14:55:42.932Z</time></trkpt><trkpt lat="43.62688" lon="11.4855467"><ele>124.00000000000001</ele><time>2026-03-24T14:55:43.934Z</time></trkpt><trkpt lat="43.6269133" lon="11.485635"><ele>124.0</ele><time>2026-03-24T14:55:44.935Z</time></trkpt><trkpt lat="43.626945" lon="11.48572"><ele>124.0</ele><time>2026-03-24T14:55:45.932Z</time></trkpt><trkpt lat="43.6269783" lon="11.485805"><ele>124.00000000000001</ele><time>2026-03-24T14:55:46.933Z</time></trkpt><trkpt lat="43.6270083" lon="11.48589"><ele>124.0</ele><time>2026-03-24T14:55:47.934Z</time></trkpt><trkpt lat="43.62704" lon="11.4859783"><ele>124.0</ele><time>2026-03-24T14:55:48.934Z</time></trkpt><trkpt lat="43.6270683" lon="11.4860667"><ele>124.14285714285715</ele><time>2026-03-24T14:55:49.935Z</time></trkpt><trkpt lat="43.6270983" lon="11.486155"><ele>124.2857142857143</ele><time>2026-03-24T14:55:50.935Z</time></trkpt><trkpt lat="43.6271283" lon="11.4862383"><ele>124.42857142857143</ele><time>2026-03-24T14:55:51.933Z</time></trkpt><trkpt lat="43.62716" lon="11.4863233"><ele>124.57142857142858</ele><time>2026-03-24T14:55:52.931Z</time></trkpt><trkpt lat="43.6271917" lon="11.4864067"><ele>124.71428571428572</ele><time>2026-03-24T14:55:53.932Z</time></trkpt><trkpt lat="43.6272217" lon="11.48649"><ele>124.85714285714286</ele><time>2026-03-24T14:55:54.931Z</time></trkpt><trkpt lat="43.6272517" lon="11.4865733"><ele>125.0</ele><time>2026-03-24T14:55:55.932Z</time></trkpt><trkpt lat="43.6272833" lon="11.486655"><ele>125.14285714285714</ele><time>2026-03-24T14:55:56.932Z</time></trkpt><trkpt lat="43.62731" lon="11.4867433"><ele>125.28571428571429</ele><time>2026-03-24T14:55:57.934Z</time></trkpt><trkpt lat="43.627335" lon="11.4868333"><ele>125.42857142857143</ele><time>2026-03-24T14:55:58.934Z</time></trkpt><trkpt lat="43.6273617" lon="11.4869217"><ele>125.57142857142857</ele><time>2026-03-24T14:55:59.932Z</time></trkpt><trkpt lat="43.6273883" lon="11.48701"><ele>125.71428571428572</ele><time>2026-03-24T14:56:00.934Z</time></trkpt><trkpt lat="43.627415" lon="11.4870983"><ele>125.85714285714286</ele><time>2026-03-24T14:56:01.932Z</time></trkpt><trkpt lat="43.62744" lon="11.4871867"><ele>126.0</ele><time>2026-03-24T14:56:02.933Z</time></trkpt><trkpt lat="43.627465" lon="11.487275"><ele>126.0</ele><time>2026-03-24T14:56:03.932Z</time></trkpt><trkpt lat="43.627495" lon="11.48736"><ele>126.0</ele><time>2026-03-24T14:56:04.933Z</time></trkpt><trkpt lat="43.6275233" lon="11.48745"><ele>126.0</ele><time>2026-03-24T14:56:05.933Z</time></trkpt><trkpt lat="43.62755" lon="11.4875433"><ele>126.0</ele><time>2026-03-24T14:56:06.931Z</time></trkpt><trkpt lat="43.627575" lon="11.487635"><ele>126.0</ele><time>2026-03-24T14:56:07.931Z</time></trkpt><trkpt lat="43.6275983" lon="11.48773"><ele>126.0</ele><time>2026-03-24T14:56:08.933Z</time></trkpt><trkpt lat="43.6276217" lon="11.4878267"><ele>126.0</ele><time>2026-03-24T14:56:09.933Z</time></trkpt><trkpt lat="43.6276433" lon="11.4879233"><ele>126.0</ele><time>2026-03-24T14:56:10.933Z</time></trkpt><trkpt lat="43.6276683" lon="11.4880167"><ele>126.0</ele><time>2026-03-24T14:56:11.933Z</time></trkpt><trkpt lat="43.62769" lon="11.4881117"><ele>126.0</ele><time>2026-03-24T14:56:12.933Z</time></trkpt><trkpt lat="43.6277117" lon="11.4882083"><ele>126.0</ele><time>2026-03-24T14:56:13.934Z</time></trkpt><trkpt lat="43.6277333" lon="11.488305"><ele>126.0</ele><time>2026-03-24T14:56:14.933Z</time></trkpt><trkpt lat="43.627755" lon="11.4884033"><ele>126.0</ele><time>2026-03-24T14:56:15.935Z</time></trkpt><trkpt lat="43.6277767" lon="11.4884983"><ele>126.0</ele><time>2026-03-24T14:56:16.932Z</time></trkpt><trkpt lat="43.6277983" lon="11.488595"><ele>125.85714285714286</ele><time>2026-03-24T14:56:17.931Z</time></trkpt><trkpt lat="43.6278167" lon="11.48869"><ele>125.71428571428572</ele><time>2026-03-24T14:56:18.934Z</time></trkpt><trkpt lat="43.6278367" lon="11.4887833"><ele>125.57142857142857</ele><time>2026-03-24T14:56:19.933Z</time></trkpt><trkpt lat="43.6278567" lon="11.488875"><ele>125.42857142857143</ele><time>2026-03-24T14:56:20.934Z</time></trkpt><trkpt lat="43.6278783" lon="11.4889667"><ele>125.28571428571429</ele><time>2026-03-24T14:56:21.933Z</time></trkpt><trkpt lat="43.6278967" lon="11.48906"><ele>125.14285714285714</ele><time>2026-03-24T14:56:22.932Z</time></trkpt><trkpt lat="43.6279133" lon="11.4891533"><ele>125.0</ele><time>2026-03-24T14:56:23.934Z</time></trkpt><trkpt lat="43.627935" lon="11.489245"><ele>125.0</ele><time>2026-03-24T14:56:24.934Z</time></trkpt><trkpt lat="43.6279583" lon="11.4893383"><ele>125.0</ele><time>2026-03-24T14:56:25.933Z</time></trkpt><trkpt lat="43.6279817" lon="11.4894333"><ele>125.0</ele><time>2026-03-24T14:56:26.934Z</time></trkpt><trkpt lat="43.6280033" lon="11.4895283"><ele>125.0</ele><time>2026-03-24T14:56:27.933Z</time></trkpt><trkpt lat="43.6280283" lon="11.4896217"><ele>125.0</ele><time>2026-03-24T14:56:28.934Z</time></trkpt><trkpt lat="43.628055" lon="11.4897117"><ele>125.0</ele><time>2026-03-24T14:56:29.934Z</time></trkpt><trkpt lat="43.62808" lon="11.4898033"><ele>125.0</ele><time>2026-03-24T14:56:30.933Z</time></trkpt><trkpt lat="43.6281117" lon="11.4898883"><ele>125.28571428571428</ele><time>2026-03-24T14:56:31.933Z</time></trkpt><trkpt lat="43.6281467" lon="11.4899717"><ele>125.57142857142858</ele><time>2026-03-24T14:56:32.935Z</time></trkpt><trkpt lat="43.6281883" lon="11.4900483"><ele>125.85714285714286</ele><time>2026-03-24T14:56:33.933Z</time></trkpt><trkpt lat="43.6282367" lon="11.4901183"><ele>126.14285714285714</ele><time>2026-03-24T14:56:34.933Z</time></trkpt><trkpt lat="43.6282917" lon="11.4901833"><ele>126.42857142857142</ele><time>2026-03-24T14:56:35.934Z</time></trkpt><trkpt lat="43.6283517" lon="11.49024"><ele>126.71428571428572</ele><time>2026-03-24T14:56:36.933Z</time></trkpt><trkpt lat="43.628415" lon="11.4902867"><ele>127.0</ele><time>2026-03-24T14:56:37.934Z</time></trkpt><trkpt lat="43.62848" lon="11.490325"><ele>127.0</ele><time>2026-03-24T14:56:38.935Z</time></trkpt><trkpt lat="43.6285483" lon="11.4903583"><ele>127.0</ele><time>2026-03-24T14:56:39.935Z</time></trkpt><trkpt lat="43.628615" lon="11.4903867"><ele>127.0</ele><time>2026-03-24T14:56:40.933Z</time></trkpt><trkpt lat="43.62868" lon="11.4904067"><ele>127.0</ele><time>2026-03-24T14:56:41.933Z</time></trkpt><trkpt lat="43.62875" lon="11.4904267"><ele>127.0</ele><time>2026-03-24T14:56:42.932Z</time></trkpt><trkpt lat="43.6288217" lon="11.4904433"><ele>127.0</ele><time>2026-03-24T14:56:43.932Z</time></trkpt><trkpt lat="43.62889" lon="11.49046"><ele>127.0</ele><time>2026-03-24T14:56:44.933Z</time></trkpt><trkpt lat="43.6289583" lon="11.49047"><ele>127.14285714285714</ele><time>2026-03-24T14:56:45.933Z</time></trkpt><trkpt lat="43.6290267" lon="11.49048"><ele>127.28571428571428</ele><time>2026-03-24T14:56:46.934Z</time></trkpt><trkpt lat="43.6290933" lon="11.490495"><ele>127.42857142857142</ele><time>2026-03-24T14:56:47.933Z</time></trkpt><trkpt lat="43.6291617" lon="11.4905133"><ele>127.57142857142857</ele><time>2026-03-24T14:56:48.932Z</time></trkpt><trkpt lat="43.62923" lon="11.4905333"><ele>127.7142857142857</ele><time>2026-03-24T14:56:49.933Z</time></trkpt><trkpt lat="43.6292983" lon="11.4905467"><ele>127.85714285714285</ele><time>2026-03-24T14:56:50.935Z</time></trkpt><trkpt lat="43.6293667" lon="11.4905583"><ele>128.0</ele><time>2026-03-24T14:56:51.935Z</time></trkpt><trkpt lat="43.6294333" lon="11.4905683"><ele>128.14285714285714</ele><time>2026-03-24T14:56:52.933Z</time></trkpt><trkpt lat="43.6295033" lon="11.4905817"><ele>128.28571428571428</ele><time>2026-03-24T14:56:53.932Z</time></trkpt><trkpt lat="43.6295717" lon="11.4905933"><ele>128.42857142857142</ele><time>2026-03-24T14:56:54.933Z</time></trkpt><trkpt lat="43.62964" lon="11.4906033"><ele>128.57142857142856</ele><time>2026-03-24T14:56:55.932Z</time></trkpt><trkpt lat="43.6297083" lon="11.4906167"><ele>128.71428571428572</ele><time>2026-03-24T14:56:56.933Z</time></trkpt><trkpt lat="43.6297767" lon="11.4906317"><ele>128.85714285714283</ele><time>2026-03-24T14:56:57.932Z</time></trkpt><trkpt lat="43.629845" lon="11.4906483"><ele>129.0</ele><time>2026-03-24T14:56:58.933Z</time></trkpt><trkpt lat="43.6299133" lon="11.4906667"><ele>128.99999999999997</ele><time>2026-03-24T14:56:59.933Z</time></trkpt><trkpt lat="43.62998" lon="11.4906883"><ele>129.0</ele><time>2026-03-24T14:57:00.932Z</time></trkpt><trkpt lat="43.6300483" lon="11.490715"><ele>129.0</ele><time>2026-03-24T14:57:01.933Z</time></trkpt><trkpt lat="43.6301133" lon="11.4907433"><ele>129.0</ele><time>2026-03-24T14:57:02.933Z</time></trkpt><trkpt lat="43.6301767" lon="11.4907717"><ele>129.0</ele><time>2026-03-24T14:57:03.932Z</time></trkpt><trkpt lat="43.6302417" lon="11.4908017"><ele>128.99999999999997</ele><time>2026-03-24T14:57:04.933Z</time></trkpt><trkpt lat="43.6303067" lon="11.4908367"><ele>129.0</ele><time>2026-03-24T14:57:05.934Z</time></trkpt><trkpt lat="43.6303683" lon="11.49087"><ele>128.85714285714283</ele><time>2026-03-24T14:57:06.933Z</time></trkpt><trkpt lat="43.6304317" lon="11.4909033"><ele>128.71428571428572</ele><time>2026-03-24T14:57:07.933Z</time></trkpt><trkpt lat="43.6304967" lon="11.4909383"><ele>128.57142857142856</ele><time>2026-03-24T14:57:08.933Z</time></trkpt><trkpt lat="43.6305617" lon="11.490975"><ele>128.42857142857142</ele><time>2026-03-24T14:57:09.933Z</time></trkpt><trkpt lat="43.630625" lon="11.49101"><ele>128.28571428571428</ele><time>2026-03-24T14:57:10.933Z</time></trkpt><trkpt lat="43.6306883" lon="11.4910417"><ele>128.14285714285714</ele><time>2026-03-24T14:57:11.933Z</time></trkpt><trkpt lat="43.630755" lon="11.4910783"><ele>128.0</ele><time>2026-03-24T14:57:12.934Z</time></trkpt><trkpt lat="43.6308183" lon="11.49112"><ele>128.0</ele><time>2026-03-24T14:57:13.933Z</time></trkpt><trkpt lat="43.6308817" lon="11.4911617"><ele>127.99999999999999</ele><time>2026-03-24T14:57:14.934Z</time></trkpt><trkpt lat="43.6309433" lon="11.4912033"><ele>128.0</ele><time>2026-03-24T14:57:15.933Z</time></trkpt><trkpt lat="43.6310017" lon="11.4912483"><ele>128.0</ele><time>2026-03-24T14:57:16.933Z</time></trkpt><trkpt lat="43.63106" lon="11.4912967"><ele>127.99999999999999</ele><time>2026-03-24T14:57:17.933Z</time></trkpt><trkpt lat="43.631115" lon="11.4913517"><ele>128.0</ele><time>2026-03-24T14:57:18.934Z</time></trkpt><trkpt lat="43.6311717" lon="11.4914017"><ele>128.0</ele><time>2026-03-24T14:57:19.934Z</time></trkpt><trkpt lat="43.6312317" lon="11.4914533"><ele>128.57142857142856</ele><time>2026-03-24T14:57:20.933Z</time></trkpt><trkpt lat="43.63129" lon="11.4915083"><ele>129.14285714285714</ele><time>2026-03-24T14:57:21.934Z</time></trkpt><trkpt lat="43.6313417" lon="11.4915683"><ele>129.71428571428572</ele><time>2026-03-24T14:57:22.933Z</time></trkpt><trkpt lat="43.6313917" lon="11.4916217"><ele>130.28571428571428</ele><time>2026-03-24T14:57:23.933Z</time></trkpt><trkpt lat="43.6314433" lon="11.4916783"><ele>130.85714285714286</ele><time>2026-03-24T14:57:24.933Z</time></trkpt><trkpt lat="43.6314967" lon="11.4917383"><ele>131.42857142857142</ele><time>2026-03-24T14:57:25.933Z</time></trkpt><trkpt lat="43.6315483" lon="11.4918017"><ele>132.0</ele><time>2026-03-24T14:57:26.933Z</time></trkpt><trkpt lat="43.6316017" lon="11.4918583"><ele>132.0</ele><time>2026-03-24T14:57:27.933Z</time></trkpt><trkpt lat="43.6316517" lon="11.491915"><ele>132.0</ele><time>2026-03-24T14:57:28.933Z</time></trkpt><trkpt lat="43.6317033" lon="11.4919733"><ele>132.0</ele><time>2026-03-24T14:57:29.932Z</time></trkpt><trkpt lat="43.631755" lon="11.4920317"><ele>132.0</ele><time>2026-03-24T14:57:30.934Z</time></trkpt><trkpt lat="43.6318083" lon="11.4920917"><ele>132.0</ele><time>2026-03-24T14:57:31.933Z</time></trkpt><trkpt lat="43.6318617" lon="11.4921533"><ele>132.0</ele><time>2026-03-24T14:57:32.933Z</time></trkpt><trkpt lat="43.631915" lon="11.4922133"><ele>132.0</ele><time>2026-03-24T14:57:33.934Z</time></trkpt><trkpt lat="43.6319683" lon="11.4922767"><ele>132.28571428571428</ele><time>2026-03-24T14:57:34.933Z</time></trkpt><trkpt lat="43.6320167" lon="11.4923433"><ele>132.57142857142858</ele><time>2026-03-24T14:57:35.934Z</time></trkpt><trkpt lat="43.63207" lon="11.4924083"><ele>132.85714285714286</ele><time>2026-03-24T14:57:36.933Z</time></trkpt><trkpt lat="43.6321183" lon="11.4924717"><ele>133.14285714285714</ele><time>2026-03-24T14:57:37.933Z</time></trkpt><trkpt lat="43.63217" lon="11.4925367"><ele>133.42857142857142</ele><time>2026-03-24T14:57:38.933Z</time></trkpt><trkpt lat="43.632215" lon="11.4926067"><ele>133.71428571428572</ele><time>2026-03-24T14:57:39.934Z</time></trkpt><trkpt lat="43.6322633" lon="11.492675"><ele>134.0</ele><time>2026-03-24T14:57:40.934Z</time></trkpt><trkpt lat="43.6323083" lon="11.4927467"><ele>134.0</ele><time>2026-03-24T14:57:41.933Z</time></trkpt><trkpt lat="43.63235" lon="11.49282"><ele>134.0</ele><time>2026-03-24T14:57:42.932Z</time></trkpt><trkpt lat="43.6323933" lon="11.4928917"><ele>134.0</ele><time>2026-03-24T14:57:43.932Z</time></trkpt><trkpt lat="43.6324367" lon="11.492965"><ele>134.0</ele><time>2026-03-24T14:57:44.933Z</time></trkpt><trkpt lat="43.6324783" lon="11.49304"><ele>134.0</ele><time>2026-03-24T14:57:45.932Z</time></trkpt><trkpt lat="43.63252" lon="11.4931183"><ele>134.0</ele><time>2026-03-24T14:57:46.933Z</time></trkpt><trkpt lat="43.6325617" lon="11.4931967"><ele>134.0</ele><time>2026-03-24T14:57:47.933Z</time></trkpt><trkpt lat="43.6326017" lon="11.4932817"><ele>134.0</ele><time>2026-03-24T14:57:48.933Z</time></trkpt><trkpt lat="43.6326367" lon="11.4933667"><ele>134.0</ele><time>2026-03-24T14:57:49.933Z</time></trkpt><trkpt lat="43.6326717" lon="11.493455"><ele>134.0</ele><time>2026-03-24T14:57:50.933Z</time></trkpt><trkpt lat="43.6326983" lon="11.4935417"><ele>134.0</ele><time>2026-03-24T14:57:51.935Z</time></trkpt><trkpt lat="43.6327283" lon="11.4936233"><ele>134.0</ele><time>2026-03-24T14:57:52.932Z</time></trkpt><trkpt lat="43.6327617" lon="11.4937"><ele>134.0</ele><time>2026-03-24T14:57:53.932Z</time></trkpt><trkpt lat="43.632815" lon="11.4938633"><ele>134.42857142857144</ele><time>2026-03-24T14:57:55.935Z</time></trkpt><trkpt lat="43.6328367" lon="11.49395"><ele>134.85714285714286</ele><time>2026-03-24T14:57:56.933Z</time></trkpt><trkpt lat="43.6328617" lon="11.4940333"><ele>135.28571428571428</ele><time>2026-03-24T14:57:57.933Z</time></trkpt><trkpt lat="43.6328867" lon="11.4941167"><ele>135.71428571428572</ele><time>2026-03-24T14:57:58.936Z</time></trkpt><trkpt lat="43.6329117" lon="11.4942033"><ele>136.14285714285714</ele><time>2026-03-24T14:57:59.933Z</time></trkpt><trkpt lat="43.6329267" lon="11.4942917"><ele>136.57142857142858</ele><time>2026-03-24T14:58:00.933Z</time></trkpt><trkpt lat="43.632945" lon="11.49438"><ele>137.0</ele><time>2026-03-24T14:58:01.934Z</time></trkpt><trkpt lat="43.6329667" lon="11.4944667"><ele>137.00000000000003</ele><time>2026-03-24T14:58:02.936Z</time></trkpt><trkpt lat="43.63298" lon="11.4945533"><ele>137.0</ele><time>2026-03-24T14:58:03.934Z</time></trkpt><trkpt lat="43.633" lon="11.4946433"><ele>137.0</ele><time>2026-03-24T14:58:04.933Z</time></trkpt><trkpt lat="43.6330133" lon="11.49473"><ele>137.0</ele><time>2026-03-24T14:58:05.933Z</time></trkpt><trkpt lat="43.6330283" lon="11.49482"><ele>137.0</ele><time>2026-03-24T14:58:06.935Z</time></trkpt><trkpt lat="43.6330467" lon="11.49491"><ele>137.00000000000003</ele><time>2026-03-24T14:58:07.933Z</time></trkpt><trkpt lat="43.63306" lon="11.495005"><ele>137.0</ele><time>2026-03-24T14:58:08.933Z</time></trkpt><trkpt lat="43.63308" lon="11.495095"><ele>136.71428571428572</ele><time>2026-03-24T14:58:09.933Z</time></trkpt><trkpt lat="43.633095" lon="11.495185"><ele>136.42857142857144</ele><time>2026-03-24T14:58:10.933Z</time></trkpt><trkpt lat="43.6331117" lon="11.495275"><ele>136.14285714285714</ele><time>2026-03-24T14:58:11.933Z</time></trkpt><trkpt lat="43.63312" lon="11.49537"><ele>135.85714285714286</ele><time>2026-03-24T14:58:12.933Z</time></trkpt><trkpt lat="43.633135" lon="11.495465"><ele>135.57142857142856</ele><time>2026-03-24T14:58:13.933Z</time></trkpt><trkpt lat="43.6331533" lon="11.4955583"><ele>135.28571428571428</ele><time>2026-03-24T14:58:14.934Z</time></trkpt><trkpt lat="43.6331767" lon="11.49565"><ele>135.0</ele><time>2026-03-24T14:58:15.934Z</time></trkpt><trkpt lat="43.6332" lon="11.495735"><ele>134.85714285714286</ele><time>2026-03-24T14:58:16.935Z</time></trkpt><trkpt lat="43.6332267" lon="11.495815"><ele>134.7142857142857</ele><time>2026-03-24T14:58:17.933Z</time></trkpt><trkpt lat="43.63326" lon="11.4958933"><ele>134.57142857142856</ele><time>2026-03-24T14:58:18.933Z</time></trkpt><trkpt lat="43.633295" lon="11.4959733"><ele>134.42857142857142</ele><time>2026-03-24T14:58:19.933Z</time></trkpt><trkpt lat="43.6333283" lon="11.4960517"><ele>134.28571428571428</ele><time>2026-03-24T14:58:20.935Z</time></trkpt><trkpt lat="43.6333633" lon="11.49613"><ele>134.14285714285714</ele><time>2026-03-24T14:58:21.933Z</time></trkpt><trkpt lat="43.6333983" lon="11.49621"><ele>134.0</ele><time>2026-03-24T14:58:22.932Z</time></trkpt><trkpt lat="43.633435" lon="11.4962917"><ele>134.0</ele><time>2026-03-24T14:58:23.933Z</time></trkpt><trkpt lat="43.6334767" lon="11.4963717"><ele>134.0</ele><time>2026-03-24T14:58:24.933Z</time></trkpt><trkpt lat="43.633515" lon="11.4964517"><ele>134.0</ele><time>2026-03-24T14:58:25.933Z</time></trkpt><trkpt lat="43.6335533" lon="11.496535"><ele>134.0</ele><time>2026-03-24T14:58:26.933Z</time></trkpt><trkpt lat="43.63359" lon="11.4966167"><ele>134.0</ele><time>2026-03-24T14:58:27.933Z</time></trkpt><trkpt lat="43.6336267" lon="11.4966967"><ele>134.0</ele><time>2026-03-24T14:58:28.933Z</time></trkpt><trkpt lat="43.6336633" lon="11.4967767"><ele>134.0</ele><time>2026-03-24T14:58:29.933Z</time></trkpt><trkpt lat="43.6337" lon="11.4968583"><ele>134.28571428571428</ele><time>2026-03-24T14:58:30.933Z</time></trkpt><trkpt lat="43.63374" lon="11.49694"><ele>134.57142857142856</ele><time>2026-03-24T14:58:31.936Z</time></trkpt><trkpt lat="43.6337767" lon="11.49702"><ele>134.85714285714283</ele><time>2026-03-24T14:58:32.933Z</time></trkpt><trkpt lat="43.6338133" lon="11.4971"><ele>135.14285714285714</ele><time>2026-03-24T14:58:33.934Z</time></trkpt><trkpt lat="43.63385" lon="11.4971817"><ele>135.42857142857142</ele><time>2026-03-24T14:58:34.931Z</time></trkpt><trkpt lat="43.63389" lon="11.4972617"><ele>135.7142857142857</ele><time>2026-03-24T14:58:35.933Z</time></trkpt><trkpt lat="43.63393" lon="11.4973383"><ele>136.0</ele><time>2026-03-24T14:58:36.933Z</time></trkpt><trkpt lat="43.63397" lon="11.497415"><ele>135.99999999999997</ele><time>2026-03-24T14:58:37.935Z</time></trkpt><trkpt lat="43.63401" lon="11.4974917"><ele>136.0</ele><time>2026-03-24T14:58:38.933Z</time></trkpt><trkpt lat="43.6340517" lon="11.49757"><ele>136.0</ele><time>2026-03-24T14:58:39.936Z</time></trkpt><trkpt lat="43.6340917" lon="11.4976467"><ele>136.0</ele><time>2026-03-24T14:58:40.933Z</time></trkpt><trkpt lat="43.6341367" lon="11.49772"><ele>136.0</ele><time>2026-03-24T14:58:41.935Z</time></trkpt><trkpt lat="43.63418" lon="11.4977933"><ele>135.99999999999997</ele><time>2026-03-24T14:58:42.936Z</time></trkpt><trkpt lat="43.6342233" lon="11.4978667"><ele>136.0</ele><time>2026-03-24T14:58:43.933Z</time></trkpt><trkpt lat="43.6342667" lon="11.4979383"><ele>136.14285714285714</ele><time>2026-03-24T14:58:44.934Z</time></trkpt><trkpt lat="43.63431" lon="11.4980117"><ele>136.28571428571428</ele><time>2026-03-24T14:58:45.933Z</time></trkpt><trkpt lat="43.6343517" lon="11.498085"><ele>136.42857142857144</ele><time>2026-03-24T14:58:46.932Z</time></trkpt><trkpt lat="43.634395" lon="11.4981567"><ele>136.57142857142856</ele><time>2026-03-24T14:58:47.932Z</time></trkpt><trkpt lat="43.6344383" lon="11.4982317"><ele>136.71428571428572</ele><time>2026-03-24T14:58:48.934Z</time></trkpt><trkpt lat="43.63448" lon="11.4983067"><ele>136.85714285714286</ele><time>2026-03-24T14:58:49.936Z</time></trkpt><trkpt lat="43.63452" lon="11.4983883"><ele>137.0</ele><time>2026-03-24T14:58:50.935Z</time></trkpt><trkpt lat="43.63456" lon="11.4984667"><ele>137.14285714285717</ele><time>2026-03-24T14:58:51.933Z</time></trkpt><trkpt lat="43.6346033" lon="11.4985433"><ele>137.28571428571428</ele><time>2026-03-24T14:58:52.933Z</time></trkpt><trkpt lat="43.634645" lon="11.4986183"><ele>137.42857142857144</ele><time>2026-03-24T14:58:53.933Z</time></trkpt><trkpt lat="43.6346867" lon="11.4986967"><ele>137.57142857142858</ele><time>2026-03-24T14:58:54.933Z</time></trkpt><trkpt lat="43.6347283" lon="11.4987733"><ele>137.71428571428572</ele><time>2026-03-24T14:58:55.933Z</time></trkpt><trkpt lat="43.63477" lon="11.4988533"><ele>137.85714285714286</ele><time>2026-03-24T14:58:56.934Z</time></trkpt><trkpt lat="43.63481" lon="11.49893"><ele>138.0</ele><time>2026-03-24T14:58:57.933Z</time></trkpt><trkpt lat="43.6348517" lon="11.499005"><ele>138.0</ele><time>2026-03-24T14:58:58.935Z</time></trkpt><trkpt lat="43.6348967" lon="11.49908"><ele>138.0</ele><time>2026-03-24T14:58:59.934Z</time></trkpt><trkpt lat="43.63494" lon="11.4991517"><ele>138.0</ele><time>2026-03-24T14:59:00.935Z</time></trkpt><trkpt lat="43.6349867" lon="11.4992217"><ele>138.0</ele><time>2026-03-24T14:59:01.936Z</time></trkpt><trkpt lat="43.6350367" lon="11.4992867"><ele>138.0</ele><time>2026-03-24T14:59:02.937Z</time></trkpt><trkpt lat="43.6350883" lon="11.49935"><ele>138.0</ele><time>2026-03-24T14:59:03.934Z</time></trkpt><trkpt lat="43.6351433" lon="11.4994033"><ele>138.0</ele><time>2026-03-24T14:59:04.933Z</time></trkpt><trkpt lat="43.6351983" lon="11.4994533"><ele>138.0</ele><time>2026-03-24T14:59:05.933Z</time></trkpt><trkpt lat="43.635255" lon="11.4995"><ele>138.0</ele><time>2026-03-24T14:59:06.934Z</time></trkpt><trkpt lat="43.6353133" lon="11.4995433"><ele>138.0</ele><time>2026-03-24T14:59:07.934Z</time></trkpt><trkpt lat="43.6353767" lon="11.4995867"><ele>138.0</ele><time>2026-03-24T14:59:08.935Z</time></trkpt><trkpt lat="43.6354417" lon="11.4996283"><ele>138.0</ele><time>2026-03-24T14:59:09.933Z</time></trkpt><trkpt lat="43.6355083" lon="11.4996683"><ele>138.0</ele><time>2026-03-24T14:59:10.931Z</time></trkpt><trkpt lat="43.6355717" lon="11.499705"><ele>138.0</ele><time>2026-03-24T14:59:11.935Z</time></trkpt><trkpt lat="43.635635" lon="11.4997383"><ele>137.71428571428572</ele><time>2026-03-24T14:59:12.933Z</time></trkpt><trkpt lat="43.6356967" lon="11.4997733"><ele>137.42857142857144</ele><time>2026-03-24T14:59:13.933Z</time></trkpt><trkpt lat="43.63576" lon="11.4998117"><ele>137.14285714285714</ele><time>2026-03-24T14:59:14.933Z</time></trkpt><trkpt lat="43.635825" lon="11.4998483"><ele>136.85714285714286</ele><time>2026-03-24T14:59:15.933Z</time></trkpt><trkpt lat="43.63589" lon="11.499885"><ele>136.57142857142856</ele><time>2026-03-24T14:59:16.932Z</time></trkpt><trkpt lat="43.6359583" lon="11.49992"><ele>136.28571428571428</ele><time>2026-03-24T14:59:17.932Z</time></trkpt><trkpt lat="43.636025" lon="11.49996"><ele>136.0</ele><time>2026-03-24T14:59:18.933Z</time></trkpt><trkpt lat="43.6360883" lon="11.5000017"><ele>136.42857142857142</ele><time>2026-03-24T14:59:19.933Z</time></trkpt><trkpt lat="43.6361533" lon="11.5000433"><ele>136.85714285714286</ele><time>2026-03-24T14:59:20.934Z</time></trkpt><trkpt lat="43.6362167" lon="11.5000867"><ele>137.28571428571428</ele><time>2026-03-24T14:59:21.933Z</time></trkpt><trkpt lat="43.63628" lon="11.5001333"><ele>137.71428571428572</ele><time>2026-03-24T14:59:22.933Z</time></trkpt><trkpt lat="43.6363417" lon="11.5001817"><ele>138.14285714285714</ele><time>2026-03-24T14:59:23.933Z</time></trkpt><trkpt lat="43.6364033" lon="11.50023"><ele>138.57142857142856</ele><time>2026-03-24T14:59:24.934Z</time></trkpt><trkpt lat="43.636465" lon="11.50028"><ele>139.0</ele><time>2026-03-24T14:59:25.935Z</time></trkpt><trkpt lat="43.6365217" lon="11.5003333"><ele>139.0</ele><time>2026-03-24T14:59:26.934Z</time></trkpt><trkpt lat="43.6365767" lon="11.50039"><ele>139.0</ele><time>2026-03-24T14:59:27.934Z</time></trkpt><trkpt lat="43.63663" lon="11.5004483"><ele>139.0</ele><time>2026-03-24T14:59:28.933Z</time></trkpt><trkpt lat="43.63668" lon="11.5005083"><ele>139.0</ele><time>2026-03-24T14:59:29.933Z</time></trkpt><trkpt lat="43.6367267" lon="11.5005683"><ele>139.0</ele><time>2026-03-24T14:59:30.935Z</time></trkpt><trkpt lat="43.6367717" lon="11.5006317"><ele>139.0</ele><time>2026-03-24T14:59:31.934Z</time></trkpt><trkpt lat="43.636815" lon="11.5006983"><ele>139.0</ele><time>2026-03-24T14:59:32.933Z</time></trkpt><trkpt lat="43.6368567" lon="11.5007717"><ele>138.83333333333334</ele><time>2026-03-24T14:59:33.933Z</time></trkpt><trkpt lat="43.6368983" lon="11.500845"><ele>138.66666666666669</ele><time>2026-03-24T14:59:34.933Z</time></trkpt><trkpt lat="43.6369383" lon="11.5009167"><ele>138.5</ele><time>2026-03-24T14:59:35.934Z</time></trkpt><trkpt lat="43.6369783" lon="11.500995"><ele>138.33333333333334</ele><time>2026-03-24T14:59:36.933Z</time></trkpt><trkpt lat="43.6370183" lon="11.501065"><ele>138.16666666666666</ele><time>2026-03-24T14:59:37.933Z</time></trkpt><trkpt lat="43.6370567" lon="11.5011383"><ele>138.0</ele><time>2026-03-24T14:59:38.933Z</time></trkpt><trkpt lat="43.63713" lon="11.5012767"><ele>138.5</ele><time>2026-03-24T14:59:40.934Z</time></trkpt><trkpt lat="43.6372" lon="11.5014117"><ele>139.0</ele><time>2026-03-24T14:59:42.934Z</time></trkpt><trkpt lat="43.6372733" lon="11.5015467"><ele>139.5</ele><time>2026-03-24T14:59:44.933Z</time></trkpt><trkpt lat="43.6373583" lon="11.5016633"><ele>140.0</ele><time>2026-03-24T14:59:46.932Z</time></trkpt><trkpt lat="43.6374533" lon="11.5017667"><ele>140.0</ele><time>2026-03-24T14:59:48.935Z</time></trkpt><trkpt lat="43.6375383" lon="11.501885"><ele>140.0</ele><time>2026-03-24T14:59:50.933Z</time></trkpt><trkpt lat="43.6376017" lon="11.5020167"><ele>140.0</ele><time>2026-03-24T14:59:52.935Z</time></trkpt><trkpt lat="43.6376233" lon="11.5021783"><ele>140.0</ele><time>2026-03-24T14:59:54.933Z</time></trkpt><trkpt lat="43.6376217" lon="11.5023433"><ele>140.16666666666666</ele><time>2026-03-24T14:59:56.933Z</time></trkpt><trkpt lat="43.6376717" lon="11.5024867"><ele>140.33333333333331</ele><time>2026-03-24T14:59:58.934Z</time></trkpt><trkpt lat="43.6377133" lon="11.502555"><ele>140.5</ele><time>2026-03-24T14:59:59.933Z</time></trkpt><trkpt lat="43.6377533" lon="11.50263"><ele>140.66666666666666</ele><time>2026-03-24T15:00:00.933Z</time></trkpt><trkpt lat="43.63779" lon="11.502715"><ele>140.83333333333334</ele><time>2026-03-24T15:00:01.934Z</time></trkpt><trkpt lat="43.63782" lon="11.5028017"><ele>141.0</ele><time>2026-03-24T15:00:02.934Z</time></trkpt><trkpt lat="43.6378517" lon="11.5028883"><ele>141.83333333333334</ele><time>2026-03-24T15:00:03.935Z</time></trkpt><trkpt lat="43.637885" lon="11.5029717"><ele>142.66666666666666</ele><time>2026-03-24T15:00:04.932Z</time></trkpt><trkpt lat="43.6379233" lon="11.5030467"><ele>143.5</ele><time>2026-03-24T15:00:05.931Z</time></trkpt><trkpt lat="43.63796" lon="11.5031217"><ele>144.33333333333331</ele><time>2026-03-24T15:00:06.932Z</time></trkpt><trkpt lat="43.6379983" lon="11.5031967"><ele>145.16666666666666</ele><time>2026-03-24T15:00:07.931Z</time></trkpt><trkpt lat="43.638035" lon="11.50327"><ele>146.0</ele><time>2026-03-24T15:00:08.931Z</time></trkpt><trkpt lat="43.6381117" lon="11.5034133"><ele>146.0</ele><time>2026-03-24T15:00:10.93Z</time></trkpt><trkpt lat="43.6381517" lon="11.503485"><ele>146.0</ele><time>2026-03-24T15:00:11.931Z</time></trkpt><trkpt lat="43.63819" lon="11.5035617"><ele>146.0</ele><time>2026-03-24T15:00:12.934Z</time></trkpt><trkpt lat="43.6382283" lon="11.5036383"><ele>146.0</ele><time>2026-03-24T15:00:13.931Z</time></trkpt><trkpt lat="43.638265" lon="11.5037117"><ele>146.0</ele><time>2026-03-24T15:00:14.931Z</time></trkpt><trkpt lat="43.6383367" lon="11.5038533"><ele>146.0</ele><time>2026-03-24T15:00:16.932Z</time></trkpt><trkpt lat="43.6384083" lon="11.5039983"><ele>145.8</ele><time>2026-03-24T15:00:18.93Z</time></trkpt><trkpt lat="43.638445" lon="11.50407"><ele>145.6</ele><time>2026-03-24T15:00:19.932Z</time></trkpt><trkpt lat="43.638515" lon="11.5042017"><ele>145.4</ele><time>2026-03-24T15:00:21.932Z</time></trkpt><trkpt lat="43.6385883" lon="11.504335"><ele>145.2</ele><time>2026-03-24T15:00:23.934Z</time></trkpt><trkpt lat="43.6386617" lon="11.504475"><ele>145.0</ele><time>2026-03-24T15:00:25.933Z</time></trkpt><trkpt lat="43.6387017" lon="11.5045433"><ele>145.28571428571428</ele><time>2026-03-24T15:00:26.933Z</time></trkpt><trkpt lat="43.63874" lon="11.5046133"><ele>145.57142857142858</ele><time>2026-03-24T15:00:27.933Z</time></trkpt><trkpt lat="43.6387783" lon="11.5046883"><ele>145.85714285714286</ele><time>2026-03-24T15:00:28.933Z</time></trkpt><trkpt lat="43.6388167" lon="11.5047633"><ele>146.14285714285714</ele><time>2026-03-24T15:00:29.933Z</time></trkpt><trkpt lat="43.6388567" lon="11.5048367"><ele>146.42857142857144</ele><time>2026-03-24T15:00:30.934Z</time></trkpt><trkpt lat="43.6388933" lon="11.5049117"><ele>146.71428571428572</ele><time>2026-03-24T15:00:31.934Z</time></trkpt><trkpt lat="43.6389333" lon="11.5049817"><ele>147.0</ele><time>2026-03-24T15:00:32.933Z</time></trkpt><trkpt lat="43.638975" lon="11.5050533"><ele>147.0</ele><time>2026-03-24T15:00:33.933Z</time></trkpt><trkpt lat="43.6390167" lon="11.505125"><ele>147.0</ele><time>2026-03-24T15:00:34.934Z</time></trkpt><trkpt lat="43.6390583" lon="11.5051983"><ele>147.0</ele><time>2026-03-24T15:00:35.932Z</time></trkpt><trkpt lat="43.6391" lon="11.50527"><ele>147.0</ele><time>2026-03-24T15:00:36.932Z</time></trkpt><trkpt lat="43.6391417" lon="11.5053433"><ele>147.0</ele><time>2026-03-24T15:00:37.933Z</time></trkpt><trkpt lat="43.6391833" lon="11.5054167"><ele>147.0</ele><time>2026-03-24T15:00:38.932Z</time></trkpt><trkpt lat="43.6392217" lon="11.50549"><ele>147.0</ele><time>2026-03-24T15:00:39.931Z</time></trkpt><trkpt lat="43.6392633" lon="11.5055617"><ele>146.85714285714286</ele><time>2026-03-24T15:00:40.93Z</time></trkpt><trkpt lat="43.6393067" lon="11.50563"><ele>146.71428571428572</ele><time>2026-03-24T15:00:41.932Z</time></trkpt><trkpt lat="43.63935" lon="11.505695"><ele>146.57142857142856</ele><time>2026-03-24T15:00:42.931Z</time></trkpt><trkpt lat="43.6393933" lon="11.50576"><ele>146.42857142857144</ele><time>2026-03-24T15:00:43.93Z</time></trkpt><trkpt lat="43.63944" lon="11.5058267"><ele>146.28571428571428</ele><time>2026-03-24T15:00:44.93Z</time></trkpt><trkpt lat="43.6394917" lon="11.5058967"><ele>146.14285714285714</ele><time>2026-03-24T15:00:45.931Z</time></trkpt><trkpt lat="43.6395433" lon="11.5059633"><ele>146.0</ele><time>2026-03-24T15:00:46.932Z</time></trkpt><trkpt lat="43.639595" lon="11.5060317"><ele>146.28571428571428</ele><time>2026-03-24T15:00:47.93Z</time></trkpt><trkpt lat="43.6396433" lon="11.506095"><ele>146.57142857142858</ele><time>2026-03-24T15:00:48.931Z</time></trkpt><trkpt lat="43.6396917" lon="11.5061617"><ele>146.85714285714286</ele><time>2026-03-24T15:00:49.93Z</time></trkpt><trkpt lat="43.6397417" lon="11.506225"><ele>147.14285714285714</ele><time>2026-03-24T15:00:50.93Z</time></trkpt><trkpt lat="43.63979" lon="11.5062883"><ele>147.42857142857142</ele><time>2026-03-24T15:00:51.93Z</time></trkpt><trkpt lat="43.6398367" lon="11.5063517"><ele>147.71428571428572</ele><time>2026-03-24T15:00:52.93Z</time></trkpt><trkpt lat="43.6398867" lon="11.506415"><ele>148.0</ele><time>2026-03-24T15:00:53.932Z</time></trkpt><trkpt lat="43.6399383" lon="11.5064783"><ele>148.0</ele><time>2026-03-24T15:00:54.931Z</time></trkpt><trkpt lat="43.63999" lon="11.5065433"><ele>148.0</ele><time>2026-03-24T15:00:55.931Z</time></trkpt><trkpt lat="43.64004" lon="11.5066083"><ele>148.0</ele><time>2026-03-24T15:00:56.93Z</time></trkpt><trkpt lat="43.6400867" lon="11.5066733"><ele>148.0</ele><time>2026-03-24T15:00:57.929Z</time></trkpt><trkpt lat="43.640135" lon="11.5067333"><ele>148.0</ele><time>2026-03-24T15:00:58.93Z</time></trkpt><trkpt lat="43.640185" lon="11.5067933"><ele>148.0</ele><time>2026-03-24T15:00:59.931Z</time></trkpt><trkpt lat="43.6402333" lon="11.506855"><ele>148.0</ele><time>2026-03-24T15:01:00.931Z</time></trkpt><trkpt lat="43.6402817" lon="11.50692"><ele>148.6</ele><time>2026-03-24T15:01:01.93Z</time></trkpt><trkpt lat="43.64033" lon="11.5069817"><ele>149.20000000000002</ele><time>2026-03-24T15:01:02.93Z</time></trkpt><trkpt lat="43.6404183" lon="11.5071017"><ele>149.8</ele><time>2026-03-24T15:01:04.932Z</time></trkpt><trkpt lat="43.640505" lon="11.50722"><ele>150.4</ele><time>2026-03-24T15:01:06.93Z</time></trkpt><trkpt lat="43.6405967" lon="11.5073267"><ele>151.0</ele><time>2026-03-24T15:01:08.933Z</time></trkpt><trkpt lat="43.640695" lon="11.50743"><ele>151.0</ele><time>2026-03-24T15:01:10.93Z</time></trkpt><trkpt lat="43.640795" lon="11.50753"><ele>151.0</ele><time>2026-03-24T15:01:12.93Z</time></trkpt><trkpt lat="43.6409033" lon="11.5076167"><ele>151.0</ele><time>2026-03-24T15:01:14.93Z</time></trkpt><trkpt lat="43.6409633" lon="11.507665"><ele>151.0</ele><time>2026-03-24T15:01:15.93Z</time></trkpt><trkpt lat="43.641025" lon="11.5077033"><ele>151.0</ele><time>2026-03-24T15:01:16.933Z</time></trkpt><trkpt lat="43.6410867" lon="11.5077383"><ele>151.16666666666669</ele><time>2026-03-24T15:01:17.932Z</time></trkpt><trkpt lat="43.6411467" lon="11.5077683"><ele>151.33333333333334</ele><time>2026-03-24T15:01:18.932Z</time></trkpt><trkpt lat="43.6412083" lon="11.507795"><ele>151.5</ele><time>2026-03-24T15:01:19.932Z</time></trkpt><trkpt lat="43.6412717" lon="11.50782"><ele>151.66666666666666</ele><time>2026-03-24T15:01:20.933Z</time></trkpt><trkpt lat="43.6413917" lon="11.50787"><ele>151.83333333333331</ele><time>2026-03-24T15:01:22.931Z</time></trkpt><trkpt lat="43.6414517" lon="11.5079"><ele>152.0</ele><time>2026-03-24T15:01:23.931Z</time></trkpt><trkpt lat="43.6415167" lon="11.5079317"><ele>152.0</ele><time>2026-03-24T15:01:24.93Z</time></trkpt><trkpt lat="43.6415817" lon="11.5079617"><ele>152.0</ele><time>2026-03-24T15:01:25.931Z</time></trkpt><trkpt lat="43.6416433" lon="11.5079933"><ele>152.0</ele><time>2026-03-24T15:01:26.93Z</time></trkpt><trkpt lat="43.6417067" lon="11.50802"><ele>152.0</ele><time>2026-03-24T15:01:27.93Z</time></trkpt><trkpt lat="43.6417717" lon="11.5080483"><ele>152.0</ele><time>2026-03-24T15:01:28.931Z</time></trkpt><trkpt lat="43.641835" lon="11.5080783"><ele>152.0</ele><time>2026-03-24T15:01:29.931Z</time></trkpt><trkpt lat="43.6418983" lon="11.5081083"><ele>152.0</ele><time>2026-03-24T15:01:30.93Z</time></trkpt><trkpt lat="43.6419583" lon="11.50814"><ele>153.0</ele><time>2026-03-24T15:01:31.931Z</time></trkpt><trkpt lat="43.64202" lon="11.5081733"><ele>154.0</ele><time>2026-03-24T15:01:32.931Z</time></trkpt><trkpt lat="43.64213" lon="11.5082383"><ele>155.0</ele><time>2026-03-24T15:01:34.931Z</time></trkpt><trkpt lat="43.642185" lon="11.508285"><ele>156.0</ele><time>2026-03-24T15:01:35.93Z</time></trkpt><trkpt lat="43.64227" lon="11.5084017"><ele>157.0</ele><time>2026-03-24T15:01:37.93Z</time></trkpt><trkpt lat="43.64232" lon="11.508545"><ele>157.0</ele><time>2026-03-24T15:01:39.93Z</time></trkpt><trkpt lat="43.6423617" lon="11.50869"><ele>157.0</ele><time>2026-03-24T15:01:41.931Z</time></trkpt><trkpt lat="43.642405" lon="11.5088317"><ele>157.0</ele><time>2026-03-24T15:01:43.931Z</time></trkpt><trkpt lat="43.6424483" lon="11.508965"><ele>157.0</ele><time>2026-03-24T15:01:45.93Z</time></trkpt><trkpt lat="43.6424983" lon="11.5090967"><ele>157.0</ele><time>2026-03-24T15:01:47.932Z</time></trkpt><trkpt lat="43.6425267" lon="11.5092317"><ele>157.0</ele><time>2026-03-24T15:01:49.93Z</time></trkpt><trkpt lat="43.6425533" lon="11.5093633"><ele>157.0</ele><time>2026-03-24T15:01:51.93Z</time></trkpt><trkpt lat="43.6425883" lon="11.5094883"><ele>157.0</ele><time>2026-03-24T15:01:53.931Z</time></trkpt><trkpt lat="43.64263" lon="11.50962"><ele>157.0</ele><time>2026-03-24T15:01:55.931Z</time></trkpt><trkpt lat="43.64268" lon="11.50975"><ele>157.0</ele><time>2026-03-24T15:01:57.929Z</time></trkpt><trkpt lat="43.6427233" lon="11.5098833"><ele>157.0</ele><time>2026-03-24T15:01:59.931Z</time></trkpt><trkpt lat="43.6427717" lon="11.5100117"><ele>157.0</ele><time>2026-03-24T15:02:01.931Z</time></trkpt><trkpt lat="43.6428333" lon="11.5101317"><ele>157.0</ele><time>2026-03-24T15:02:03.93Z</time></trkpt><trkpt lat="43.6428967" lon="11.5102433"><ele>157.0</ele><time>2026-03-24T15:02:05.932Z</time></trkpt><trkpt lat="43.6429617" lon="11.5103567"><ele>157.0</ele><time>2026-03-24T15:02:07.933Z</time></trkpt><trkpt lat="43.64303" lon="11.5104667"><ele>157.6</ele><time>2026-03-24T15:02:09.929Z</time></trkpt><trkpt lat="43.6431033" lon="11.5105767"><ele>158.2</ele><time>2026-03-24T15:02:11.931Z</time></trkpt><trkpt lat="43.64317" lon="11.5106967"><ele>158.8</ele><time>2026-03-24T15:02:13.931Z</time></trkpt><trkpt lat="43.6432267" lon="11.51081"><ele>159.4</ele><time>2026-03-24T15:02:15.931Z</time></trkpt><trkpt lat="43.64328" lon="11.51092"><ele>160.0</ele><time>2026-03-24T15:02:17.932Z</time></trkpt><trkpt lat="43.6433467" lon="11.51103"><ele>160.0</ele><time>2026-03-24T15:02:19.932Z</time></trkpt><trkpt lat="43.64342" lon="11.5111267"><ele>160.0</ele><time>2026-03-24T15:02:21.93Z</time></trkpt><trkpt lat="43.6434933" lon="11.5112033"><ele>160.0</ele><time>2026-03-24T15:02:23.933Z</time></trkpt><trkpt lat="43.6435683" lon="11.5112633"><ele>160.0</ele><time>2026-03-24T15:02:25.931Z</time></trkpt><trkpt lat="43.6436567" lon="11.5113183"><ele>160.0</ele><time>2026-03-24T15:02:27.929Z</time></trkpt><trkpt lat="43.6437533" lon="11.51138"><ele>160.4</ele><time>2026-03-24T15:02:29.931Z</time></trkpt><trkpt lat="43.64385" lon="11.511445"><ele>160.8</ele><time>2026-03-24T15:02:31.931Z</time></trkpt><trkpt lat="43.6439517" lon="11.5115117"><ele>161.2</ele><time>2026-03-24T15:02:33.929Z</time></trkpt><trkpt lat="43.6440483" lon="11.51159"><ele>161.6</ele><time>2026-03-24T15:02:35.932Z</time></trkpt><trkpt lat="43.64414" lon="11.5116883"><ele>162.0</ele><time>2026-03-24T15:02:37.931Z</time></trkpt><trkpt lat="43.6442283" lon="11.5118067"><ele>162.0</ele><time>2026-03-24T15:02:39.93Z</time></trkpt><trkpt lat="43.6443083" lon="11.5119317"><ele>162.0</ele><time>2026-03-24T15:02:41.931Z</time></trkpt><trkpt lat="43.64435" lon="11.5120017"><ele>162.0</ele><time>2026-03-24T15:02:42.93Z</time></trkpt><trkpt lat="43.6444217" lon="11.512135"><ele>162.0</ele><time>2026-03-24T15:02:44.931Z</time></trkpt><trkpt lat="43.6444933" lon="11.5122733"><ele>162.0</ele><time>2026-03-24T15:02:46.93Z</time></trkpt><trkpt lat="43.6445583" lon="11.5124017"><ele>161.75</ele><time>2026-03-24T15:02:48.932Z</time></trkpt><trkpt lat="43.6446367" lon="11.51253"><ele>161.5</ele><time>2026-03-24T15:02:50.933Z</time></trkpt><trkpt lat="43.6447083" lon="11.51266"><ele>161.25</ele><time>2026-03-24T15:02:52.93Z</time></trkpt><trkpt lat="43.6447767" lon="11.51278"><ele>161.0</ele><time>2026-03-24T15:02:54.93Z</time></trkpt><trkpt lat="43.644835" lon="11.51291"><ele>161.0</ele><time>2026-03-24T15:02:56.931Z</time></trkpt><trkpt lat="43.6448983" lon="11.5130417"><ele>161.0</ele><time>2026-03-24T15:02:58.932Z</time></trkpt><trkpt lat="43.6449533" lon="11.5131733"><ele>161.0</ele><time>2026-03-24T15:03:00.93Z</time></trkpt><trkpt lat="43.6450083" lon="11.513295"><ele>161.0</ele><time>2026-03-24T15:03:02.933Z</time></trkpt><trkpt lat="43.6450567" lon="11.5134183"><ele>161.0</ele><time>2026-03-24T15:03:04.931Z</time></trkpt><trkpt lat="43.6451033" lon="11.513545"><ele>161.0</ele><time>2026-03-24T15:03:06.93Z</time></trkpt><trkpt lat="43.6451467" lon="11.5136617"><ele>161.0</ele><time>2026-03-24T15:03:08.933Z</time></trkpt><trkpt lat="43.645205" lon="11.5137583"><ele>161.0</ele><time>2026-03-24T15:03:10.931Z</time></trkpt><trkpt lat="43.6452767" lon="11.51384"><ele>161.0</ele><time>2026-03-24T15:03:12.93Z</time></trkpt><trkpt lat="43.6453467" lon="11.5139033"><ele>161.0</ele><time>2026-03-24T15:03:14.929Z</time></trkpt><trkpt lat="43.6454067" lon="11.513935"><ele>161.0</ele><time>2026-03-24T15:03:16.931Z</time></trkpt><trkpt lat="43.6454933" lon="11.51397"><ele>162.5</ele><time>2026-03-24T15:03:19.931Z</time></trkpt><trkpt lat="43.645575" lon="11.5139783"><ele>164.0</ele><time>2026-03-24T15:03:22.93Z</time></trkpt><trkpt lat="43.64565" lon="11.51399"><ele>165.5</ele><time>2026-03-24T15:03:25.931Z</time></trkpt><trkpt lat="43.645725" lon="11.5139867"><ele>167.0</ele><time>2026-03-24T15:03:29.933Z</time></trkpt><trkpt lat="43.6458067" lon="11.5139883"><ele>168.5</ele><time>2026-03-24T15:03:33.93Z</time></trkpt><trkpt lat="43.645875" lon="11.5140133"><ele>170.0</ele><time>2026-03-24T15:03:37.931Z</time></trkpt><trkpt lat="43.6459417" lon="11.5140183"><ele>170.0</ele><time>2026-03-24T15:03:40.931Z</time></trkpt><trkpt lat="43.646005" lon="11.5140433"><ele>170.0</ele><time>2026-03-24T15:03:43.935Z</time></trkpt><trkpt lat="43.6460683" lon="11.5140583"><ele>170.0</ele><time>2026-03-24T15:03:46.933Z</time></trkpt><trkpt lat="43.6461333" lon="11.5141067"><ele>170.0</ele><time>2026-03-24T15:03:49.931Z</time></trkpt><trkpt lat="43.646205" lon="11.514145"><ele>170.0</ele><time>2026-03-24T15:03:52.931Z</time></trkpt><trkpt lat="43.6462717" lon="11.5142"><ele>170.0</ele><time>2026-03-24T15:03:55.932Z</time></trkpt><trkpt lat="43.6463233" lon="11.5142567"><ele>170.0</ele><time>2026-03-24T15:03:57.933Z</time></trkpt><trkpt lat="43.6463733" lon="11.51431"><ele>171.0</ele><time>2026-03-24T15:03:59.931Z</time></trkpt><trkpt lat="43.6464483" lon="11.51438"><ele>172.0</ele><time>2026-03-24T15:04:02.934Z</time></trkpt><trkpt lat="43.6465167" lon="11.5144483"><ele>173.0</ele><time>2026-03-24T15:04:05.931Z</time></trkpt><trkpt lat="43.6465833" lon="11.51451"><ele>174.0</ele><time>2026-03-24T15:04:08.931Z</time></trkpt><trkpt lat="43.6466467" lon="11.5145717"><ele>175.0</ele><time>2026-03-24T15:04:11.931Z</time></trkpt><trkpt lat="43.6467067" lon="11.5146317"><ele>176.0</ele><time>2026-03-24T15:04:14.931Z</time></trkpt><trkpt lat="43.646775" lon="11.51469"><ele>176.66666666666666</ele><time>2026-03-24T15:04:17.932Z</time></trkpt><trkpt lat="43.6468383" lon="11.5147517"><ele>177.33333333333331</ele><time>2026-03-24T15:04:20.931Z</time></trkpt><trkpt lat="43.6469033" lon="11.5148167"><ele>178.0</ele><time>2026-03-24T15:04:23.931Z</time></trkpt><trkpt lat="43.6469683" lon="11.5148833"><ele>178.66666666666666</ele><time>2026-03-24T15:04:26.931Z</time></trkpt><trkpt lat="43.64704" lon="11.51495"><ele>179.33333333333334</ele><time>2026-03-24T15:04:29.931Z</time></trkpt><trkpt lat="43.6471117" lon="11.5150133"><ele>180.0</ele><time>2026-03-24T15:04:32.931Z</time></trkpt><trkpt lat="43.6471783" lon="11.51509"><ele>180.33333333333334</ele><time>2026-03-24T15:04:35.932Z</time></trkpt><trkpt lat="43.6472517" lon="11.51516"><ele>180.66666666666666</ele><time>2026-03-24T15:04:38.931Z</time></trkpt><trkpt lat="43.6473033" lon="11.515215"><ele>181.0</ele><time>2026-03-24T15:04:40.931Z</time></trkpt><trkpt lat="43.647375" lon="11.5152817"><ele>181.33333333333331</ele><time>2026-03-24T15:04:43.931Z</time></trkpt><trkpt lat="43.6474467" lon="11.5153483"><ele>181.66666666666666</ele><time>2026-03-24T15:04:46.931Z</time></trkpt><trkpt lat="43.6475" lon="11.5154033"><ele>182.0</ele><time>2026-03-24T15:04:48.929Z</time></trkpt><trkpt lat="43.6475483" lon="11.5154617"><ele>182.42857142857142</ele><time>2026-03-24T15:04:50.932Z</time></trkpt><trkpt lat="43.6475983" lon="11.515525"><ele>182.85714285714286</ele><time>2026-03-24T15:04:52.931Z</time></trkpt><trkpt lat="43.6476683" lon="11.5155917"><ele>183.28571428571428</ele><time>2026-03-24T15:04:55.932Z</time></trkpt><trkpt lat="43.64772" lon="11.5156433"><ele>183.71428571428572</ele><time>2026-03-24T15:04:57.931Z</time></trkpt><trkpt lat="43.647795" lon="11.5157117"><ele>184.14285714285714</ele><time>2026-03-24T15:05:00.931Z</time></trkpt><trkpt lat="43.6478517" lon="11.51576"><ele>184.57142857142856</ele><time>2026-03-24T15:05:02.931Z</time></trkpt><trkpt lat="43.64791" lon="11.5158017"><ele>185.0</ele><time>2026-03-24T15:05:04.931Z</time></trkpt><trkpt lat="43.64797" lon="11.5158583"><ele>185.66666666666666</ele><time>2026-03-24T15:05:06.93Z</time></trkpt><trkpt lat="43.648035" lon="11.5159133"><ele>186.33333333333331</ele><time>2026-03-24T15:05:08.931Z</time></trkpt><trkpt lat="43.6480983" lon="11.51597"><ele>187.0</ele><time>2026-03-24T15:05:10.931Z</time></trkpt><trkpt lat="43.6481633" lon="11.5160317"><ele>187.66666666666666</ele><time>2026-03-24T15:05:12.93Z</time></trkpt><trkpt lat="43.6482283" lon="11.5160883"><ele>188.33333333333334</ele><time>2026-03-24T15:05:14.931Z</time></trkpt><trkpt lat="43.64829" lon="11.51614"><ele>189.0</ele><time>2026-03-24T15:05:16.932Z</time></trkpt><trkpt lat="43.6483533" lon="11.5161933"><ele>189.16666666666666</ele><time>2026-03-24T15:05:18.93Z</time></trkpt><trkpt lat="43.6484217" lon="11.5162483"><ele>189.33333333333334</ele><time>2026-03-24T15:05:20.931Z</time></trkpt><trkpt lat="43.6484917" lon="11.5162917"><ele>189.5</ele><time>2026-03-24T15:05:22.93Z</time></trkpt><trkpt lat="43.6485617" lon="11.51633"><ele>189.66666666666669</ele><time>2026-03-24T15:05:24.931Z</time></trkpt><trkpt lat="43.64863" lon="11.5163683"><ele>189.83333333333334</ele><time>2026-03-24T15:05:26.931Z</time></trkpt><trkpt lat="43.6487" lon="11.5163983"><ele>190.0</ele><time>2026-03-24T15:05:28.93Z</time></trkpt><trkpt lat="43.6487717" lon="11.5164233"><ele>190.28571428571428</ele><time>2026-03-24T15:05:30.932Z</time></trkpt><trkpt lat="43.6488417" lon="11.5164433"><ele>190.57142857142858</ele><time>2026-03-24T15:05:32.931Z</time></trkpt><trkpt lat="43.6489133" lon="11.5164617"><ele>190.85714285714283</ele><time>2026-03-24T15:05:34.932Z</time></trkpt><trkpt lat="43.6489883" lon="11.51647"><ele>191.14285714285714</ele><time>2026-03-24T15:05:36.932Z</time></trkpt><trkpt lat="43.6490633" lon="11.51647"><ele>191.42857142857142</ele><time>2026-03-24T15:05:38.934Z</time></trkpt><trkpt lat="43.6491333" lon="11.5164767"><ele>191.7142857142857</ele><time>2026-03-24T15:05:40.933Z</time></trkpt><trkpt lat="43.6492017" lon="11.5164917"><ele>192.0</ele><time>2026-03-24T15:05:42.932Z</time></trkpt><trkpt lat="43.6492733" lon="11.5164983"><ele>192.0</ele><time>2026-03-24T15:05:44.933Z</time></trkpt><trkpt lat="43.6493467" lon="11.5165117"><ele>192.0</ele><time>2026-03-24T15:05:46.934Z</time></trkpt><trkpt lat="43.64942" lon="11.5165267"><ele>192.0</ele><time>2026-03-24T15:05:48.932Z</time></trkpt><trkpt lat="43.6494883" lon="11.5165383"><ele>192.0</ele><time>2026-03-24T15:05:50.933Z</time></trkpt><trkpt lat="43.6495617" lon="11.516565"><ele>192.0</ele><time>2026-03-24T15:05:52.934Z</time></trkpt><trkpt lat="43.6496433" lon="11.5165967"><ele>192.0</ele><time>2026-03-24T15:05:54.933Z</time></trkpt><trkpt lat="43.6497183" lon="11.5166217"><ele>192.0</ele><time>2026-03-24T15:05:56.934Z</time></trkpt><trkpt lat="43.6497983" lon="11.5166417"><ele>192.0</ele><time>2026-03-24T15:05:58.934Z</time></trkpt><trkpt lat="43.6498783" lon="11.51666"><ele>192.0</ele><time>2026-03-24T15:06:00.932Z</time></trkpt><trkpt lat="43.6499617" lon="11.5166783"><ele>192.0</ele><time>2026-03-24T15:06:02.934Z</time></trkpt><trkpt lat="43.6500433" lon="11.5167"><ele>192.0</ele><time>2026-03-24T15:06:04.932Z</time></trkpt><trkpt lat="43.650125" lon="11.516715"><ele>192.0</ele><time>2026-03-24T15:06:06.934Z</time></trkpt><trkpt lat="43.650205" lon="11.5167333"><ele>192.0</ele><time>2026-03-24T15:06:08.932Z</time></trkpt><trkpt lat="43.6502883" lon="11.5167517"><ele>192.0</ele><time>2026-03-24T15:06:10.934Z</time></trkpt><trkpt lat="43.65037" lon="11.51677"><ele>192.0</ele><time>2026-03-24T15:06:12.932Z</time></trkpt><trkpt lat="43.65045" lon="11.5167883"><ele>192.0</ele><time>2026-03-24T15:06:14.933Z</time></trkpt><trkpt lat="43.65053" lon="11.5167967"><ele>192.0</ele><time>2026-03-24T15:06:16.932Z</time></trkpt><trkpt lat="43.65061" lon="11.5168133"><ele>192.0</ele><time>2026-03-24T15:06:18.932Z</time></trkpt><trkpt lat="43.65069" lon="11.516835"><ele>192.0</ele><time>2026-03-24T15:06:20.933Z</time></trkpt><trkpt lat="43.65077" lon="11.5168517"><ele>192.0</ele><time>2026-03-24T15:06:22.932Z</time></trkpt><trkpt lat="43.6508467" lon="11.5168683"><ele>192.0</ele><time>2026-03-24T15:06:24.932Z</time></trkpt><trkpt lat="43.6509167" lon="11.516885"><ele>192.0</ele><time>2026-03-24T15:06:26.933Z</time></trkpt><trkpt lat="43.6509967" lon="11.5169133"><ele>192.0</ele><time>2026-03-24T15:06:28.932Z</time></trkpt><trkpt lat="43.65107" lon="11.5169483"><ele>192.0</ele><time>2026-03-24T15:06:30.933Z</time></trkpt><trkpt lat="43.6511433" lon="11.5169933"><ele>192.0</ele><time>2026-03-24T15:06:32.933Z</time></trkpt><trkpt lat="43.6512183" lon="11.5170433"><ele>192.0</ele><time>2026-03-24T15:06:34.933Z</time></trkpt><trkpt lat="43.65129" lon="11.51709"><ele>192.0</ele><time>2026-03-24T15:06:36.933Z</time></trkpt><trkpt lat="43.65136" lon="11.5171283"><ele>192.0</ele><time>2026-03-24T15:06:38.933Z</time></trkpt><trkpt lat="43.65143" lon="11.5171683"><ele>192.0</ele><time>2026-03-24T15:06:40.933Z</time></trkpt><trkpt lat="43.651505" lon="11.51723"><ele>192.0</ele><time>2026-03-24T15:06:42.932Z</time></trkpt><trkpt lat="43.6515717" lon="11.5172883"><ele>192.5</ele><time>2026-03-24T15:06:44.932Z</time></trkpt><trkpt lat="43.6516433" lon="11.5173383"><ele>193.0</ele><time>2026-03-24T15:06:46.932Z</time></trkpt><trkpt lat="43.6517117" lon="11.5173917"><ele>193.5</ele><time>2026-03-24T15:06:48.933Z</time></trkpt><trkpt lat="43.6517817" lon="11.5174533"><ele>194.0</ele><time>2026-03-24T15:06:50.933Z</time></trkpt><trkpt lat="43.6518567" lon="11.51751"><ele>194.5</ele><time>2026-03-24T15:06:52.932Z</time></trkpt><trkpt lat="43.6519283" lon="11.5175683"><ele>195.0</ele><time>2026-03-24T15:06:54.932Z</time></trkpt><trkpt lat="43.6519983" lon="11.51763"><ele>195.0</ele><time>2026-03-24T15:06:56.933Z</time></trkpt><trkpt lat="43.652065" lon="11.5176783"><ele>195.0</ele><time>2026-03-24T15:06:58.931Z</time></trkpt><trkpt lat="43.65213" lon="11.5177267"><ele>195.0</ele><time>2026-03-24T15:07:00.931Z</time></trkpt><trkpt lat="43.6522" lon="11.5177833"><ele>195.0</ele><time>2026-03-24T15:07:02.932Z</time></trkpt><trkpt lat="43.6522733" lon="11.5178467"><ele>195.0</ele><time>2026-03-24T15:07:04.931Z</time></trkpt><trkpt lat="43.652345" lon="11.5179"><ele>195.0</ele><time>2026-03-24T15:07:06.933Z</time></trkpt><trkpt lat="43.6524133" lon="11.51795"><ele>195.66666666666666</ele><time>2026-03-24T15:07:08.931Z</time></trkpt><trkpt lat="43.652485" lon="11.5180033"><ele>196.33333333333331</ele><time>2026-03-24T15:07:10.931Z</time></trkpt><trkpt lat="43.652555" lon="11.5180533"><ele>197.0</ele><time>2026-03-24T15:07:12.932Z</time></trkpt><trkpt lat="43.6526217" lon="11.5181117"><ele>197.66666666666666</ele><time>2026-03-24T15:07:14.931Z</time></trkpt><trkpt lat="43.6526883" lon="11.5181767"><ele>198.33333333333331</ele><time>2026-03-24T15:07:16.931Z</time></trkpt><trkpt lat="43.65275" lon="11.5182333"><ele>199.0</ele><time>2026-03-24T15:07:18.932Z</time></trkpt><trkpt lat="43.6528133" lon="11.5182917"><ele>198.99999999999997</ele><time>2026-03-24T15:07:20.931Z</time></trkpt><trkpt lat="43.6528717" lon="11.5183533"><ele>199.0</ele><time>2026-03-24T15:07:22.93Z</time></trkpt><trkpt lat="43.6529283" lon="11.5184167"><ele>199.0</ele><time>2026-03-24T15:07:24.931Z</time></trkpt><trkpt lat="43.6529817" lon="11.5184917"><ele>199.0</ele><time>2026-03-24T15:07:26.933Z</time></trkpt><trkpt lat="43.6530383" lon="11.5185733"><ele>198.99999999999997</ele><time>2026-03-24T15:07:28.931Z</time></trkpt><trkpt lat="43.6530917" lon="11.5186467"><ele>199.0</ele><time>2026-03-24T15:07:30.932Z</time></trkpt><trkpt lat="43.653145" lon="11.5187117"><ele>200.28571428571428</ele><time>2026-03-24T15:07:32.933Z</time></trkpt><trkpt lat="43.6531967" lon="11.5187833"><ele>201.57142857142856</ele><time>2026-03-24T15:07:34.931Z</time></trkpt><trkpt lat="43.6532483" lon="11.5188517"><ele>202.85714285714283</ele><time>2026-03-24T15:07:36.93Z</time></trkpt><trkpt lat="43.6533033" lon="11.5189183"><ele>204.14285714285714</ele><time>2026-03-24T15:07:38.93Z</time></trkpt><trkpt lat="43.6533533" lon="11.5189833"><ele>205.42857142857144</ele><time>2026-03-24T15:07:40.929Z</time></trkpt><trkpt lat="43.6534083" lon="11.51906"><ele>206.7142857142857</ele><time>2026-03-24T15:07:42.93Z</time></trkpt><trkpt lat="43.653465" lon="11.5191383"><ele>208.0</ele><time>2026-03-24T15:07:44.932Z</time></trkpt><trkpt lat="43.6535183" lon="11.5192133"><ele>208.0</ele><time>2026-03-24T15:07:46.931Z</time></trkpt><trkpt lat="43.65357" lon="11.519285"><ele>208.0</ele><time>2026-03-24T15:07:48.933Z</time></trkpt><trkpt lat="43.6536233" lon="11.5193567"><ele>208.0</ele><time>2026-03-24T15:07:50.932Z</time></trkpt><trkpt lat="43.653675" lon="11.5194283"><ele>208.0</ele><time>2026-03-24T15:07:52.931Z</time></trkpt><trkpt lat="43.6537267" lon="11.5195"><ele>208.0</ele><time>2026-03-24T15:07:54.932Z</time></trkpt><trkpt lat="43.65378" lon="11.519575"><ele>208.0</ele><time>2026-03-24T15:07:56.932Z</time></trkpt><trkpt lat="43.6538317" lon="11.5196433"><ele>208.0</ele><time>2026-03-24T15:07:58.931Z</time></trkpt><trkpt lat="43.6538833" lon="11.51971"><ele>208.85714285714286</ele><time>2026-03-24T15:08:00.935Z</time></trkpt><trkpt lat="43.6539383" lon="11.5197833"><ele>209.71428571428572</ele><time>2026-03-24T15:08:02.931Z</time></trkpt><trkpt lat="43.65399" lon="11.51985"><ele>210.57142857142858</ele><time>2026-03-24T15:08:04.932Z</time></trkpt><trkpt lat="43.6540483" lon="11.51992"><ele>211.42857142857144</ele><time>2026-03-24T15:08:06.932Z</time></trkpt><trkpt lat="43.6541083" lon="11.51998"><ele>212.28571428571428</ele><time>2026-03-24T15:08:08.933Z</time></trkpt><trkpt lat="43.6541733" lon="11.5200317"><ele>213.14285714285717</ele><time>2026-03-24T15:08:10.932Z</time></trkpt><trkpt lat="43.6542367" lon="11.5200783"><ele>214.0</ele><time>2026-03-24T15:08:12.932Z</time></trkpt><trkpt lat="43.6543017" lon="11.52013"><ele>214.00000000000003</ele><time>2026-03-24T15:08:14.931Z</time></trkpt><trkpt lat="43.6543633" lon="11.520185"><ele>214.0</ele><time>2026-03-24T15:08:16.932Z</time></trkpt><trkpt lat="43.654425" lon="11.5202333"><ele>214.0</ele><time>2026-03-24T15:08:18.932Z</time></trkpt><trkpt lat="43.6544867" lon="11.52029"><ele>214.0</ele><time>2026-03-24T15:08:20.933Z</time></trkpt><trkpt lat="43.6545533" lon="11.5203417"><ele>214.0</ele><time>2026-03-24T15:08:22.932Z</time></trkpt><trkpt lat="43.6546167" lon="11.5203933"><ele>214.00000000000003</ele><time>2026-03-24T15:08:24.932Z</time></trkpt><trkpt lat="43.6546767" lon="11.5204517"><ele>214.0</ele><time>2026-03-24T15:08:26.932Z</time></trkpt><trkpt lat="43.6547433" lon="11.5205"><ele>214.66666666666666</ele><time>2026-03-24T15:08:28.931Z</time></trkpt><trkpt lat="43.6548067" lon="11.52055"><ele>215.33333333333331</ele><time>2026-03-24T15:08:30.932Z</time></trkpt><trkpt lat="43.6548667" lon="11.5206117"><ele>216.0</ele><time>2026-03-24T15:08:32.934Z</time></trkpt><trkpt lat="43.6549233" lon="11.5206733"><ele>216.66666666666669</ele><time>2026-03-24T15:08:34.932Z</time></trkpt><trkpt lat="43.654985" lon="11.52073"><ele>217.33333333333334</ele><time>2026-03-24T15:08:36.931Z</time></trkpt><trkpt lat="43.655055" lon="11.5207917"><ele>218.0</ele><time>2026-03-24T15:08:38.932Z</time></trkpt><trkpt lat="43.65512" lon="11.5208467"><ele>218.00000000000003</ele><time>2026-03-24T15:08:40.931Z</time></trkpt><trkpt lat="43.655185" lon="11.52093"><ele>218.0</ele><time>2026-03-24T15:08:42.93Z</time></trkpt><trkpt lat="43.6552367" lon="11.5210117"><ele>218.0</ele><time>2026-03-24T15:08:44.93Z</time></trkpt><trkpt lat="43.6552783" lon="11.5211017"><ele>218.0</ele><time>2026-03-24T15:08:46.93Z</time></trkpt><trkpt lat="43.6553117" lon="11.52119"><ele>218.00000000000003</ele><time>2026-03-24T15:08:48.93Z</time></trkpt><trkpt lat="43.6553467" lon="11.5212817"><ele>218.0</ele><time>2026-03-24T15:08:50.931Z</time></trkpt><trkpt lat="43.6553767" lon="11.5213733"><ele>219.66666666666669</ele><time>2026-03-24T15:08:52.931Z</time></trkpt><trkpt lat="43.6554033" lon="11.5214567"><ele>221.33333333333334</ele><time>2026-03-24T15:08:54.931Z</time></trkpt><trkpt lat="43.6554283" lon="11.5215383"><ele>223.0</ele><time>2026-03-24T15:08:56.931Z</time></trkpt><trkpt lat="43.65546" lon="11.5216283"><ele>224.66666666666669</ele><time>2026-03-24T15:08:58.93Z</time></trkpt><trkpt lat="43.655495" lon="11.5217167"><ele>226.33333333333334</ele><time>2026-03-24T15:09:00.93Z</time></trkpt><trkpt lat="43.6555317" lon="11.5218217"><ele>228.0</ele><time>2026-03-24T15:09:02.931Z</time></trkpt><trkpt lat="43.65557" lon="11.5219367"><ele>228.0</ele><time>2026-03-24T15:09:04.932Z</time></trkpt><trkpt lat="43.6556033" lon="11.5220567"><ele>228.0</ele><time>2026-03-24T15:09:06.93Z</time></trkpt><trkpt lat="43.65564" lon="11.52217"><ele>228.0</ele><time>2026-03-24T15:09:08.931Z</time></trkpt><trkpt lat="43.6556817" lon="11.5222817"><ele>228.0</ele><time>2026-03-24T15:09:10.931Z</time></trkpt><trkpt lat="43.6557183" lon="11.522385"><ele>228.0</ele><time>2026-03-24T15:09:12.93Z</time></trkpt><trkpt lat="43.6557533" lon="11.5224867"><ele>228.0</ele><time>2026-03-24T15:09:14.933Z</time></trkpt><trkpt lat="43.6557883" lon="11.5225917"><ele>227.83333333333334</ele><time>2026-03-24T15:09:16.931Z</time></trkpt><trkpt lat="43.6558233" lon="11.5226917"><ele>227.66666666666669</ele><time>2026-03-24T15:09:18.936Z</time></trkpt><trkpt lat="43.6558583" lon="11.5227867"><ele>227.5</ele><time>2026-03-24T15:09:20.932Z</time></trkpt><trkpt lat="43.655895" lon="11.5228867"><ele>227.33333333333334</ele><time>2026-03-24T15:09:22.933Z</time></trkpt><trkpt lat="43.6559333" lon="11.5229883"><ele>227.16666666666669</ele><time>2026-03-24T15:09:24.932Z</time></trkpt><trkpt lat="43.6559717" lon="11.5230917"><ele>227.0</ele><time>2026-03-24T15:09:26.932Z</time></trkpt><trkpt lat="43.65601" lon="11.5231917"><ele>227.00000000000003</ele><time>2026-03-24T15:09:28.93Z</time></trkpt><trkpt lat="43.6560433" lon="11.52329"><ele>227.0</ele><time>2026-03-24T15:09:30.931Z</time></trkpt><trkpt lat="43.656075" lon="11.523385"><ele>227.0</ele><time>2026-03-24T15:09:32.931Z</time></trkpt><trkpt lat="43.6561017" lon="11.523475"><ele>227.0</ele><time>2026-03-24T15:09:34.931Z</time></trkpt><trkpt lat="43.6561333" lon="11.5235683"><ele>227.00000000000003</ele><time>2026-03-24T15:09:36.93Z</time></trkpt><trkpt lat="43.656165" lon="11.5236633"><ele>227.0</ele><time>2026-03-24T15:09:38.932Z</time></trkpt><trkpt lat="43.6561967" lon="11.5237633"><ele>227.83333333333334</ele><time>2026-03-24T15:09:40.931Z</time></trkpt><trkpt lat="43.6562267" lon="11.5238617"><ele>228.66666666666669</ele><time>2026-03-24T15:09:42.93Z</time></trkpt><trkpt lat="43.65626" lon="11.52396"><ele>229.5</ele><time>2026-03-24T15:09:44.933Z</time></trkpt><trkpt lat="43.6562917" lon="11.524055"><ele>230.33333333333331</ele><time>2026-03-24T15:09:46.932Z</time></trkpt><trkpt lat="43.6563183" lon="11.52416"><ele>231.16666666666666</ele><time>2026-03-24T15:09:48.93Z</time></trkpt><trkpt lat="43.6563417" lon="11.5242583"><ele>232.0</ele><time>2026-03-24T15:09:50.932Z</time></trkpt><trkpt lat="43.656375" lon="11.5243467"><ele>232.00000000000003</ele><time>2026-03-24T15:09:52.934Z</time></trkpt><trkpt lat="43.6564083" lon="11.524435"><ele>232.0</ele><time>2026-03-24T15:09:54.932Z</time></trkpt><trkpt lat="43.65645" lon="11.5245233"><ele>232.00000000000003</ele><time>2026-03-24T15:09:56.933Z</time></trkpt><trkpt lat="43.65649" lon="11.52461"><ele>232.00000000000003</ele><time>2026-03-24T15:09:58.933Z</time></trkpt><trkpt lat="43.6565367" lon="11.5246833"><ele>232.0</ele><time>2026-03-24T15:10:00.93Z</time></trkpt><trkpt lat="43.656585" lon="11.5247467"><ele>232.00000000000003</ele><time>2026-03-24T15:10:02.933Z</time></trkpt><trkpt lat="43.65663" lon="11.5248167"><ele>232.00000000000003</ele><time>2026-03-24T15:10:04.932Z</time></trkpt><trkpt lat="43.65667" lon="11.524885"><ele>232.99999999999997</ele><time>2026-03-24T15:10:06.93Z</time></trkpt><trkpt lat="43.6567383" lon="11.5249683"><ele>234.0</ele><time>2026-03-24T15:10:09.93Z</time></trkpt><trkpt lat="43.6567833" lon="11.5250417"><ele>235.0</ele><time>2026-03-24T15:10:11.932Z</time></trkpt><trkpt lat="43.65684" lon="11.5251167"><ele>236.0</ele><time>2026-03-24T15:10:13.935Z</time></trkpt><trkpt lat="43.6568983" lon="11.5252"><ele>236.99999999999997</ele><time>2026-03-24T15:10:15.933Z</time></trkpt><trkpt lat="43.656955" lon="11.525275"><ele>238.0</ele><time>2026-03-24T15:10:17.933Z</time></trkpt><trkpt lat="43.6570167" lon="11.5253417"><ele>239.28571428571428</ele><time>2026-03-24T15:10:19.933Z</time></trkpt><trkpt lat="43.6570717" lon="11.525415"><ele>240.57142857142856</ele><time>2026-03-24T15:10:21.933Z</time></trkpt><trkpt lat="43.65712" lon="11.5254867"><ele>241.85714285714286</ele><time>2026-03-24T15:10:23.933Z</time></trkpt><trkpt lat="43.6571733" lon="11.525545"><ele>243.14285714285714</ele><time>2026-03-24T15:10:25.931Z</time></trkpt><trkpt lat="43.6572217" lon="11.5256067"><ele>244.42857142857142</ele><time>2026-03-24T15:10:27.933Z</time></trkpt><trkpt lat="43.657275" lon="11.5256633"><ele>245.71428571428572</ele><time>2026-03-24T15:10:29.932Z</time></trkpt><trkpt lat="43.6573483" lon="11.5257483"><ele>247.0</ele><time>2026-03-24T15:10:32.931Z</time></trkpt><trkpt lat="43.6573983" lon="11.5258067"><ele>247.0</ele><time>2026-03-24T15:10:34.934Z</time></trkpt><trkpt lat="43.6574467" lon="11.52588"><ele>247.0</ele><time>2026-03-24T15:10:36.932Z</time></trkpt><trkpt lat="43.657495" lon="11.5259517"><ele>247.0</ele><time>2026-03-24T15:10:38.931Z</time></trkpt><trkpt lat="43.6575433" lon="11.526015"><ele>247.0</ele><time>2026-03-24T15:10:40.93Z</time></trkpt><trkpt lat="43.657595" lon="11.52607"><ele>247.0</ele><time>2026-03-24T15:10:42.934Z</time></trkpt><trkpt lat="43.6576483" lon="11.5261433"><ele>247.0</ele><time>2026-03-24T15:10:44.934Z</time></trkpt><trkpt lat="43.6577017" lon="11.5262233"><ele>247.0</ele><time>2026-03-24T15:10:46.932Z</time></trkpt><trkpt lat="43.6577517" lon="11.526295"><ele>247.0</ele><time>2026-03-24T15:10:48.931Z</time></trkpt><trkpt lat="43.6578017" lon="11.526365"><ele>247.0</ele><time>2026-03-24T15:10:50.932Z</time></trkpt><trkpt lat="43.6578417" lon="11.5264417"><ele>247.0</ele><time>2026-03-24T15:10:52.932Z</time></trkpt><trkpt lat="43.6578867" lon="11.5265167"><ele>247.0</ele><time>2026-03-24T15:10:54.929Z</time></trkpt><trkpt lat="43.6579267" lon="11.5265883"><ele>247.0</ele><time>2026-03-24T15:10:56.93Z</time></trkpt><trkpt lat="43.6579917" lon="11.5266783"><ele>247.0</ele><time>2026-03-24T15:10:59.931Z</time></trkpt><trkpt lat="43.6580317" lon="11.5267583"><ele>247.0</ele><time>2026-03-24T15:11:01.931Z</time></trkpt><trkpt lat="43.6580717" lon="11.5268333"><ele>247.0</ele><time>2026-03-24T15:11:03.932Z</time></trkpt><trkpt lat="43.6581167" lon="11.52691"><ele>247.0</ele><time>2026-03-24T15:11:05.932Z</time></trkpt><trkpt lat="43.6581617" lon="11.526995"><ele>247.0</ele><time>2026-03-24T15:11:07.933Z</time></trkpt><trkpt lat="43.6582033" lon="11.5270783"><ele>247.0</ele><time>2026-03-24T15:11:09.931Z</time></trkpt><trkpt lat="43.6582467" lon="11.5271533"><ele>247.0</ele><time>2026-03-24T15:11:11.932Z</time></trkpt><trkpt lat="43.658295" lon="11.5272167"><ele>247.0</ele><time>2026-03-24T15:11:13.935Z</time></trkpt><trkpt lat="43.6583417" lon="11.5272967"><ele>247.0</ele><time>2026-03-24T15:11:15.931Z</time></trkpt><trkpt lat="43.6583867" lon="11.5273617"><ele>247.16666666666666</ele><time>2026-03-24T15:11:17.931Z</time></trkpt><trkpt lat="43.6584517" lon="11.52742"><ele>247.33333333333331</ele><time>2026-03-24T15:11:20.93Z</time></trkpt><trkpt lat="43.6585017" lon="11.527505"><ele>247.5</ele><time>2026-03-24T15:11:23.933Z</time></trkpt><trkpt lat="43.6585433" lon="11.5275717"><ele>247.66666666666669</ele><time>2026-03-24T15:11:25.931Z</time></trkpt><trkpt lat="43.65859" lon="11.5276367"><ele>247.83333333333334</ele><time>2026-03-24T15:11:27.933Z</time></trkpt><trkpt lat="43.6586533" lon="11.5277333"><ele>248.0</ele><time>2026-03-24T15:11:30.935Z</time></trkpt><trkpt lat="43.6587" lon="11.527805"><ele>249.00000000000003</ele><time>2026-03-24T15:11:32.933Z</time></trkpt><trkpt lat="43.65877" lon="11.527895"><ele>250.0</ele><time>2026-03-24T15:11:35.932Z</time></trkpt><trkpt lat="43.65882" lon="11.5279617"><ele>251.0</ele><time>2026-03-24T15:11:37.932Z</time></trkpt><trkpt lat="43.6588633" lon="11.5280433"><ele>252.0</ele><time>2026-03-24T15:11:39.93Z</time></trkpt><trkpt lat="43.658905" lon="11.5281233"><ele>253.00000000000003</ele><time>2026-03-24T15:11:41.93Z</time></trkpt><trkpt lat="43.65895" lon="11.5282"><ele>254.0</ele><time>2026-03-24T15:11:43.932Z</time></trkpt><trkpt lat="43.6589967" lon="11.5282883"><ele>254.0</ele><time>2026-03-24T15:11:45.932Z</time></trkpt><trkpt lat="43.6590433" lon="11.5283733"><ele>254.0</ele><time>2026-03-24T15:11:47.93Z</time></trkpt><trkpt lat="43.65909" lon="11.5284417"><ele>254.0</ele><time>2026-03-24T15:11:49.932Z</time></trkpt><trkpt lat="43.6591417" lon="11.5285133"><ele>254.0</ele><time>2026-03-24T15:11:51.93Z</time></trkpt><trkpt lat="43.65919" lon="11.528585"><ele>254.0</ele><time>2026-03-24T15:11:53.931Z</time></trkpt><trkpt lat="43.6592467" lon="11.5286583"><ele>254.0</ele><time>2026-03-24T15:11:55.931Z</time></trkpt><trkpt lat="43.6592983" lon="11.5287133"><ele>254.0</ele><time>2026-03-24T15:11:57.93Z</time></trkpt><trkpt lat="43.6593617" lon="11.52878"><ele>254.28571428571428</ele><time>2026-03-24T15:11:59.932Z</time></trkpt><trkpt lat="43.6594217" lon="11.5288517"><ele>254.57142857142856</ele><time>2026-03-24T15:12:01.933Z</time></trkpt><trkpt lat="43.659475" lon="11.528915"><ele>254.85714285714283</ele><time>2026-03-24T15:12:03.93Z</time></trkpt><trkpt lat="43.659525" lon="11.52898"><ele>255.14285714285714</ele><time>2026-03-24T15:12:05.931Z</time></trkpt><trkpt lat="43.659585" lon="11.52904"><ele>255.4285714285714</ele><time>2026-03-24T15:12:07.931Z</time></trkpt><trkpt lat="43.659645" lon="11.529095"><ele>255.7142857142857</ele><time>2026-03-24T15:12:09.931Z</time></trkpt><trkpt lat="43.659705" lon="11.52915"><ele>256.0</ele><time>2026-03-24T15:12:11.93Z</time></trkpt><trkpt lat="43.65976" lon="11.5292067"><ele>255.99999999999997</ele><time>2026-03-24T15:12:13.931Z</time></trkpt><trkpt lat="43.6598183" lon="11.52926"><ele>256.0</ele><time>2026-03-24T15:12:15.931Z</time></trkpt><trkpt lat="43.6598717" lon="11.52931"><ele>256.0</ele><time>2026-03-24T15:12:17.931Z</time></trkpt><trkpt lat="43.6599467" lon="11.5293683"><ele>256.0</ele><time>2026-03-24T15:12:20.931Z</time></trkpt><trkpt lat="43.66002" lon="11.5294267"><ele>255.99999999999997</ele><time>2026-03-24T15:12:23.933Z</time></trkpt><trkpt lat="43.660095" lon="11.5294983"><ele>256.0</ele><time>2026-03-24T15:12:26.932Z</time></trkpt><trkpt lat="43.66015" lon="11.5295467"><ele>255.99999999999997</ele><time>2026-03-24T15:12:28.933Z</time></trkpt><trkpt lat="43.660205" lon="11.5295983"><ele>256.0</ele><time>2026-03-24T15:12:30.935Z</time></trkpt><trkpt lat="43.6602567" lon="11.5296483"><ele>256.0</ele><time>2026-03-24T15:12:32.933Z</time></trkpt><trkpt lat="43.660315" lon="11.529705"><ele>256.0</ele><time>2026-03-24T15:12:34.931Z</time></trkpt><trkpt lat="43.66039" lon="11.529765"><ele>255.99999999999997</ele><time>2026-03-24T15:12:36.932Z</time></trkpt><trkpt lat="43.6604533" lon="11.5298233"><ele>256.0</ele><time>2026-03-24T15:12:38.932Z</time></trkpt><trkpt lat="43.66052" lon="11.5298983"><ele>255.99999999999997</ele><time>2026-03-24T15:12:40.931Z</time></trkpt><trkpt lat="43.6605883" lon="11.52996"><ele>256.0</ele><time>2026-03-24T15:12:42.931Z</time></trkpt><trkpt lat="43.6606683" lon="11.53002"><ele>256.0</ele><time>2026-03-24T15:12:44.933Z</time></trkpt><trkpt lat="43.660745" lon="11.530085"><ele>256.0</ele><time>2026-03-24T15:12:46.932Z</time></trkpt><trkpt lat="43.6608133" lon="11.53015"><ele>255.99999999999997</ele><time>2026-03-24T15:12:48.93Z</time></trkpt><trkpt lat="43.6608833" lon="11.5302133"><ele>256.0</ele><time>2026-03-24T15:12:50.93Z</time></trkpt><trkpt lat="43.6609533" lon="11.5302833"><ele>255.99999999999997</ele><time>2026-03-24T15:12:52.931Z</time></trkpt><trkpt lat="43.6610217" lon="11.530355"><ele>256.0</ele><time>2026-03-24T15:12:54.931Z</time></trkpt><trkpt lat="43.6610933" lon="11.5304183"><ele>256.0</ele><time>2026-03-24T15:12:56.934Z</time></trkpt><trkpt lat="43.6611633" lon="11.530475"><ele>256.0</ele><time>2026-03-24T15:12:58.932Z</time></trkpt><trkpt lat="43.6612267" lon="11.5305267"><ele>255.99999999999997</ele><time>2026-03-24T15:13:00.93Z</time></trkpt><trkpt lat="43.6613067" lon="11.530595"><ele>256.0</ele><time>2026-03-24T15:13:03.931Z</time></trkpt><trkpt lat="43.6613617" lon="11.530645"><ele>257.8333333333333</ele><time>2026-03-24T15:13:05.931Z</time></trkpt><trkpt lat="43.661435" lon="11.5307183"><ele>259.66666666666663</ele><time>2026-03-24T15:13:08.931Z</time></trkpt><trkpt lat="43.6615017" lon="11.530785"><ele>261.5</ele><time>2026-03-24T15:13:11.932Z</time></trkpt><trkpt lat="43.66157" lon="11.5308367"><ele>263.3333333333333</ele><time>2026-03-24T15:13:14.93Z</time></trkpt><trkpt lat="43.6616317" lon="11.5308833"><ele>265.1666666666667</ele><time>2026-03-24T15:13:17.93Z</time></trkpt><trkpt lat="43.6617033" lon="11.53093"><ele>267.0</ele><time>2026-03-24T15:13:20.931Z</time></trkpt><trkpt lat="43.6617717" lon="11.5309933"><ele>267.0</ele><time>2026-03-24T15:13:23.93Z</time></trkpt><trkpt lat="43.6618483" lon="11.531055"><ele>267.0</ele><time>2026-03-24T15:13:26.93Z</time></trkpt><trkpt lat="43.661925" lon="11.5311183"><ele>267.0</ele><time>2026-03-24T15:13:29.93Z</time></trkpt><trkpt lat="43.6619983" lon="11.5311717"><ele>267.0</ele><time>2026-03-24T15:13:32.931Z</time></trkpt><trkpt lat="43.6620733" lon="11.5312167"><ele>267.0</ele><time>2026-03-24T15:13:35.932Z</time></trkpt><trkpt lat="43.66215" lon="11.5312817"><ele>267.0</ele><time>2026-03-24T15:13:38.931Z</time></trkpt><trkpt lat="43.662225" lon="11.5313383"><ele>266.6666666666667</ele><time>2026-03-24T15:13:41.931Z</time></trkpt><trkpt lat="43.6622983" lon="11.5313967"><ele>266.3333333333333</ele><time>2026-03-24T15:13:44.93Z</time></trkpt><trkpt lat="43.6623733" lon="11.5314583"><ele>266.0</ele><time>2026-03-24T15:13:47.932Z</time></trkpt><trkpt lat="43.6624367" lon="11.5315067"><ele>265.66666666666663</ele><time>2026-03-24T15:13:50.933Z</time></trkpt><trkpt lat="43.6625033" lon="11.5315583"><ele>265.3333333333333</ele><time>2026-03-24T15:13:53.93Z</time></trkpt><trkpt lat="43.66257" lon="11.5316033"><ele>265.0</ele><time>2026-03-24T15:13:56.932Z</time></trkpt><trkpt lat="43.66264" lon="11.5316467"><ele>264.99999999999994</ele><time>2026-03-24T15:13:59.931Z</time></trkpt><trkpt lat="43.6627083" lon="11.5316867"><ele>265.0</ele><time>2026-03-24T15:14:02.932Z</time></trkpt><trkpt lat="43.6627783" lon="11.5317317"><ele>265.0</ele><time>2026-03-24T15:14:05.932Z</time></trkpt><trkpt lat="43.6628517" lon="11.5317883"><ele>265.0</ele><time>2026-03-24T15:14:08.933Z</time></trkpt><trkpt lat="43.6629217" lon="11.53183"><ele>265.0</ele><time>2026-03-24T15:14:11.933Z</time></trkpt><trkpt lat="43.6629833" lon="11.531855"><ele>264.99999999999994</ele><time>2026-03-24T15:14:14.932Z</time></trkpt><trkpt lat="43.6630433" lon="11.531885"><ele>265.0</ele><time>2026-03-24T15:14:17.932Z</time></trkpt><trkpt lat="43.663115" lon="11.53192"><ele>266.1428571428571</ele><time>2026-03-24T15:14:20.932Z</time></trkpt><trkpt lat="43.6631883" lon="11.5319467"><ele>267.2857142857143</ele><time>2026-03-24T15:14:23.932Z</time></trkpt><trkpt lat="43.6632517" lon="11.5319633"><ele>268.42857142857144</ele><time>2026-03-24T15:14:26.933Z</time></trkpt><trkpt lat="43.663325" lon="11.53198"><ele>269.57142857142856</ele><time>2026-03-24T15:14:29.932Z</time></trkpt><trkpt lat="43.6634033" lon="11.5320083"><ele>270.7142857142857</ele><time>2026-03-24T15:14:32.931Z</time></trkpt><trkpt lat="43.66347" lon="11.5320283"><ele>271.85714285714283</ele><time>2026-03-24T15:14:35.931Z</time></trkpt><trkpt lat="43.66354" lon="11.5320517"><ele>273.0</ele><time>2026-03-24T15:14:38.931Z</time></trkpt><trkpt lat="43.663605" lon="11.5320767"><ele>275.0</ele><time>2026-03-24T15:14:41.931Z</time></trkpt><trkpt lat="43.6636667" lon="11.5321"><ele>277.0</ele><time>2026-03-24T15:14:44.931Z</time></trkpt><trkpt lat="43.66373" lon="11.5321183"><ele>279.0</ele><time>2026-03-24T15:14:47.931Z</time></trkpt><trkpt lat="43.6637967" lon="11.5321283"><ele>281.0</ele><time>2026-03-24T15:14:50.932Z</time></trkpt><trkpt lat="43.6638617" lon="11.5321333"><ele>283.0</ele><time>2026-03-24T15:14:53.933Z</time></trkpt><trkpt lat="43.6639417" lon="11.5321467"><ele>285.0</ele><time>2026-03-24T15:14:56.932Z</time></trkpt><trkpt lat="43.6640267" lon="11.5321633"><ele>287.0</ele><time>2026-03-24T15:14:59.932Z</time></trkpt><trkpt lat="43.6641067" lon="11.53219"><ele>287.0</ele><time>2026-03-24T15:15:02.933Z</time></trkpt><trkpt lat="43.6641933" lon="11.5322017"><ele>287.0</ele><time>2026-03-24T15:15:05.936Z</time></trkpt><trkpt lat="43.6642833" lon="11.5322233"><ele>287.0</ele><time>2026-03-24T15:15:08.932Z</time></trkpt><trkpt lat="43.664345" lon="11.5322517"><ele>287.0</ele><time>2026-03-24T15:15:11.933Z</time></trkpt><trkpt lat="43.664455" lon="11.53227"><ele>287.0</ele><time>2026-03-24T15:15:15.931Z</time></trkpt><trkpt lat="43.66454" lon="11.532275"><ele>287.0</ele><time>2026-03-24T15:15:18.933Z</time></trkpt><trkpt lat="43.664625" lon="11.5322933"><ele>287.6666666666667</ele><time>2026-03-24T15:15:21.933Z</time></trkpt><trkpt lat="43.6646883" lon="11.5323183"><ele>288.33333333333337</ele><time>2026-03-24T15:15:23.932Z</time></trkpt><trkpt lat="43.6647733" lon="11.5323533"><ele>289.0</ele><time>2026-03-24T15:15:26.933Z</time></trkpt><trkpt lat="43.6648567" lon="11.5323967"><ele>289.6666666666667</ele><time>2026-03-24T15:15:29.932Z</time></trkpt><trkpt lat="43.66494" lon="11.5324483"><ele>290.3333333333333</ele><time>2026-03-24T15:15:32.932Z</time></trkpt><trkpt lat="43.665005" lon="11.5325133"><ele>291.0</ele><time>2026-03-24T15:15:34.931Z</time></trkpt><trkpt lat="43.66506" lon="11.5325583"><ele>291.0</ele><time>2026-03-24T15:15:36.93Z</time></trkpt><trkpt lat="43.6651367" lon="11.5326167"><ele>291.0</ele><time>2026-03-24T15:15:39.93Z</time></trkpt><trkpt lat="43.66522" lon="11.5326517"><ele>291.0</ele><time>2026-03-24T15:15:42.929Z</time></trkpt><trkpt lat="43.6652917" lon="11.5326733"><ele>291.0</ele><time>2026-03-24T15:15:45.93Z</time></trkpt><trkpt lat="43.66537" lon="11.5326983"><ele>291.0</ele><time>2026-03-24T15:15:48.929Z</time></trkpt><trkpt lat="43.6654533" lon="11.5327117"><ele>291.0</ele><time>2026-03-24T15:15:51.933Z</time></trkpt><trkpt lat="43.6656267" lon="11.53273"><ele>293.0</ele><time>2026-03-24T15:15:57.929Z</time></trkpt><trkpt lat="43.6657033" lon="11.5327567"><ele>295.0</ele><time>2026-03-24T15:16:00.929Z</time></trkpt><trkpt lat="43.665785" lon="11.5327767"><ele>297.0</ele><time>2026-03-24T15:16:03.932Z</time></trkpt><trkpt lat="43.6658483" lon="11.5327867"><ele>299.0</ele><time>2026-03-24T15:16:05.931Z</time></trkpt><trkpt lat="43.66593" lon="11.532795"><ele>301.0</ele><time>2026-03-24T15:16:08.934Z</time></trkpt><trkpt lat="43.6660117" lon="11.5328167"><ele>303.0</ele><time>2026-03-24T15:16:11.929Z</time></trkpt><trkpt lat="43.666095" lon="11.532855"><ele>303.0</ele><time>2026-03-24T15:16:14.931Z</time></trkpt><trkpt lat="43.6661817" lon="11.5328983"><ele>303.0</ele><time>2026-03-24T15:16:17.931Z</time></trkpt><trkpt lat="43.66626" lon="11.53292"><ele>303.0</ele><time>2026-03-24T15:16:20.932Z</time></trkpt><trkpt lat="43.66635" lon="11.532955"><ele>303.0</ele><time>2026-03-24T15:16:23.931Z</time></trkpt><trkpt lat="43.6664333" lon="11.5329717"><ele>303.0</ele><time>2026-03-24T15:16:26.93Z</time></trkpt><trkpt lat="43.6665067" lon="11.5330017"><ele>303.0</ele><time>2026-03-24T15:16:29.931Z</time></trkpt><trkpt lat="43.6665983" lon="11.533015"><ele>303.0</ele><time>2026-03-24T15:16:32.932Z</time></trkpt><trkpt lat="43.6666633" lon="11.5330367"><ele>303.0</ele><time>2026-03-24T15:16:34.932Z</time></trkpt><trkpt lat="43.666745" lon="11.5330783"><ele>303.0</ele><time>2026-03-24T15:16:37.932Z</time></trkpt><trkpt lat="43.66683" lon="11.5331233"><ele>303.0</ele><time>2026-03-24T15:16:40.931Z</time></trkpt><trkpt lat="43.6668917" lon="11.5331633"><ele>303.0</ele><time>2026-03-24T15:16:42.931Z</time></trkpt><trkpt lat="43.6669517" lon="11.533205"><ele>303.0</ele><time>2026-03-24T15:16:44.933Z</time></trkpt><trkpt lat="43.6670317" lon="11.5332533"><ele>303.6</ele><time>2026-03-24T15:16:47.931Z</time></trkpt><trkpt lat="43.6671183" lon="11.5332983"><ele>304.20000000000005</ele><time>2026-03-24T15:16:50.934Z</time></trkpt><trkpt lat="43.667205" lon="11.5333383"><ele>304.8</ele><time>2026-03-24T15:16:53.932Z</time></trkpt><trkpt lat="43.667285" lon="11.5333833"><ele>305.40000000000003</ele><time>2026-03-24T15:16:56.933Z</time></trkpt><trkpt lat="43.6673717" lon="11.5334283"><ele>306.0</ele><time>2026-03-24T15:16:59.93Z</time></trkpt><trkpt lat="43.6674617" lon="11.533465"><ele>306.0</ele><time>2026-03-24T15:17:02.932Z</time></trkpt><trkpt lat="43.6675283" lon="11.5334933"><ele>306.0</ele><time>2026-03-24T15:17:04.931Z</time></trkpt><trkpt lat="43.6675933" lon="11.5335317"><ele>306.0</ele><time>2026-03-24T15:17:06.93Z</time></trkpt><trkpt lat="43.66766" lon="11.533565"><ele>306.0</ele><time>2026-03-24T15:17:08.932Z</time></trkpt><trkpt lat="43.667725" lon="11.5335933"><ele>306.0</ele><time>2026-03-24T15:17:10.932Z</time></trkpt><trkpt lat="43.6677917" lon="11.533625"><ele>306.0</ele><time>2026-03-24T15:17:12.93Z</time></trkpt><trkpt lat="43.6678583" lon="11.533655"><ele>306.0</ele><time>2026-03-24T15:17:14.93Z</time></trkpt><trkpt lat="43.6679283" lon="11.5336667"><ele>306.1428571428571</ele><time>2026-03-24T15:17:16.932Z</time></trkpt><trkpt lat="43.6679983" lon="11.533675"><ele>306.2857142857143</ele><time>2026-03-24T15:17:18.931Z</time></trkpt><trkpt lat="43.6680667" lon="11.5336867"><ele>306.42857142857144</ele><time>2026-03-24T15:17:20.933Z</time></trkpt><trkpt lat="43.66814" lon="11.5337017"><ele>306.57142857142856</ele><time>2026-03-24T15:17:22.932Z</time></trkpt><trkpt lat="43.6682083" lon="11.53371"><ele>306.7142857142857</ele><time>2026-03-24T15:17:24.93Z</time></trkpt><trkpt lat="43.6682783" lon="11.533715"><ele>306.85714285714283</ele><time>2026-03-24T15:17:26.932Z</time></trkpt><trkpt lat="43.66835" lon="11.5337267"><ele>307.0</ele><time>2026-03-24T15:17:28.932Z</time></trkpt><trkpt lat="43.6684167" lon="11.5337333"><ele>307.0</ele><time>2026-03-24T15:17:30.929Z</time></trkpt><trkpt lat="43.6684833" lon="11.53374"><ele>307.0</ele><time>2026-03-24T15:17:32.931Z</time></trkpt><trkpt lat="43.6685767" lon="11.5337517"><ele>307.0</ele><time>2026-03-24T15:17:35.933Z</time></trkpt><trkpt lat="43.6686467" lon="11.5337683"><ele>307.0</ele><time>2026-03-24T15:17:37.93Z</time></trkpt><trkpt lat="43.6687417" lon="11.5337883"><ele>307.0</ele><time>2026-03-24T15:17:40.931Z</time></trkpt><trkpt lat="43.668835" lon="11.5338083"><ele>307.0</ele><time>2026-03-24T15:17:43.932Z</time></trkpt><trkpt lat="43.6689267" lon="11.533825"><ele>308.5</ele><time>2026-03-24T15:17:46.93Z</time></trkpt><trkpt lat="43.669015" lon="11.53384"><ele>310.0</ele><time>2026-03-24T15:17:49.933Z</time></trkpt><trkpt lat="43.6690967" lon="11.53385"><ele>311.5</ele><time>2026-03-24T15:17:52.932Z</time></trkpt><trkpt lat="43.6691733" lon="11.53387"><ele>313.0</ele><time>2026-03-24T15:17:55.933Z</time></trkpt><trkpt lat="43.6692533" lon="11.533885"><ele>314.5</ele><time>2026-03-24T15:17:58.932Z</time></trkpt><trkpt lat="43.6693333" lon="11.5338967"><ele>316.0</ele><time>2026-03-24T15:18:01.932Z</time></trkpt><trkpt lat="43.669405" lon="11.5339067"><ele>317.42857142857144</ele><time>2026-03-24T15:18:04.931Z</time></trkpt><trkpt lat="43.669475" lon="11.5339217"><ele>318.8571428571429</ele><time>2026-03-24T15:18:07.93Z</time></trkpt><trkpt lat="43.6695467" lon="11.5339367"><ele>320.28571428571433</ele><time>2026-03-24T15:18:10.932Z</time></trkpt><trkpt lat="43.6696233" lon="11.5339383"><ele>321.7142857142857</ele><time>2026-03-24T15:18:13.93Z</time></trkpt><trkpt lat="43.6696917" lon="11.53394"><ele>323.1428571428571</ele><time>2026-03-24T15:18:16.931Z</time></trkpt><trkpt lat="43.6697733" lon="11.53394"><ele>324.5714285714286</ele><time>2026-03-24T15:18:20.935Z</time></trkpt><trkpt lat="43.6698367" lon="11.5339467"><ele>326.0</ele><time>2026-03-24T15:18:23.932Z</time></trkpt><trkpt lat="43.6699117" lon="11.5339583"><ele>326.0</ele><time>2026-03-24T15:18:26.932Z</time></trkpt><trkpt lat="43.6699833" lon="11.5339683"><ele>326.0</ele><time>2026-03-24T15:18:29.931Z</time></trkpt><trkpt lat="43.6700567" lon="11.533975"><ele>326.0</ele><time>2026-03-24T15:18:32.931Z</time></trkpt><trkpt lat="43.6701383" lon="11.53398"><ele>326.0</ele><time>2026-03-24T15:18:35.931Z</time></trkpt><trkpt lat="43.6703217" lon="11.5339717"><ele>326.0</ele><time>2026-03-24T15:18:42.931Z</time></trkpt><trkpt lat="43.6703967" lon="11.5339617"><ele>327.1666666666667</ele><time>2026-03-24T15:18:45.93Z</time></trkpt><trkpt lat="43.67046" lon="11.533945"><ele>328.33333333333337</ele><time>2026-03-24T15:18:48.931Z</time></trkpt><trkpt lat="43.6705333" lon="11.5339217"><ele>329.5</ele><time>2026-03-24T15:18:51.93Z</time></trkpt><trkpt lat="43.670605" lon="11.5339283"><ele>330.6666666666667</ele><time>2026-03-24T15:18:54.931Z</time></trkpt><trkpt lat="43.67069" lon="11.5339633"><ele>331.8333333333333</ele><time>2026-03-24T15:18:57.931Z</time></trkpt><trkpt lat="43.6707683" lon="11.5339733"><ele>333.0</ele><time>2026-03-24T15:19:00.931Z</time></trkpt><trkpt lat="43.6708467" lon="11.5339717"><ele>333.0</ele><time>2026-03-24T15:19:03.93Z</time></trkpt><trkpt lat="43.6709217" lon="11.53395"><ele>333.0</ele><time>2026-03-24T15:19:06.93Z</time></trkpt><trkpt lat="43.671005" lon="11.53394"><ele>333.0</ele><time>2026-03-24T15:19:09.929Z</time></trkpt><trkpt lat="43.6710933" lon="11.5339517"><ele>333.0</ele><time>2026-03-24T15:19:12.929Z</time></trkpt><trkpt lat="43.6711867" lon="11.5339417"><ele>333.0</ele><time>2026-03-24T15:19:15.929Z</time></trkpt><trkpt lat="43.6712517" lon="11.53392"><ele>333.0</ele><time>2026-03-24T15:19:17.929Z</time></trkpt><trkpt lat="43.6713433" lon="11.5339017"><ele>335.0</ele><time>2026-03-24T15:19:20.931Z</time></trkpt><trkpt lat="43.671395" lon="11.534005"><ele>337.0</ele><time>2026-03-24T15:19:23.93Z</time></trkpt><trkpt lat="43.6713883" lon="11.5341233"><ele>339.0</ele><time>2026-03-24T15:19:25.932Z</time></trkpt><trkpt lat="43.671365" lon="11.534255"><ele>341.0</ele><time>2026-03-24T15:19:27.929Z</time></trkpt><trkpt lat="43.6713267" lon="11.5344017"><ele>343.0</ele><time>2026-03-24T15:19:29.931Z</time></trkpt><trkpt lat="43.6712917" lon="11.534565"><ele>343.0</ele><time>2026-03-24T15:19:31.93Z</time></trkpt><trkpt lat="43.6712733" lon="11.53465"><ele>343.0</ele><time>2026-03-24T15:19:32.931Z</time></trkpt><trkpt lat="43.6712567" lon="11.5347383"><ele>343.0</ele><time>2026-03-24T15:19:33.93Z</time></trkpt><trkpt lat="43.671235" lon="11.5348283"><ele>343.0</ele><time>2026-03-24T15:19:34.93Z</time></trkpt><trkpt lat="43.6712083" lon="11.5349183"><ele>343.0</ele><time>2026-03-24T15:19:35.931Z</time></trkpt><trkpt lat="43.671175" lon="11.535005"><ele>343.0</ele><time>2026-03-24T15:19:36.929Z</time></trkpt><trkpt lat="43.6711333" lon="11.5350867"><ele>343.0</ele><time>2026-03-24T15:19:37.931Z</time></trkpt><trkpt lat="43.67109" lon="11.5351633"><ele>341.2857142857143</ele><time>2026-03-24T15:19:38.931Z</time></trkpt><trkpt lat="43.671045" lon="11.5352383"><ele>339.57142857142856</ele><time>2026-03-24T15:19:39.929Z</time></trkpt><trkpt lat="43.6710033" lon="11.5353133"><ele>337.8571428571429</ele><time>2026-03-24T15:19:40.933Z</time></trkpt><trkpt lat="43.670965" lon="11.5353933"><ele>336.1428571428571</ele><time>2026-03-24T15:19:41.933Z</time></trkpt><trkpt lat="43.6709333" lon="11.5354767"><ele>334.42857142857144</ele><time>2026-03-24T15:19:42.93Z</time></trkpt><trkpt lat="43.670915" lon="11.535565"><ele>332.7142857142857</ele><time>2026-03-24T15:19:43.931Z</time></trkpt><trkpt lat="43.6709033" lon="11.5356567"><ele>331.0</ele><time>2026-03-24T15:19:44.932Z</time></trkpt><trkpt lat="43.6709017" lon="11.5357533"><ele>331.0</ele><time>2026-03-24T15:19:45.93Z</time></trkpt><trkpt lat="43.670905" lon="11.53585"><ele>331.0</ele><time>2026-03-24T15:19:46.934Z</time></trkpt><trkpt lat="43.6709167" lon="11.5359417"><ele>331.0</ele><time>2026-03-24T15:19:47.93Z</time></trkpt><trkpt lat="43.670935" lon="11.5360333"><ele>331.0</ele><time>2026-03-24T15:19:48.93Z</time></trkpt><trkpt lat="43.6709567" lon="11.536125"><ele>331.0</ele><time>2026-03-24T15:19:49.931Z</time></trkpt><trkpt lat="43.6709783" lon="11.536215"><ele>331.0</ele><time>2026-03-24T15:19:50.931Z</time></trkpt><trkpt lat="43.6710033" lon="11.5363117"><ele>331.0</ele><time>2026-03-24T15:19:51.93Z</time></trkpt><trkpt lat="43.6710283" lon="11.5364017"><ele>330.2857142857143</ele><time>2026-03-24T15:19:52.931Z</time></trkpt><trkpt lat="43.671055" lon="11.536485"><ele>329.57142857142856</ele><time>2026-03-24T15:19:53.931Z</time></trkpt><trkpt lat="43.6710867" lon="11.53657"><ele>328.8571428571429</ele><time>2026-03-24T15:19:54.93Z</time></trkpt><trkpt lat="43.6711267" lon="11.53665"><ele>328.1428571428571</ele><time>2026-03-24T15:19:55.931Z</time></trkpt><trkpt lat="43.671185" lon="11.5367167"><ele>327.4285714285714</ele><time>2026-03-24T15:19:56.933Z</time></trkpt><trkpt lat="43.671255" lon="11.5367733"><ele>326.7142857142857</ele><time>2026-03-24T15:19:57.934Z</time></trkpt><trkpt lat="43.6713333" lon="11.5368183"><ele>326.0</ele><time>2026-03-24T15:19:58.932Z</time></trkpt><trkpt lat="43.6714117" lon="11.536855"><ele>328.1666666666667</ele><time>2026-03-24T15:19:59.935Z</time></trkpt><trkpt lat="43.6714783" lon="11.5369167"><ele>330.33333333333337</ele><time>2026-03-24T15:20:00.933Z</time></trkpt><trkpt lat="43.6715117" lon="11.5370083"><ele>332.5</ele><time>2026-03-24T15:20:01.931Z</time></trkpt><trkpt lat="43.6715133" lon="11.537115"><ele>334.6666666666667</ele><time>2026-03-24T15:20:02.934Z</time></trkpt><trkpt lat="43.6714817" lon="11.5372183"><ele>336.8333333333333</ele><time>2026-03-24T15:20:03.929Z</time></trkpt><trkpt lat="43.6714217" lon="11.537315"><ele>339.0</ele><time>2026-03-24T15:20:04.93Z</time></trkpt><trkpt lat="43.6713483" lon="11.5374133"><ele>339.0</ele><time>2026-03-24T15:20:05.931Z</time></trkpt><trkpt lat="43.6713133" lon="11.53754"><ele>339.0</ele><time>2026-03-24T15:20:06.93Z</time></trkpt><trkpt lat="43.6712983" lon="11.5376767"><ele>339.0</ele><time>2026-03-24T15:20:07.934Z</time></trkpt><trkpt lat="43.6712917" lon="11.5378167"><ele>339.0</ele><time>2026-03-24T15:20:08.932Z</time></trkpt><trkpt lat="43.6712783" lon="11.5379583"><ele>339.0</ele><time>2026-03-24T15:20:09.93Z</time></trkpt><trkpt lat="43.6712767" lon="11.5381"><ele>339.4</ele><time>2026-03-24T15:20:10.933Z</time></trkpt><trkpt lat="43.6712717" lon="11.5382433"><ele>339.79999999999995</ele><time>2026-03-24T15:20:11.932Z</time></trkpt><trkpt lat="43.6712767" lon="11.5383867"><ele>340.20000000000005</ele><time>2026-03-24T15:20:12.933Z</time></trkpt><trkpt lat="43.6712817" lon="11.5385267"><ele>340.6</ele><time>2026-03-24T15:20:13.932Z</time></trkpt><trkpt lat="43.6712583" lon="11.5386567"><ele>341.0</ele><time>2026-03-24T15:20:14.932Z</time></trkpt><trkpt lat="43.6712117" lon="11.538765"><ele>341.0</ele><time>2026-03-24T15:20:15.933Z</time></trkpt><trkpt lat="43.6711517" lon="11.53885"><ele>341.0</ele><time>2026-03-24T15:20:16.932Z</time></trkpt><trkpt lat="43.67107" lon="11.5388883"><ele>341.0</ele><time>2026-03-24T15:20:17.932Z</time></trkpt><trkpt lat="43.6709767" lon="11.5388433"><ele>341.0</ele><time>2026-03-24T15:20:18.931Z</time></trkpt><trkpt lat="43.6709033" lon="11.5387617"><ele>341.0</ele><time>2026-03-24T15:20:19.931Z</time></trkpt><trkpt lat="43.67084" lon="11.5386733"><ele>339.33333333333337</ele><time>2026-03-24T15:20:20.931Z</time></trkpt><trkpt lat="43.6707767" lon="11.5386117"><ele>337.6666666666667</ele><time>2026-03-24T15:20:21.93Z</time></trkpt><trkpt lat="43.6707117" lon="11.538555"><ele>336.0</ele><time>2026-03-24T15:20:22.931Z</time></trkpt><trkpt lat="43.6706467" lon="11.5384933"><ele>334.3333333333333</ele><time>2026-03-24T15:20:23.931Z</time></trkpt><trkpt lat="43.6705767" lon="11.53843"><ele>332.66666666666663</ele><time>2026-03-24T15:20:24.929Z</time></trkpt><trkpt lat="43.6705133" lon="11.5383583"><ele>331.0</ele><time>2026-03-24T15:20:25.931Z</time></trkpt><trkpt lat="43.6704467" lon="11.5382883"><ele>331.0</ele><time>2026-03-24T15:20:26.931Z</time></trkpt><trkpt lat="43.670385" lon="11.5382133"><ele>331.0</ele><time>2026-03-24T15:20:27.929Z</time></trkpt><trkpt lat="43.670325" lon="11.5381367"><ele>331.0</ele><time>2026-03-24T15:20:28.93Z</time></trkpt><trkpt lat="43.6702683" lon="11.5380533"><ele>331.0</ele><time>2026-03-24T15:20:29.932Z</time></trkpt><trkpt lat="43.670215" lon="11.5379717"><ele>331.0</ele><time>2026-03-24T15:20:30.932Z</time></trkpt><trkpt lat="43.6701567" lon="11.537895"><ele>331.0</ele><time>2026-03-24T15:20:31.934Z</time></trkpt><trkpt lat="43.6701067" lon="11.5378183"><ele>331.0</ele><time>2026-03-24T15:20:32.932Z</time></trkpt><trkpt lat="43.6700567" lon="11.5377367"><ele>331.0</ele><time>2026-03-24T15:20:33.933Z</time></trkpt><trkpt lat="43.6700083" lon="11.537655"><ele>331.0</ele><time>2026-03-24T15:20:34.932Z</time></trkpt><trkpt lat="43.66996" lon="11.5375733"><ele>331.0</ele><time>2026-03-24T15:20:35.933Z</time></trkpt><trkpt lat="43.6699283" lon="11.5374817"><ele>331.0</ele><time>2026-03-24T15:20:36.933Z</time></trkpt><trkpt lat="43.6699133" lon="11.537385"><ele>331.0</ele><time>2026-03-24T15:20:37.933Z</time></trkpt><trkpt lat="43.6699033" lon="11.5372867"><ele>331.0</ele><time>2026-03-24T15:20:38.933Z</time></trkpt><trkpt lat="43.669895" lon="11.53719"><ele>331.0</ele><time>2026-03-24T15:20:39.931Z</time></trkpt><trkpt lat="43.6698783" lon="11.537095"><ele>331.0</ele><time>2026-03-24T15:20:40.932Z</time></trkpt><trkpt lat="43.669855" lon="11.5370133"><ele>331.0</ele><time>2026-03-24T15:20:41.931Z</time></trkpt><trkpt lat="43.669825" lon="11.536925"><ele>331.0</ele><time>2026-03-24T15:20:42.931Z</time></trkpt><trkpt lat="43.6697917" lon="11.5368467"><ele>331.0</ele><time>2026-03-24T15:20:43.931Z</time></trkpt><trkpt lat="43.6697367" lon="11.53678"><ele>331.0</ele><time>2026-03-24T15:20:44.933Z</time></trkpt><trkpt lat="43.6696767" lon="11.5367233"><ele>331.0</ele><time>2026-03-24T15:20:45.933Z</time></trkpt><trkpt lat="43.6696117" lon="11.536665"><ele>331.7142857142857</ele><time>2026-03-24T15:20:46.932Z</time></trkpt><trkpt lat="43.669555" lon="11.536615"><ele>332.42857142857144</ele><time>2026-03-24T15:20:47.933Z</time></trkpt><trkpt lat="43.6694917" lon="11.5365717"><ele>333.1428571428571</ele><time>2026-03-24T15:20:48.931Z</time></trkpt><trkpt lat="43.6694283" lon="11.53652"><ele>333.8571428571429</ele><time>2026-03-24T15:20:49.931Z</time></trkpt><trkpt lat="43.6693683" lon="11.5364633"><ele>334.57142857142856</ele><time>2026-03-24T15:20:50.931Z</time></trkpt><trkpt lat="43.6693033" lon="11.53642"><ele>335.2857142857143</ele><time>2026-03-24T15:20:51.931Z</time></trkpt><trkpt lat="43.6692417" lon="11.5363767"><ele>336.0</ele><time>2026-03-24T15:20:52.93Z</time></trkpt><trkpt lat="43.669175" lon="11.5363417"><ele>336.0</ele><time>2026-03-24T15:20:53.931Z</time></trkpt><trkpt lat="43.669105" lon="11.5363167"><ele>336.0</ele><time>2026-03-24T15:20:54.931Z</time></trkpt><trkpt lat="43.6690317" lon="11.5363133"><ele>336.0</ele><time>2026-03-24T15:20:55.933Z</time></trkpt><trkpt lat="43.66896" lon="11.5363183"><ele>336.0</ele><time>2026-03-24T15:20:56.934Z</time></trkpt><trkpt lat="43.66889" lon="11.5363417"><ele>336.0</ele><time>2026-03-24T15:20:57.931Z</time></trkpt><trkpt lat="43.668815" lon="11.5363533"><ele>336.0</ele><time>2026-03-24T15:20:58.931Z</time></trkpt><trkpt lat="43.6687433" lon="11.5363683"><ele>336.0</ele><time>2026-03-24T15:20:59.931Z</time></trkpt><trkpt lat="43.66867" lon="11.536355"><ele>337.1666666666667</ele><time>2026-03-24T15:21:00.931Z</time></trkpt><trkpt lat="43.668605" lon="11.5363133"><ele>338.3333333333333</ele><time>2026-03-24T15:21:01.931Z</time></trkpt><trkpt lat="43.6685467" lon="11.53626"><ele>339.5</ele><time>2026-03-24T15:21:02.934Z</time></trkpt><trkpt lat="43.6684983" lon="11.53619"><ele>340.66666666666663</ele><time>2026-03-24T15:21:03.933Z</time></trkpt><trkpt lat="43.6684567" lon="11.5361183"><ele>341.8333333333333</ele><time>2026-03-24T15:21:04.931Z</time></trkpt><trkpt lat="43.668415" lon="11.53605"><ele>343.0</ele><time>2026-03-24T15:21:05.931Z</time></trkpt><trkpt lat="43.668325" lon="11.5359317"><ele>340.16666666666663</ele><time>2026-03-24T15:21:07.932Z</time></trkpt><trkpt lat="43.6682183" lon="11.5358517"><ele>337.3333333333333</ele><time>2026-03-24T15:21:09.933Z</time></trkpt><trkpt lat="43.6681" lon="11.5358117"><ele>334.5</ele><time>2026-03-24T15:21:11.933Z</time></trkpt><trkpt lat="43.668035" lon="11.5358"><ele>331.6666666666667</ele><time>2026-03-24T15:21:12.932Z</time></trkpt><trkpt lat="43.6679717" lon="11.5357833"><ele>328.83333333333337</ele><time>2026-03-24T15:21:13.933Z</time></trkpt><trkpt lat="43.6679067" lon="11.5357683"><ele>326.0</ele><time>2026-03-24T15:21:14.931Z</time></trkpt><trkpt lat="43.6678367" lon="11.5357517"><ele>327.0</ele><time>2026-03-24T15:21:15.931Z</time></trkpt><trkpt lat="43.6677683" lon="11.5357283"><ele>328.0</ele><time>2026-03-24T15:21:16.931Z</time></trkpt><trkpt lat="43.6676983" lon="11.5357"><ele>329.0</ele><time>2026-03-24T15:21:17.931Z</time></trkpt><trkpt lat="43.6676283" lon="11.5356717"><ele>330.0</ele><time>2026-03-24T15:21:18.933Z</time></trkpt><trkpt lat="43.6675617" lon="11.5356567"><ele>331.0</ele><time>2026-03-24T15:21:19.932Z</time></trkpt><trkpt lat="43.667495" lon="11.5356467"><ele>332.0</ele><time>2026-03-24T15:21:20.931Z</time></trkpt><trkpt lat="43.66743" lon="11.5356433"><ele>333.0</ele><time>2026-03-24T15:21:21.93Z</time></trkpt><trkpt lat="43.6673633" lon="11.53565"><ele>333.0</ele><time>2026-03-24T15:21:22.931Z</time></trkpt><trkpt lat="43.6672967" lon="11.5356583"><ele>333.0</ele><time>2026-03-24T15:21:23.931Z</time></trkpt><trkpt lat="43.66723" lon="11.5356633"><ele>333.0</ele><time>2026-03-24T15:21:24.931Z</time></trkpt><trkpt lat="43.6671633" lon="11.53567"><ele>333.0</ele><time>2026-03-24T15:21:25.933Z</time></trkpt><trkpt lat="43.6670933" lon="11.5356833"><ele>333.0</ele><time>2026-03-24T15:21:26.934Z</time></trkpt><trkpt lat="43.6670217" lon="11.5357"><ele>333.0</ele><time>2026-03-24T15:21:27.933Z</time></trkpt><trkpt lat="43.666955" lon="11.5357233"><ele>333.0</ele><time>2026-03-24T15:21:28.932Z</time></trkpt><trkpt lat="43.6668917" lon="11.5357633"><ele>332.42857142857144</ele><time>2026-03-24T15:21:29.934Z</time></trkpt><trkpt lat="43.6668367" lon="11.5358233"><ele>331.85714285714283</ele><time>2026-03-24T15:21:30.93Z</time></trkpt><trkpt lat="43.6667933" lon="11.535895"><ele>331.2857142857143</ele><time>2026-03-24T15:21:31.932Z</time></trkpt><trkpt lat="43.6667517" lon="11.5359767"><ele>330.7142857142857</ele><time>2026-03-24T15:21:32.931Z</time></trkpt><trkpt lat="43.6667117" lon="11.5360533"><ele>330.1428571428571</ele><time>2026-03-24T15:21:33.931Z</time></trkpt><trkpt lat="43.6666717" lon="11.5361317"><ele>329.57142857142856</ele><time>2026-03-24T15:21:34.93Z</time></trkpt><trkpt lat="43.6666183" lon="11.5362017"><ele>329.0</ele><time>2026-03-24T15:21:35.931Z</time></trkpt><trkpt lat="43.6665517" lon="11.5362483"><ele>329.42857142857144</ele><time>2026-03-24T15:21:36.933Z</time></trkpt><trkpt lat="43.6664833" lon="11.536275"><ele>329.8571428571429</ele><time>2026-03-24T15:21:37.937Z</time></trkpt><trkpt lat="43.6664083" lon="11.5362783"><ele>330.2857142857143</ele><time>2026-03-24T15:21:38.935Z</time></trkpt><trkpt lat="43.6663433" lon="11.53626"><ele>330.7142857142857</ele><time>2026-03-24T15:21:39.934Z</time></trkpt><trkpt lat="43.6662783" lon="11.5362517"><ele>331.14285714285717</ele><time>2026-03-24T15:21:40.933Z</time></trkpt><trkpt lat="43.6662117" lon="11.5362383"><ele>331.57142857142856</ele><time>2026-03-24T15:21:41.929Z</time></trkpt><trkpt lat="43.6661483" lon="11.5362317"><ele>332.0</ele><time>2026-03-24T15:21:42.93Z</time></trkpt><trkpt lat="43.6660833" lon="11.5362583"><ele>332.0</ele><time>2026-03-24T15:21:43.93Z</time></trkpt><trkpt lat="43.6660267" lon="11.5363033"><ele>332.0</ele><time>2026-03-24T15:21:44.931Z</time></trkpt><trkpt lat="43.66597" lon="11.53636"><ele>332.0</ele><time>2026-03-24T15:21:45.93Z</time></trkpt><trkpt lat="43.665915" lon="11.5364233"><ele>332.0</ele><time>2026-03-24T15:21:46.933Z</time></trkpt><trkpt lat="43.6658717" lon="11.5365"><ele>332.0</ele><time>2026-03-24T15:21:47.933Z</time></trkpt><trkpt lat="43.6658167" lon="11.5365667"><ele>332.0</ele><time>2026-03-24T15:21:48.934Z</time></trkpt><trkpt lat="43.6657617" lon="11.5366317"><ele>332.0</ele><time>2026-03-24T15:21:49.932Z</time></trkpt><trkpt lat="43.6657017" lon="11.5366883"><ele>332.0</ele><time>2026-03-24T15:21:50.933Z</time></trkpt><trkpt lat="43.665635" lon="11.536735"><ele>332.0</ele><time>2026-03-24T15:21:51.933Z</time></trkpt><trkpt lat="43.6655667" lon="11.5367683"><ele>332.0</ele><time>2026-03-24T15:21:52.932Z</time></trkpt><trkpt lat="43.6655" lon="11.5368017"><ele>332.0</ele><time>2026-03-24T15:21:53.934Z</time></trkpt><trkpt lat="43.6654317" lon="11.53683"><ele>332.0</ele><time>2026-03-24T15:21:54.933Z</time></trkpt><trkpt lat="43.6653733" lon="11.5368683"><ele>332.0</ele><time>2026-03-24T15:21:55.932Z</time></trkpt><trkpt lat="43.6653167" lon="11.536915"><ele>332.0</ele><time>2026-03-24T15:21:56.932Z</time></trkpt><trkpt lat="43.6652633" lon="11.5369633"><ele>331.57142857142856</ele><time>2026-03-24T15:21:57.934Z</time></trkpt><trkpt lat="43.6652133" lon="11.5370233"><ele>331.14285714285717</ele><time>2026-03-24T15:21:58.933Z</time></trkpt><trkpt lat="43.665165" lon="11.5370867"><ele>330.7142857142857</ele><time>2026-03-24T15:21:59.932Z</time></trkpt><trkpt lat="43.6651283" lon="11.5371667"><ele>330.2857142857143</ele><time>2026-03-24T15:22:00.933Z</time></trkpt><trkpt lat="43.665105" lon="11.537255"><ele>329.8571428571429</ele><time>2026-03-24T15:22:01.933Z</time></trkpt><trkpt lat="43.6650883" lon="11.537345"><ele>329.42857142857144</ele><time>2026-03-24T15:22:02.932Z</time></trkpt><trkpt lat="43.6650833" lon="11.5374383"><ele>329.0</ele><time>2026-03-24T15:22:03.934Z</time></trkpt><trkpt lat="43.6650783" lon="11.53753"><ele>329.0</ele><time>2026-03-24T15:22:04.932Z</time></trkpt><trkpt lat="43.6650683" lon="11.5376233"><ele>329.0</ele><time>2026-03-24T15:22:05.931Z</time></trkpt><trkpt lat="43.665055" lon="11.5377167"><ele>329.0</ele><time>2026-03-24T15:22:06.935Z</time></trkpt><trkpt lat="43.665025" lon="11.5378067"><ele>329.0</ele><time>2026-03-24T15:22:07.932Z</time></trkpt><trkpt lat="43.6649833" lon="11.5378867"><ele>329.0</ele><time>2026-03-24T15:22:08.933Z</time></trkpt><trkpt lat="43.6649333" lon="11.5379567"><ele>329.0</ele><time>2026-03-24T15:22:09.934Z</time></trkpt><trkpt lat="43.6648717" lon="11.538005"><ele>329.0</ele><time>2026-03-24T15:22:10.933Z</time></trkpt><trkpt lat="43.66481" lon="11.5380467"><ele>330.14285714285717</ele><time>2026-03-24T15:22:11.933Z</time></trkpt><trkpt lat="43.66475" lon="11.53809"><ele>331.2857142857143</ele><time>2026-03-24T15:22:12.935Z</time></trkpt><trkpt lat="43.6647067" lon="11.5381533"><ele>332.42857142857144</ele><time>2026-03-24T15:22:13.933Z</time></trkpt><trkpt lat="43.6646783" lon="11.538235"><ele>333.57142857142856</ele><time>2026-03-24T15:22:14.943Z</time></trkpt><trkpt lat="43.6646617" lon="11.5383217"><ele>334.7142857142857</ele><time>2026-03-24T15:22:15.93Z</time></trkpt><trkpt lat="43.6646517" lon="11.5384133"><ele>335.8571428571429</ele><time>2026-03-24T15:22:16.93Z</time></trkpt><trkpt lat="43.664645" lon="11.5385033"><ele>337.0</ele><time>2026-03-24T15:22:17.931Z</time></trkpt><trkpt lat="43.6646433" lon="11.538595"><ele>337.00000000000006</ele><time>2026-03-24T15:22:18.93Z</time></trkpt><trkpt lat="43.6646367" lon="11.5386867"><ele>337.0</ele><time>2026-03-24T15:22:19.931Z</time></trkpt><trkpt lat="43.6646267" lon="11.5387783"><ele>337.0</ele><time>2026-03-24T15:22:20.931Z</time></trkpt><trkpt lat="43.6646133" lon="11.53887"><ele>337.0</ele><time>2026-03-24T15:22:21.93Z</time></trkpt><trkpt lat="43.6645967" lon="11.5389583"><ele>337.0</ele><time>2026-03-24T15:22:22.931Z</time></trkpt><trkpt lat="43.6645817" lon="11.539045"><ele>337.00000000000006</ele><time>2026-03-24T15:22:23.932Z</time></trkpt><trkpt lat="43.6645533" lon="11.5391267"><ele>337.0</ele><time>2026-03-24T15:22:24.93Z</time></trkpt><trkpt lat="43.664525" lon="11.539205"><ele>336.42857142857144</ele><time>2026-03-24T15:22:25.93Z</time></trkpt><trkpt lat="43.6644917" lon="11.53928"><ele>335.8571428571429</ele><time>2026-03-24T15:22:26.931Z</time></trkpt><trkpt lat="43.6644483" lon="11.5393483"><ele>335.28571428571433</ele><time>2026-03-24T15:22:27.931Z</time></trkpt><trkpt lat="43.664395" lon="11.5394067"><ele>334.7142857142857</ele><time>2026-03-24T15:22:28.933Z</time></trkpt><trkpt lat="43.6643417" lon="11.5394583"><ele>334.1428571428571</ele><time>2026-03-24T15:22:29.93Z</time></trkpt><trkpt lat="43.6642833" lon="11.5394967"><ele>333.5714285714286</ele><time>2026-03-24T15:22:30.931Z</time></trkpt><trkpt lat="43.664215" lon="11.5394967"><ele>333.0</ele><time>2026-03-24T15:22:31.93Z</time></trkpt><trkpt lat="43.6641517" lon="11.5394883"><ele>333.0</ele><time>2026-03-24T15:22:32.93Z</time></trkpt><trkpt lat="43.6640817" lon="11.5394633"><ele>333.0</ele><time>2026-03-24T15:22:33.93Z</time></trkpt><trkpt lat="43.6640217" lon="11.5394267"><ele>333.0</ele><time>2026-03-24T15:22:34.933Z</time></trkpt><trkpt lat="43.6639617" lon="11.539395"><ele>333.0</ele><time>2026-03-24T15:22:35.932Z</time></trkpt><trkpt lat="43.6639067" lon="11.5393483"><ele>333.0</ele><time>2026-03-24T15:22:36.933Z</time></trkpt><trkpt lat="43.6638483" lon="11.5393133"><ele>333.0</ele><time>2026-03-24T15:22:37.931Z</time></trkpt><trkpt lat="43.66373" lon="11.539255"><ele>333.0</ele><time>2026-03-24T15:22:39.931Z</time></trkpt><trkpt lat="43.6636717" lon="11.5392183"><ele>333.0</ele><time>2026-03-24T15:22:40.937Z</time></trkpt><trkpt lat="43.6635583" lon="11.539155"><ele>333.0</ele><time>2026-03-24T15:22:42.931Z</time></trkpt><trkpt lat="43.6634483" lon="11.5390967"><ele>333.0</ele><time>2026-03-24T15:22:44.933Z</time></trkpt><trkpt lat="43.6633333" lon="11.539055"><ele>333.0</ele><time>2026-03-24T15:22:46.931Z</time></trkpt><trkpt lat="43.663215" lon="11.53904"><ele>334.25</ele><time>2026-03-24T15:22:48.932Z</time></trkpt><trkpt lat="43.663095" lon="11.5390667"><ele>335.5</ele><time>2026-03-24T15:22:50.933Z</time></trkpt><trkpt lat="43.6629883" lon="11.53913"><ele>336.75</ele><time>2026-03-24T15:22:52.932Z</time></trkpt><trkpt lat="43.662885" lon="11.539215"><ele>338.0</ele><time>2026-03-24T15:22:54.935Z</time></trkpt><trkpt lat="43.6627883" lon="11.539325"><ele>338.0</ele><time>2026-03-24T15:22:56.932Z</time></trkpt><trkpt lat="43.6627" lon="11.5394517"><ele>338.0</ele><time>2026-03-24T15:22:58.932Z</time></trkpt><trkpt lat="43.6626483" lon="11.5395133"><ele>338.0</ele><time>2026-03-24T15:22:59.931Z</time></trkpt><trkpt lat="43.6626" lon="11.539575"><ele>338.0</ele><time>2026-03-24T15:23:00.929Z</time></trkpt><trkpt lat="43.6625533" lon="11.53964"><ele>338.0</ele><time>2026-03-24T15:23:01.93Z</time></trkpt><trkpt lat="43.66251" lon="11.5397083"><ele>338.0</ele><time>2026-03-24T15:23:02.933Z</time></trkpt><trkpt lat="43.662475" lon="11.5397833"><ele>338.0</ele><time>2026-03-24T15:23:03.929Z</time></trkpt><trkpt lat="43.662445" lon="11.53986"><ele>338.0</ele><time>2026-03-24T15:23:04.931Z</time></trkpt><trkpt lat="43.6624217" lon="11.5399417"><ele>338.0</ele><time>2026-03-24T15:23:05.933Z</time></trkpt><trkpt lat="43.662405" lon="11.5400283"><ele>338.0</ele><time>2026-03-24T15:23:06.932Z</time></trkpt><trkpt lat="43.66239" lon="11.540115"><ele>338.0</ele><time>2026-03-24T15:23:07.931Z</time></trkpt><trkpt lat="43.662385" lon="11.540205"><ele>338.0</ele><time>2026-03-24T15:23:08.936Z</time></trkpt><trkpt lat="43.6623867" lon="11.5402967"><ele>338.0</ele><time>2026-03-24T15:23:09.933Z</time></trkpt><trkpt lat="43.6623983" lon="11.5403867"><ele>338.57142857142856</ele><time>2026-03-24T15:23:10.934Z</time></trkpt><trkpt lat="43.6624133" lon="11.5404767"><ele>339.1428571428571</ele><time>2026-03-24T15:23:11.931Z</time></trkpt><trkpt lat="43.662425" lon="11.540565"><ele>339.71428571428567</ele><time>2026-03-24T15:23:12.931Z</time></trkpt><trkpt lat="43.66245" lon="11.5406483"><ele>340.2857142857143</ele><time>2026-03-24T15:23:13.931Z</time></trkpt><trkpt lat="43.66248" lon="11.5407283"><ele>340.85714285714283</ele><time>2026-03-24T15:23:14.931Z</time></trkpt><trkpt lat="43.6625133" lon="11.5408083"><ele>341.4285714285714</ele><time>2026-03-24T15:23:15.931Z</time></trkpt><trkpt lat="43.66254" lon="11.5408983"><ele>342.0</ele><time>2026-03-24T15:23:16.932Z</time></trkpt><trkpt lat="43.6625617" lon="11.5409883"><ele>342.0</ele><time>2026-03-24T15:23:17.932Z</time></trkpt><trkpt lat="43.6625717" lon="11.5410817"><ele>342.0</ele><time>2026-03-24T15:23:18.933Z</time></trkpt><trkpt lat="43.6625583" lon="11.541175"><ele>342.0</ele><time>2026-03-24T15:23:19.933Z</time></trkpt><trkpt lat="43.66253" lon="11.5412533"><ele>342.0</ele><time>2026-03-24T15:23:20.933Z</time></trkpt><trkpt lat="43.6624267" lon="11.5413467"><ele>342.0</ele><time>2026-03-24T15:23:22.934Z</time></trkpt><trkpt lat="43.662355" lon="11.5413483"><ele>342.0</ele><time>2026-03-24T15:23:23.932Z</time></trkpt><trkpt lat="43.662285" lon="11.5413283"><ele>341.99999999999994</ele><time>2026-03-24T15:23:24.932Z</time></trkpt><trkpt lat="43.6622217" lon="11.5412817"><ele>342.0</ele><time>2026-03-24T15:23:25.932Z</time></trkpt><trkpt lat="43.662165" lon="11.54122"><ele>342.0</ele><time>2026-03-24T15:23:26.933Z</time></trkpt><trkpt lat="43.66211" lon="11.5411567"><ele>342.0</ele><time>2026-03-24T15:23:27.935Z</time></trkpt><trkpt lat="43.6620517" lon="11.5411"><ele>342.0</ele><time>2026-03-24T15:23:28.933Z</time></trkpt><trkpt lat="43.6619983" lon="11.5410367"><ele>341.99999999999994</ele><time>2026-03-24T15:23:29.933Z</time></trkpt><trkpt lat="43.661945" lon="11.54098"><ele>342.0</ele><time>2026-03-24T15:23:30.933Z</time></trkpt><trkpt lat="43.6618983" lon="11.5409067"><ele>342.1428571428571</ele><time>2026-03-24T15:23:31.932Z</time></trkpt><trkpt lat="43.661845" lon="11.5408467"><ele>342.2857142857143</ele><time>2026-03-24T15:23:32.933Z</time></trkpt><trkpt lat="43.6617883" lon="11.5407917"><ele>342.42857142857144</ele><time>2026-03-24T15:23:33.933Z</time></trkpt><trkpt lat="43.6617317" lon="11.5407333"><ele>342.57142857142856</ele><time>2026-03-24T15:23:34.931Z</time></trkpt><trkpt lat="43.66167" lon="11.5406883"><ele>342.7142857142857</ele><time>2026-03-24T15:23:35.935Z</time></trkpt><trkpt lat="43.6616017" lon="11.5406683"><ele>342.85714285714283</ele><time>2026-03-24T15:23:36.933Z</time></trkpt><trkpt lat="43.6615383" lon="11.54065"><ele>343.0</ele><time>2026-03-24T15:23:37.935Z</time></trkpt><trkpt lat="43.6614133" lon="11.5406083"><ele>343.0</ele><time>2026-03-24T15:23:39.934Z</time></trkpt><trkpt lat="43.6613483" lon="11.5405983"><ele>343.0</ele><time>2026-03-24T15:23:40.932Z</time></trkpt><trkpt lat="43.661225" lon="11.54056"><ele>343.0</ele><time>2026-03-24T15:23:42.932Z</time></trkpt><trkpt lat="43.6611117" lon="11.5405183"><ele>343.0</ele><time>2026-03-24T15:23:44.933Z</time></trkpt><trkpt lat="43.6609983" lon="11.540485"><ele>343.0</ele><time>2026-03-24T15:23:46.932Z</time></trkpt><trkpt lat="43.66089" lon="11.540455"><ele>343.5</ele><time>2026-03-24T15:23:48.932Z</time></trkpt><trkpt lat="43.6607867" lon="11.540435"><ele>344.0</ele><time>2026-03-24T15:23:50.935Z</time></trkpt><trkpt lat="43.6606833" lon="11.5404567"><ele>344.5</ele><time>2026-03-24T15:23:52.932Z</time></trkpt><trkpt lat="43.6605817" lon="11.5405367"><ele>345.0</ele><time>2026-03-24T15:23:54.933Z</time></trkpt><trkpt lat="43.6604767" lon="11.5406333"><ele>345.0</ele><time>2026-03-24T15:23:56.934Z</time></trkpt><trkpt lat="43.66042" lon="11.540675"><ele>345.0</ele><time>2026-03-24T15:23:57.933Z</time></trkpt><trkpt lat="43.66037" lon="11.54073"><ele>345.0</ele><time>2026-03-24T15:23:58.932Z</time></trkpt><trkpt lat="43.66031" lon="11.540765"><ele>345.0</ele><time>2026-03-24T15:23:59.931Z</time></trkpt><trkpt lat="43.660255" lon="11.5408083"><ele>345.0</ele><time>2026-03-24T15:24:00.93Z</time></trkpt><trkpt lat="43.6602017" lon="11.540855"><ele>345.0</ele><time>2026-03-24T15:24:01.932Z</time></trkpt><trkpt lat="43.6601467" lon="11.5408983"><ele>345.0</ele><time>2026-03-24T15:24:02.931Z</time></trkpt><trkpt lat="43.6600483" lon="11.5409883"><ele>345.25</ele><time>2026-03-24T15:24:04.931Z</time></trkpt><trkpt lat="43.6599617" lon="11.541085"><ele>345.5</ele><time>2026-03-24T15:24:06.934Z</time></trkpt><trkpt lat="43.659895" lon="11.5412133"><ele>345.75</ele><time>2026-03-24T15:24:08.932Z</time></trkpt><trkpt lat="43.6598667" lon="11.5413667"><ele>346.0</ele><time>2026-03-24T15:24:10.933Z</time></trkpt><trkpt lat="43.65986" lon="11.5415217"><ele>346.0</ele><time>2026-03-24T15:24:12.93Z</time></trkpt><trkpt lat="43.6598617" lon="11.5416767"><ele>346.0</ele><time>2026-03-24T15:24:14.932Z</time></trkpt><trkpt lat="43.6598633" lon="11.5418417"><ele>346.0</ele><time>2026-03-24T15:24:16.932Z</time></trkpt><trkpt lat="43.6598617" lon="11.5420033"><ele>346.0</ele><time>2026-03-24T15:24:18.934Z</time></trkpt><trkpt lat="43.6598617" lon="11.5421667"><ele>347.25</ele><time>2026-03-24T15:24:20.934Z</time></trkpt><trkpt lat="43.6598783" lon="11.5423267"><ele>348.5</ele><time>2026-03-24T15:24:22.934Z</time></trkpt><trkpt lat="43.6599017" lon="11.54249"><ele>349.75</ele><time>2026-03-24T15:24:24.934Z</time></trkpt><trkpt lat="43.6599167" lon="11.5426583"><ele>351.0</ele><time>2026-03-24T15:24:26.933Z</time></trkpt><trkpt lat="43.65991" lon="11.5428283"><ele>353.5</ele><time>2026-03-24T15:24:28.931Z</time></trkpt><trkpt lat="43.65986" lon="11.5429767"><ele>356.0</ele><time>2026-03-24T15:24:30.93Z</time></trkpt><trkpt lat="43.6597533" lon="11.543045"><ele>358.5</ele><time>2026-03-24T15:24:32.933Z</time></trkpt><trkpt lat="43.6596467" lon="11.5430217"><ele>361.0</ele><time>2026-03-24T15:24:34.934Z</time></trkpt><trkpt lat="43.6595683" lon="11.5429167"><ele>359.0</ele><time>2026-03-24T15:24:36.934Z</time></trkpt><trkpt lat="43.659485" lon="11.5428233"><ele>357.0</ele><time>2026-03-24T15:24:38.934Z</time></trkpt><trkpt lat="43.6593933" lon="11.542725"><ele>355.0</ele><time>2026-03-24T15:24:40.933Z</time></trkpt><trkpt lat="43.6593033" lon="11.5426367"><ele>353.0</ele><time>2026-03-24T15:24:42.934Z</time></trkpt><trkpt lat="43.6592017" lon="11.542555"><ele>353.0</ele><time>2026-03-24T15:24:44.935Z</time></trkpt><trkpt lat="43.6591133" lon="11.5424567"><ele>353.0</ele><time>2026-03-24T15:24:46.935Z</time></trkpt><trkpt lat="43.659025" lon="11.5423483"><ele>353.0</ele><time>2026-03-24T15:24:48.935Z</time></trkpt><trkpt lat="43.6589467" lon="11.5422233"><ele>353.0</ele><time>2026-03-24T15:24:50.934Z</time></trkpt><trkpt lat="43.6588733" lon="11.5420933"><ele>351.1666666666667</ele><time>2026-03-24T15:24:52.934Z</time></trkpt><trkpt lat="43.6587767" lon="11.5419867"><ele>349.33333333333337</ele><time>2026-03-24T15:24:54.935Z</time></trkpt><trkpt lat="43.658655" lon="11.541945"><ele>347.5</ele><time>2026-03-24T15:24:56.934Z</time></trkpt><trkpt lat="43.65859" lon="11.5419433"><ele>345.6666666666667</ele><time>2026-03-24T15:24:57.934Z</time></trkpt><trkpt lat="43.658525" lon="11.5419383"><ele>343.8333333333333</ele><time>2026-03-24T15:24:58.935Z</time></trkpt><trkpt lat="43.6584583" lon="11.5419467"><ele>342.0</ele><time>2026-03-24T15:24:59.934Z</time></trkpt><trkpt lat="43.6583917" lon="11.5419533"><ele>341.99999999999994</ele><time>2026-03-24T15:25:00.932Z</time></trkpt><trkpt lat="43.6583233" lon="11.5419617"><ele>342.0</ele><time>2026-03-24T15:25:01.933Z</time></trkpt><trkpt lat="43.6582517" lon="11.5419617"><ele>342.0</ele><time>2026-03-24T15:25:02.933Z</time></trkpt><trkpt lat="43.6581833" lon="11.5419633"><ele>342.0</ele><time>2026-03-24T15:25:03.931Z</time></trkpt><trkpt lat="43.6581167" lon="11.54197"><ele>342.0</ele><time>2026-03-24T15:25:04.932Z</time></trkpt><trkpt lat="43.65805" lon="11.5419717"><ele>341.99999999999994</ele><time>2026-03-24T15:25:05.931Z</time></trkpt><trkpt lat="43.6579833" lon="11.5419733"><ele>342.0</ele><time>2026-03-24T15:25:06.932Z</time></trkpt><trkpt lat="43.657915" lon="11.5419717"><ele>341.99999999999994</ele><time>2026-03-24T15:25:07.932Z</time></trkpt><trkpt lat="43.6578483" lon="11.5419733"><ele>342.0</ele><time>2026-03-24T15:25:08.932Z</time></trkpt><trkpt lat="43.657785" lon="11.5419733"><ele>342.0</ele><time>2026-03-24T15:25:09.93Z</time></trkpt><trkpt lat="43.65772" lon="11.5419867"><ele>342.0</ele><time>2026-03-24T15:25:10.932Z</time></trkpt><trkpt lat="43.6576567" lon="11.5420033"><ele>342.0</ele><time>2026-03-24T15:25:11.932Z</time></trkpt><trkpt lat="43.6575933" lon="11.5420317"><ele>341.99999999999994</ele><time>2026-03-24T15:25:12.933Z</time></trkpt><trkpt lat="43.6575417" lon="11.5420833"><ele>342.0</ele><time>2026-03-24T15:25:13.933Z</time></trkpt><trkpt lat="43.6574933" lon="11.5421467"><ele>342.71428571428567</ele><time>2026-03-24T15:25:14.934Z</time></trkpt><trkpt lat="43.657455" lon="11.5422217"><ele>343.42857142857144</ele><time>2026-03-24T15:25:15.933Z</time></trkpt><trkpt lat="43.6574317" lon="11.54231"><ele>344.1428571428571</ele><time>2026-03-24T15:25:16.932Z</time></trkpt><trkpt lat="43.6574067" lon="11.5424"><ele>344.85714285714283</ele><time>2026-03-24T15:25:17.936Z</time></trkpt><trkpt lat="43.6573933" lon="11.5424933"><ele>345.57142857142856</ele><time>2026-03-24T15:25:18.935Z</time></trkpt><trkpt lat="43.6573733" lon="11.542585"><ele>346.2857142857143</ele><time>2026-03-24T15:25:19.933Z</time></trkpt><trkpt lat="43.657365" lon="11.54268"><ele>347.0</ele><time>2026-03-24T15:25:20.935Z</time></trkpt><trkpt lat="43.6573567" lon="11.5427733"><ele>347.0</ele><time>2026-03-24T15:25:21.935Z</time></trkpt><trkpt lat="43.65735" lon="11.5428667"><ele>347.0</ele><time>2026-03-24T15:25:22.933Z</time></trkpt><trkpt lat="43.6573567" lon="11.5429583"><ele>347.0</ele><time>2026-03-24T15:25:23.933Z</time></trkpt><trkpt lat="43.65737" lon="11.5430467"><ele>347.0</ele><time>2026-03-24T15:25:24.934Z</time></trkpt><trkpt lat="43.6573783" lon="11.5431417"><ele>347.0</ele><time>2026-03-24T15:25:25.933Z</time></trkpt><trkpt lat="43.6573867" lon="11.5432367"><ele>347.0</ele><time>2026-03-24T15:25:26.935Z</time></trkpt><trkpt lat="43.6573883" lon="11.5433283"><ele>347.0</ele><time>2026-03-24T15:25:27.935Z</time></trkpt><trkpt lat="43.657395" lon="11.5434217"><ele>347.8571428571429</ele><time>2026-03-24T15:25:28.934Z</time></trkpt><trkpt lat="43.6573967" lon="11.543515"><ele>348.71428571428567</ele><time>2026-03-24T15:25:29.933Z</time></trkpt><trkpt lat="43.6573933" lon="11.54361"><ele>349.57142857142856</ele><time>2026-03-24T15:25:30.933Z</time></trkpt><trkpt lat="43.6573933" lon="11.5437033"><ele>350.42857142857144</ele><time>2026-03-24T15:25:31.934Z</time></trkpt><trkpt lat="43.6573767" lon="11.543795"><ele>351.28571428571433</ele><time>2026-03-24T15:25:32.934Z</time></trkpt><trkpt lat="43.6573583" lon="11.543885"><ele>352.1428571428571</ele><time>2026-03-24T15:25:33.934Z</time></trkpt><trkpt lat="43.657335" lon="11.5439717"><ele>353.0</ele><time>2026-03-24T15:25:34.935Z</time></trkpt><trkpt lat="43.6573117" lon="11.5440583"><ele>354.5</ele><time>2026-03-24T15:25:35.932Z</time></trkpt><trkpt lat="43.6573033" lon="11.5441517"><ele>356.0</ele><time>2026-03-24T15:25:36.931Z</time></trkpt><trkpt lat="43.6572733" lon="11.54424"><ele>357.5</ele><time>2026-03-24T15:25:37.931Z</time></trkpt><trkpt lat="43.6572567" lon="11.54433"><ele>359.0</ele><time>2026-03-24T15:25:38.934Z</time></trkpt><trkpt lat="43.6572333" lon="11.5444133"><ele>360.5</ele><time>2026-03-24T15:25:39.929Z</time></trkpt><trkpt lat="43.657155" lon="11.5445333"><ele>362.0</ele><time>2026-03-24T15:25:41.935Z</time></trkpt><trkpt lat="43.6570367" lon="11.5445383"><ele>362.0</ele><time>2026-03-24T15:25:43.933Z</time></trkpt><trkpt lat="43.6569783" lon="11.5444933"><ele>362.0</ele><time>2026-03-24T15:25:44.933Z</time></trkpt><trkpt lat="43.6568633" lon="11.5444217"><ele>362.0</ele><time>2026-03-24T15:25:46.932Z</time></trkpt><trkpt lat="43.6568017" lon="11.5443817"><ele>362.0</ele><time>2026-03-24T15:25:47.932Z</time></trkpt><trkpt lat="43.656745" lon="11.5443417"><ele>362.0</ele><time>2026-03-24T15:25:48.932Z</time></trkpt><trkpt lat="43.6566367" lon="11.5442367"><ele>360.85714285714283</ele><time>2026-03-24T15:25:50.934Z</time></trkpt><trkpt lat="43.656585" lon="11.5441767"><ele>359.71428571428567</ele><time>2026-03-24T15:25:51.935Z</time></trkpt><trkpt lat="43.6565333" lon="11.5441133"><ele>358.57142857142856</ele><time>2026-03-24T15:25:52.932Z</time></trkpt><trkpt lat="43.6564833" lon="11.5440483"><ele>357.42857142857144</ele><time>2026-03-24T15:25:53.932Z</time></trkpt><trkpt lat="43.656435" lon="11.5439817"><ele>356.2857142857143</ele><time>2026-03-24T15:25:54.934Z</time></trkpt><trkpt lat="43.6563867" lon="11.5439133"><ele>355.14285714285717</ele><time>2026-03-24T15:25:55.932Z</time></trkpt><trkpt lat="43.6563367" lon="11.5438417"><ele>354.0</ele><time>2026-03-24T15:25:56.933Z</time></trkpt><trkpt lat="43.6562933" lon="11.543765"><ele>352.5714285714286</ele><time>2026-03-24T15:25:57.933Z</time></trkpt><trkpt lat="43.6562583" lon="11.5436783"><ele>351.1428571428571</ele><time>2026-03-24T15:25:58.934Z</time></trkpt><trkpt lat="43.656235" lon="11.54359"><ele>349.7142857142857</ele><time>2026-03-24T15:25:59.934Z</time></trkpt><trkpt lat="43.656225" lon="11.5434933"><ele>348.28571428571433</ele><time>2026-03-24T15:26:00.933Z</time></trkpt><trkpt lat="43.6562267" lon="11.5433983"><ele>346.8571428571429</ele><time>2026-03-24T15:26:01.93Z</time></trkpt><trkpt lat="43.65624" lon="11.543305"><ele>345.42857142857144</ele><time>2026-03-24T15:26:02.932Z</time></trkpt><trkpt lat="43.6562517" lon="11.5432117"><ele>344.0</ele><time>2026-03-24T15:26:03.932Z</time></trkpt><trkpt lat="43.656265" lon="11.5430417"><ele>344.00000000000006</ele><time>2026-03-24T15:26:05.934Z</time></trkpt><trkpt lat="43.6562533" lon="11.5429517"><ele>344.0</ele><time>2026-03-24T15:26:06.932Z</time></trkpt><trkpt lat="43.6562433" lon="11.5428633"><ele>344.0</ele><time>2026-03-24T15:26:07.933Z</time></trkpt><trkpt lat="43.6562233" lon="11.542775"><ele>344.0</ele><time>2026-03-24T15:26:08.933Z</time></trkpt><trkpt lat="43.6562067" lon="11.5426883"><ele>344.0</ele><time>2026-03-24T15:26:09.932Z</time></trkpt><trkpt lat="43.6561883" lon="11.5425917"><ele>344.00000000000006</ele><time>2026-03-24T15:26:10.934Z</time></trkpt><trkpt lat="43.6561717" lon="11.5424983"><ele>344.0</ele><time>2026-03-24T15:26:11.932Z</time></trkpt><trkpt lat="43.65615" lon="11.5424117"><ele>343.5</ele><time>2026-03-24T15:26:12.934Z</time></trkpt><trkpt lat="43.656125" lon="11.542325"><ele>343.0</ele><time>2026-03-24T15:26:13.933Z</time></trkpt><trkpt lat="43.6560917" lon="11.5422467"><ele>342.5</ele><time>2026-03-24T15:26:14.934Z</time></trkpt><trkpt lat="43.6560417" lon="11.5421867"><ele>342.0</ele><time>2026-03-24T15:26:15.934Z</time></trkpt><trkpt lat="43.6559833" lon="11.54215"><ele>341.5</ele><time>2026-03-24T15:26:16.932Z</time></trkpt><trkpt lat="43.6558667" lon="11.5421367"><ele>341.0</ele><time>2026-03-24T15:26:18.93Z</time></trkpt><trkpt lat="43.6557933" lon="11.542175"><ele>342.57142857142856</ele><time>2026-03-24T15:26:19.932Z</time></trkpt><trkpt lat="43.655725" lon="11.5422183"><ele>344.14285714285717</ele><time>2026-03-24T15:26:20.931Z</time></trkpt><trkpt lat="43.6556683" lon="11.5422867"><ele>345.7142857142857</ele><time>2026-03-24T15:26:21.929Z</time></trkpt><trkpt lat="43.65562" lon="11.54236"><ele>347.2857142857143</ele><time>2026-03-24T15:26:22.931Z</time></trkpt><trkpt lat="43.65558" lon="11.542445"><ele>348.85714285714283</ele><time>2026-03-24T15:26:23.932Z</time></trkpt><trkpt lat="43.6555367" lon="11.5425233"><ele>350.42857142857144</ele><time>2026-03-24T15:26:24.93Z</time></trkpt><trkpt lat="43.6554967" lon="11.542605"><ele>352.0</ele><time>2026-03-24T15:26:25.932Z</time></trkpt><trkpt lat="43.6554517" lon="11.54268"><ele>352.0</ele><time>2026-03-24T15:26:26.931Z</time></trkpt><trkpt lat="43.6554017" lon="11.5427533"><ele>352.0</ele><time>2026-03-24T15:26:27.931Z</time></trkpt><trkpt lat="43.655345" lon="11.5428133"><ele>352.0</ele><time>2026-03-24T15:26:28.93Z</time></trkpt><trkpt lat="43.65528" lon="11.5428567"><ele>352.0</ele><time>2026-03-24T15:26:29.931Z</time></trkpt><trkpt lat="43.6552133" lon="11.5428783"><ele>352.0</ele><time>2026-03-24T15:26:30.931Z</time></trkpt><trkpt lat="43.6551483" lon="11.542885"><ele>352.0</ele><time>2026-03-24T15:26:31.93Z</time></trkpt><trkpt lat="43.6550783" lon="11.5428667"><ele>352.0</ele><time>2026-03-24T15:26:32.931Z</time></trkpt><trkpt lat="43.65501" lon="11.5428633"><ele>351.0</ele><time>2026-03-24T15:26:33.93Z</time></trkpt><trkpt lat="43.65494" lon="11.542865"><ele>350.0</ele><time>2026-03-24T15:26:34.931Z</time></trkpt><trkpt lat="43.6548717" lon="11.5428867"><ele>349.0</ele><time>2026-03-24T15:26:35.932Z</time></trkpt><trkpt lat="43.6548067" lon="11.54292"><ele>348.0</ele><time>2026-03-24T15:26:36.93Z</time></trkpt><trkpt lat="43.654745" lon="11.5429683"><ele>347.0</ele><time>2026-03-24T15:26:37.933Z</time></trkpt><trkpt lat="43.654685" lon="11.54301"><ele>346.0</ele><time>2026-03-24T15:26:38.931Z</time></trkpt><trkpt lat="43.6546317" lon="11.5430633"><ele>345.0</ele><time>2026-03-24T15:26:39.93Z</time></trkpt><trkpt lat="43.65458" lon="11.5431233"><ele>345.0</ele><time>2026-03-24T15:26:40.93Z</time></trkpt><trkpt lat="43.6545283" lon="11.543185"><ele>345.0</ele><time>2026-03-24T15:26:41.933Z</time></trkpt><trkpt lat="43.65448" lon="11.543255"><ele>345.0</ele><time>2026-03-24T15:26:42.933Z</time></trkpt><trkpt lat="43.654435" lon="11.5433233"><ele>345.0</ele><time>2026-03-24T15:26:43.933Z</time></trkpt><trkpt lat="43.6543883" lon="11.543395"><ele>345.0</ele><time>2026-03-24T15:26:44.934Z</time></trkpt><trkpt lat="43.6543533" lon="11.5434717"><ele>345.0</ele><time>2026-03-24T15:26:45.934Z</time></trkpt><trkpt lat="43.65432" lon="11.5435467"><ele>345.0</ele><time>2026-03-24T15:26:46.932Z</time></trkpt><trkpt lat="43.6542617" lon="11.5437017"><ele>346.6</ele><time>2026-03-24T15:26:48.935Z</time></trkpt><trkpt lat="43.6542133" lon="11.54386"><ele>348.2</ele><time>2026-03-24T15:26:50.933Z</time></trkpt><trkpt lat="43.65419" lon="11.5440233"><ele>349.79999999999995</ele><time>2026-03-24T15:26:52.932Z</time></trkpt><trkpt lat="43.6541933" lon="11.5441933"><ele>351.4</ele><time>2026-03-24T15:26:54.932Z</time></trkpt><trkpt lat="43.6542" lon="11.5442833"><ele>353.0</ele><time>2026-03-24T15:26:55.933Z</time></trkpt><trkpt lat="43.6542" lon="11.5443733"><ele>353.0</ele><time>2026-03-24T15:26:56.933Z</time></trkpt><trkpt lat="43.65418" lon="11.54446"><ele>353.0</ele><time>2026-03-24T15:26:57.934Z</time></trkpt><trkpt lat="43.6541383" lon="11.5445333"><ele>353.0</ele><time>2026-03-24T15:26:58.932Z</time></trkpt><trkpt lat="43.6540383" lon="11.54463"><ele>353.0</ele><time>2026-03-24T15:27:00.934Z</time></trkpt><trkpt lat="43.653925" lon="11.5446683"><ele>353.0</ele><time>2026-03-24T15:27:02.933Z</time></trkpt><trkpt lat="43.653815" lon="11.5447183"><ele>355.75</ele><time>2026-03-24T15:27:04.932Z</time></trkpt><trkpt lat="43.6537417" lon="11.5448383"><ele>358.5</ele><time>2026-03-24T15:27:06.933Z</time></trkpt><trkpt lat="43.6537033" lon="11.5449967"><ele>361.25</ele><time>2026-03-24T15:27:08.934Z</time></trkpt><trkpt lat="43.653695" lon="11.5451617"><ele>364.0</ele><time>2026-03-24T15:27:10.933Z</time></trkpt><trkpt lat="43.6536917" lon="11.5453317"><ele>363.79999999999995</ele><time>2026-03-24T15:27:12.933Z</time></trkpt><trkpt lat="43.6536633" lon="11.5454117"><ele>363.59999999999997</ele><time>2026-03-24T15:27:13.933Z</time></trkpt><trkpt lat="43.6535717" lon="11.5455183"><ele>363.4</ele><time>2026-03-24T15:27:15.934Z</time></trkpt><trkpt lat="43.65351" lon="11.5455383"><ele>363.2</ele><time>2026-03-24T15:27:16.935Z</time></trkpt><trkpt lat="43.6533883" lon="11.5455533"><ele>363.0</ele><time>2026-03-24T15:27:18.932Z</time></trkpt><trkpt lat="43.6532683" lon="11.54557"><ele>363.0</ele><time>2026-03-24T15:27:20.932Z</time></trkpt><trkpt lat="43.6531533" lon="11.545615"><ele>363.0</ele><time>2026-03-24T15:27:22.934Z</time></trkpt><trkpt lat="43.6530933" lon="11.5456417"><ele>363.0</ele><time>2026-03-24T15:27:23.932Z</time></trkpt><trkpt lat="43.6529767" lon="11.5456633"><ele>363.0</ele><time>2026-03-24T15:27:25.932Z</time></trkpt><trkpt lat="43.652865" lon="11.5456167"><ele>363.0</ele><time>2026-03-24T15:27:27.932Z</time></trkpt><trkpt lat="43.6527733" lon="11.5455467"><ele>362.2</ele><time>2026-03-24T15:27:29.932Z</time></trkpt><trkpt lat="43.65268" lon="11.5454983"><ele>361.4</ele><time>2026-03-24T15:27:31.932Z</time></trkpt><trkpt lat="43.6525817" lon="11.5454967"><ele>360.59999999999997</ele><time>2026-03-24T15:27:33.932Z</time></trkpt><trkpt lat="43.6524833" lon="11.5455367"><ele>359.79999999999995</ele><time>2026-03-24T15:27:35.932Z</time></trkpt><trkpt lat="43.6523867" lon="11.5455883"><ele>359.0</ele><time>2026-03-24T15:27:37.932Z</time></trkpt><trkpt lat="43.6522983" lon="11.54566"><ele>359.0</ele><time>2026-03-24T15:27:39.931Z</time></trkpt><trkpt lat="43.6522233" lon="11.545745"><ele>359.0</ele><time>2026-03-24T15:27:41.932Z</time></trkpt><trkpt lat="43.6521583" lon="11.5458483"><ele>359.0</ele><time>2026-03-24T15:27:43.932Z</time></trkpt><trkpt lat="43.6521067" lon="11.54596"><ele>359.0</ele><time>2026-03-24T15:27:45.935Z</time></trkpt><trkpt lat="43.652075" lon="11.54608"><ele>359.0</ele><time>2026-03-24T15:27:47.933Z</time></trkpt><trkpt lat="43.6520533" lon="11.5462083"><ele>360.6</ele><time>2026-03-24T15:27:49.933Z</time></trkpt><trkpt lat="43.6520417" lon="11.5463367"><ele>362.2</ele><time>2026-03-24T15:27:51.933Z</time></trkpt><trkpt lat="43.6520433" lon="11.5464583"><ele>363.8</ele><time>2026-03-24T15:27:53.931Z</time></trkpt><trkpt lat="43.6520417" lon="11.5465883"><ele>365.40000000000003</ele><time>2026-03-24T15:27:55.935Z</time></trkpt><trkpt lat="43.6520367" lon="11.546715"><ele>367.0</ele><time>2026-03-24T15:27:57.934Z</time></trkpt><trkpt lat="43.6520183" lon="11.5468433"><ele>367.0</ele><time>2026-03-24T15:27:59.934Z</time></trkpt><trkpt lat="43.6519817" lon="11.5469583"><ele>367.0</ele><time>2026-03-24T15:28:01.933Z</time></trkpt><trkpt lat="43.6519367" lon="11.5470683"><ele>367.0</ele><time>2026-03-24T15:28:03.932Z</time></trkpt><trkpt lat="43.6518967" lon="11.5471817"><ele>367.0</ele><time>2026-03-24T15:28:05.933Z</time></trkpt><trkpt lat="43.6518633" lon="11.5472967"><ele>367.0</ele><time>2026-03-24T15:28:07.932Z</time></trkpt><trkpt lat="43.6518417" lon="11.5474167"><ele>366.6</ele><time>2026-03-24T15:28:09.93Z</time></trkpt><trkpt lat="43.6518183" lon="11.54754"><ele>366.20000000000005</ele><time>2026-03-24T15:28:11.931Z</time></trkpt><trkpt lat="43.6517933" lon="11.5476683"><ele>365.8</ele><time>2026-03-24T15:28:13.931Z</time></trkpt><trkpt lat="43.65176" lon="11.5477967"><ele>365.4</ele><time>2026-03-24T15:28:15.935Z</time></trkpt><trkpt lat="43.6517233" lon="11.5479183"><ele>365.0</ele><time>2026-03-24T15:28:17.933Z</time></trkpt><trkpt lat="43.65166" lon="11.54802"><ele>365.8</ele><time>2026-03-24T15:28:19.932Z</time></trkpt><trkpt lat="43.651585" lon="11.548105"><ele>366.6</ele><time>2026-03-24T15:28:21.931Z</time></trkpt><trkpt lat="43.6515017" lon="11.5481667"><ele>367.4</ele><time>2026-03-24T15:28:23.931Z</time></trkpt><trkpt lat="43.65142" lon="11.5482217"><ele>368.2</ele><time>2026-03-24T15:28:25.932Z</time></trkpt><trkpt lat="43.65137" lon="11.5483217"><ele>369.0</ele><time>2026-03-24T15:28:27.931Z</time></trkpt><trkpt lat="43.6513417" lon="11.5484567"><ele>369.0</ele><time>2026-03-24T15:28:29.932Z</time></trkpt><trkpt lat="43.6513467" lon="11.5486017"><ele>369.0</ele><time>2026-03-24T15:28:31.934Z</time></trkpt><trkpt lat="43.6513683" lon="11.548745"><ele>369.0</ele><time>2026-03-24T15:28:33.933Z</time></trkpt><trkpt lat="43.6514067" lon="11.54889"><ele>369.0</ele><time>2026-03-24T15:28:35.933Z</time></trkpt><trkpt lat="43.6514533" lon="11.5490367"><ele>369.0</ele><time>2026-03-24T15:28:37.934Z</time></trkpt><trkpt lat="43.6515" lon="11.549195"><ele>369.6</ele><time>2026-03-24T15:28:39.934Z</time></trkpt><trkpt lat="43.6515283" lon="11.5492733"><ele>370.2</ele><time>2026-03-24T15:28:40.932Z</time></trkpt><trkpt lat="43.65156" lon="11.5494383"><ele>370.8</ele><time>2026-03-24T15:28:42.933Z</time></trkpt><trkpt lat="43.65154" lon="11.5495917"><ele>371.40000000000003</ele><time>2026-03-24T15:28:44.934Z</time></trkpt><trkpt lat="43.651445" lon="11.5496683"><ele>372.0</ele><time>2026-03-24T15:28:46.931Z</time></trkpt><trkpt lat="43.6513283" lon="11.5496333"><ele>372.6666666666667</ele><time>2026-03-24T15:28:48.93Z</time></trkpt><trkpt lat="43.65121" lon="11.54958"><ele>373.3333333333333</ele><time>2026-03-24T15:28:50.933Z</time></trkpt><trkpt lat="43.6510833" lon="11.54957"><ele>374.0</ele><time>2026-03-24T15:28:52.931Z</time></trkpt><trkpt lat="43.65102" lon="11.549585"><ele>374.66666666666663</ele><time>2026-03-24T15:28:53.931Z</time></trkpt><trkpt lat="43.650955" lon="11.5496033"><ele>375.3333333333333</ele><time>2026-03-24T15:28:54.934Z</time></trkpt><trkpt lat="43.6508883" lon="11.5496183"><ele>376.0</ele><time>2026-03-24T15:28:55.932Z</time></trkpt><trkpt lat="43.6508183" lon="11.5496317"><ele>376.0</ele><time>2026-03-24T15:28:56.932Z</time></trkpt><trkpt lat="43.650745" lon="11.549625"><ele>376.0</ele><time>2026-03-24T15:28:57.932Z</time></trkpt><trkpt lat="43.6506767" lon="11.5496033"><ele>376.0</ele><time>2026-03-24T15:28:58.93Z</time></trkpt><trkpt lat="43.650615" lon="11.5495633"><ele>376.0</ele><time>2026-03-24T15:28:59.932Z</time></trkpt><trkpt lat="43.6505617" lon="11.549515"><ele>376.0</ele><time>2026-03-24T15:29:00.933Z</time></trkpt><trkpt lat="43.6505083" lon="11.5494617"><ele>376.0</ele><time>2026-03-24T15:29:01.932Z</time></trkpt><trkpt lat="43.6504567" lon="11.5494067"><ele>376.0</ele><time>2026-03-24T15:29:02.933Z</time></trkpt><trkpt lat="43.6504017" lon="11.5493617"><ele>374.5</ele><time>2026-03-24T15:29:03.934Z</time></trkpt><trkpt lat="43.6503433" lon="11.5493217"><ele>373.0</ele><time>2026-03-24T15:29:04.934Z</time></trkpt><trkpt lat="43.6502867" lon="11.5492783"><ele>371.5</ele><time>2026-03-24T15:29:05.933Z</time></trkpt><trkpt lat="43.6502283" lon="11.5492367"><ele>370.0</ele><time>2026-03-24T15:29:06.932Z</time></trkpt><trkpt lat="43.65017" lon="11.549195"><ele>368.5</ele><time>2026-03-24T15:29:07.934Z</time></trkpt><trkpt lat="43.65011" lon="11.54916"><ele>367.0</ele><time>2026-03-24T15:29:08.933Z</time></trkpt><trkpt lat="43.6500017" lon="11.549075"><ele>367.0</ele><time>2026-03-24T15:29:10.931Z</time></trkpt><trkpt lat="43.6498917" lon="11.549"><ele>367.0</ele><time>2026-03-24T15:29:12.932Z</time></trkpt><trkpt lat="43.6497783" lon="11.54894"><ele>367.0</ele><time>2026-03-24T15:29:14.931Z</time></trkpt><trkpt lat="43.6496683" lon="11.5488667"><ele>367.0</ele><time>2026-03-24T15:29:16.931Z</time></trkpt><trkpt lat="43.6495517" lon="11.5488067"><ele>366.6</ele><time>2026-03-24T15:29:18.933Z</time></trkpt><trkpt lat="43.6494333" lon="11.5487483"><ele>366.20000000000005</ele><time>2026-03-24T15:29:20.932Z</time></trkpt><trkpt lat="43.6493717" lon="11.548725"><ele>365.8</ele><time>2026-03-24T15:29:21.933Z</time></trkpt><trkpt lat="43.6493083" lon="11.5486983"><ele>365.4</ele><time>2026-03-24T15:29:22.934Z</time></trkpt><trkpt lat="43.6491883" lon="11.5486567"><ele>365.0</ele><time>2026-03-24T15:29:24.933Z</time></trkpt><trkpt lat="43.6490683" lon="11.5486283"><ele>365.0</ele><time>2026-03-24T15:29:26.934Z</time></trkpt><trkpt lat="43.64895" lon="11.548685"><ele>365.0</ele><time>2026-03-24T15:29:28.932Z</time></trkpt><trkpt lat="43.648895" lon="11.5487367"><ele>365.0</ele><time>2026-03-24T15:29:29.934Z</time></trkpt><trkpt lat="43.6488467" lon="11.5487983"><ele>365.0</ele><time>2026-03-24T15:29:30.933Z</time></trkpt><trkpt lat="43.648805" lon="11.5488767"><ele>365.0</ele><time>2026-03-24T15:29:31.933Z</time></trkpt><trkpt lat="43.648765" lon="11.5489567"><ele>365.0</ele><time>2026-03-24T15:29:32.934Z</time></trkpt><trkpt lat="43.648735" lon="11.5490483"><ele>366.0</ele><time>2026-03-24T15:29:33.933Z</time></trkpt><trkpt lat="43.6487083" lon="11.54914"><ele>367.0</ele><time>2026-03-24T15:29:34.933Z</time></trkpt><trkpt lat="43.6486883" lon="11.5492367"><ele>368.0</ele><time>2026-03-24T15:29:35.932Z</time></trkpt><trkpt lat="43.6486717" lon="11.5493383"><ele>369.0</ele><time>2026-03-24T15:29:36.933Z</time></trkpt><trkpt lat="43.6486617" lon="11.549445"><ele>370.0</ele><time>2026-03-24T15:29:37.935Z</time></trkpt><trkpt lat="43.6486533" lon="11.5495517"><ele>371.0</ele><time>2026-03-24T15:29:38.933Z</time></trkpt><trkpt lat="43.6486383" lon="11.5496617"><ele>371.1666666666667</ele><time>2026-03-24T15:29:39.933Z</time></trkpt><trkpt lat="43.64863" lon="11.54977"><ele>371.33333333333337</ele><time>2026-03-24T15:29:40.933Z</time></trkpt><trkpt lat="43.6486233" lon="11.54988"><ele>371.5</ele><time>2026-03-24T15:29:41.935Z</time></trkpt><trkpt lat="43.64863" lon="11.54999"><ele>371.6666666666667</ele><time>2026-03-24T15:29:42.935Z</time></trkpt><trkpt lat="43.6486383" lon="11.5500983"><ele>371.8333333333333</ele><time>2026-03-24T15:29:43.934Z</time></trkpt><trkpt lat="43.6486517" lon="11.5502083"><ele>372.0</ele><time>2026-03-24T15:29:44.933Z</time></trkpt><trkpt lat="43.64867" lon="11.5503183"><ele>372.0</ele><time>2026-03-24T15:29:45.933Z</time></trkpt><trkpt lat="43.6486883" lon="11.5504317"><ele>372.0</ele><time>2026-03-24T15:29:46.935Z</time></trkpt><trkpt lat="43.64871" lon="11.5505433"><ele>372.0</ele><time>2026-03-24T15:29:47.933Z</time></trkpt><trkpt lat="43.648725" lon="11.5506567"><ele>372.0</ele><time>2026-03-24T15:29:48.931Z</time></trkpt><trkpt lat="43.6487467" lon="11.5507683"><ele>372.0</ele><time>2026-03-24T15:29:49.931Z</time></trkpt><trkpt lat="43.648765" lon="11.55088"><ele>372.0</ele><time>2026-03-24T15:29:50.932Z</time></trkpt><trkpt lat="43.64878" lon="11.5509933"><ele>372.0</ele><time>2026-03-24T15:29:51.932Z</time></trkpt><trkpt lat="43.648795" lon="11.5511083"><ele>372.0</ele><time>2026-03-24T15:29:52.931Z</time></trkpt><trkpt lat="43.6488017" lon="11.551225"><ele>372.0</ele><time>2026-03-24T15:29:53.931Z</time></trkpt><trkpt lat="43.6488133" lon="11.5513417"><ele>372.0</ele><time>2026-03-24T15:29:54.934Z</time></trkpt><trkpt lat="43.6488283" lon="11.5514533"><ele>372.0</ele><time>2026-03-24T15:29:55.933Z</time></trkpt><trkpt lat="43.6488533" lon="11.5515667"><ele>372.0</ele><time>2026-03-24T15:29:56.933Z</time></trkpt><trkpt lat="43.648895" lon="11.5516733"><ele>371.20000000000005</ele><time>2026-03-24T15:29:57.933Z</time></trkpt><trkpt lat="43.6489483" lon="11.5517733"><ele>370.4</ele><time>2026-03-24T15:29:58.934Z</time></trkpt><trkpt lat="43.6490083" lon="11.5518717"><ele>369.6</ele><time>2026-03-24T15:29:59.933Z</time></trkpt><trkpt lat="43.649075" lon="11.5519633"><ele>368.79999999999995</ele><time>2026-03-24T15:30:00.935Z</time></trkpt><trkpt lat="43.6491317" lon="11.552065"><ele>368.0</ele><time>2026-03-24T15:30:01.933Z</time></trkpt><trkpt lat="43.6491817" lon="11.5521717"><ele>367.33333333333337</ele><time>2026-03-24T15:30:02.934Z</time></trkpt><trkpt lat="43.6492317" lon="11.5522733"><ele>366.6666666666667</ele><time>2026-03-24T15:30:03.932Z</time></trkpt><trkpt lat="43.6492733" lon="11.552385"><ele>366.0</ele><time>2026-03-24T15:30:04.935Z</time></trkpt><trkpt lat="43.64932" lon="11.5524817"><ele>365.3333333333333</ele><time>2026-03-24T15:30:05.933Z</time></trkpt><trkpt lat="43.6493583" lon="11.5525933"><ele>364.66666666666663</ele><time>2026-03-24T15:30:06.933Z</time></trkpt><trkpt lat="43.6493983" lon="11.5527"><ele>364.0</ele><time>2026-03-24T15:30:07.932Z</time></trkpt><trkpt lat="43.6494333" lon="11.55281"><ele>364.8333333333333</ele><time>2026-03-24T15:30:08.933Z</time></trkpt><trkpt lat="43.649435" lon="11.5529317"><ele>365.66666666666663</ele><time>2026-03-24T15:30:09.932Z</time></trkpt><trkpt lat="43.6494133" lon="11.5530533"><ele>366.5</ele><time>2026-03-24T15:30:10.932Z</time></trkpt><trkpt lat="43.649375" lon="11.5531617"><ele>367.3333333333333</ele><time>2026-03-24T15:30:11.934Z</time></trkpt><trkpt lat="43.6493283" lon="11.5532617"><ele>368.1666666666667</ele><time>2026-03-24T15:30:12.93Z</time></trkpt><trkpt lat="43.649285" lon="11.553355"><ele>369.0</ele><time>2026-03-24T15:30:13.931Z</time></trkpt><trkpt lat="43.6492417" lon="11.5534483"><ele>369.0</ele><time>2026-03-24T15:30:14.931Z</time></trkpt><trkpt lat="43.6491833" lon="11.55352"><ele>369.0</ele><time>2026-03-24T15:30:15.93Z</time></trkpt><trkpt lat="43.649115" lon="11.5535467"><ele>369.0</ele><time>2026-03-24T15:30:16.931Z</time></trkpt><trkpt lat="43.6490433" lon="11.5535333"><ele>369.0</ele><time>2026-03-24T15:30:17.932Z</time></trkpt><trkpt lat="43.64897" lon="11.5534583"><ele>369.0</ele><time>2026-03-24T15:30:18.931Z</time></trkpt><trkpt lat="43.6488983" lon="11.5534167"><ele>369.0</ele><time>2026-03-24T15:30:19.931Z</time></trkpt><trkpt lat="43.6488417" lon="11.5533333"><ele>369.0</ele><time>2026-03-24T15:30:20.932Z</time></trkpt><trkpt lat="43.6487767" lon="11.5532733"><ele>369.0</ele><time>2026-03-24T15:30:21.93Z</time></trkpt><trkpt lat="43.648715" lon="11.55321"><ele>369.0</ele><time>2026-03-24T15:30:22.931Z</time></trkpt><trkpt lat="43.64865" lon="11.5531567"><ele>369.0</ele><time>2026-03-24T15:30:23.931Z</time></trkpt><trkpt lat="43.648585" lon="11.5530983"><ele>369.0</ele><time>2026-03-24T15:30:24.931Z</time></trkpt><trkpt lat="43.6485183" lon="11.5530417"><ele>369.0</ele><time>2026-03-24T15:30:25.932Z</time></trkpt><trkpt lat="43.6484533" lon="11.5529833"><ele>367.6666666666667</ele><time>2026-03-24T15:30:26.932Z</time></trkpt><trkpt lat="43.648385" lon="11.552935"><ele>366.3333333333333</ele><time>2026-03-24T15:30:27.931Z</time></trkpt><trkpt lat="43.64832" lon="11.552875"><ele>365.0</ele><time>2026-03-24T15:30:28.931Z</time></trkpt><trkpt lat="43.6482533" lon="11.552815"><ele>363.66666666666663</ele><time>2026-03-24T15:30:29.931Z</time></trkpt><trkpt lat="43.64819" lon="11.5527567"><ele>362.3333333333333</ele><time>2026-03-24T15:30:30.931Z</time></trkpt><trkpt lat="43.648125" lon="11.5527"><ele>361.0</ele><time>2026-03-24T15:30:31.935Z</time></trkpt><trkpt lat="43.6480617" lon="11.5526383"><ele>361.0</ele><time>2026-03-24T15:30:32.934Z</time></trkpt><trkpt lat="43.647995" lon="11.5525783"><ele>361.0</ele><time>2026-03-24T15:30:33.933Z</time></trkpt><trkpt lat="43.6479333" lon="11.5525133"><ele>361.0</ele><time>2026-03-24T15:30:34.933Z</time></trkpt><trkpt lat="43.6478717" lon="11.5524567"><ele>361.0</ele><time>2026-03-24T15:30:35.933Z</time></trkpt><trkpt lat="43.6478133" lon="11.5523983"><ele>361.0</ele><time>2026-03-24T15:30:36.933Z</time></trkpt><trkpt lat="43.6477517" lon="11.5523433"><ele>361.0</ele><time>2026-03-24T15:30:37.933Z</time></trkpt><trkpt lat="43.6476883" lon="11.552295"><ele>361.0</ele><time>2026-03-24T15:30:38.934Z</time></trkpt><trkpt lat="43.6476283" lon="11.55224"><ele>360.2857142857143</ele><time>2026-03-24T15:30:39.933Z</time></trkpt><trkpt lat="43.64756" lon="11.5522033"><ele>359.57142857142856</ele><time>2026-03-24T15:30:40.933Z</time></trkpt><trkpt lat="43.6474983" lon="11.5521533"><ele>358.85714285714283</ele><time>2026-03-24T15:30:41.933Z</time></trkpt><trkpt lat="43.647435" lon="11.5521083"><ele>358.1428571428571</ele><time>2026-03-24T15:30:42.93Z</time></trkpt><trkpt lat="43.6473667" lon="11.5520683"><ele>357.42857142857144</ele><time>2026-03-24T15:30:43.931Z</time></trkpt><trkpt lat="43.6473067" lon="11.5520183"><ele>356.71428571428567</ele><time>2026-03-24T15:30:44.932Z</time></trkpt><trkpt lat="43.6472483" lon="11.5519567"><ele>356.0</ele><time>2026-03-24T15:30:45.931Z</time></trkpt><trkpt lat="43.6471983" lon="11.55188"><ele>355.99999999999994</ele><time>2026-03-24T15:30:46.931Z</time></trkpt><trkpt lat="43.6471517" lon="11.5518017"><ele>356.0</ele><time>2026-03-24T15:30:47.932Z</time></trkpt><trkpt lat="43.647105" lon="11.5517267"><ele>356.0</ele><time>2026-03-24T15:30:48.93Z</time></trkpt><trkpt lat="43.6470533" lon="11.5516533"><ele>356.0</ele><time>2026-03-24T15:30:49.933Z</time></trkpt><trkpt lat="43.6470067" lon="11.5515717"><ele>356.0</ele><time>2026-03-24T15:30:50.933Z</time></trkpt><trkpt lat="43.6469583" lon="11.5514967"><ele>355.99999999999994</ele><time>2026-03-24T15:30:51.934Z</time></trkpt><trkpt lat="43.6469133" lon="11.5514183"><ele>356.0</ele><time>2026-03-24T15:30:52.933Z</time></trkpt><trkpt lat="43.6468683" lon="11.5513333"><ele>356.6666666666667</ele><time>2026-03-24T15:30:53.935Z</time></trkpt><trkpt lat="43.64682" lon="11.55125"><ele>357.33333333333337</ele><time>2026-03-24T15:30:54.935Z</time></trkpt><trkpt lat="43.646775" lon="11.55116"><ele>358.0</ele><time>2026-03-24T15:30:55.933Z</time></trkpt><trkpt lat="43.6467267" lon="11.5510683"><ele>358.6666666666667</ele><time>2026-03-24T15:30:56.934Z</time></trkpt><trkpt lat="43.64668" lon="11.55097"><ele>359.3333333333333</ele><time>2026-03-24T15:30:57.934Z</time></trkpt><trkpt lat="43.6466283" lon="11.550875"><ele>360.0</ele><time>2026-03-24T15:30:58.932Z</time></trkpt><trkpt lat="43.6465783" lon="11.5507733"><ele>360.0</ele><time>2026-03-24T15:30:59.934Z</time></trkpt><trkpt lat="43.646525" lon="11.5506683"><ele>360.0</ele><time>2026-03-24T15:31:00.934Z</time></trkpt><trkpt lat="43.6464683" lon="11.550565"><ele>360.0</ele><time>2026-03-24T15:31:01.933Z</time></trkpt><trkpt lat="43.646415" lon="11.550455"><ele>360.0</ele><time>2026-03-24T15:31:02.934Z</time></trkpt><trkpt lat="43.6463517" lon="11.550355"><ele>360.0</ele><time>2026-03-24T15:31:03.932Z</time></trkpt><trkpt lat="43.6462917" lon="11.5502467"><ele>360.0</ele><time>2026-03-24T15:31:04.933Z</time></trkpt><trkpt lat="43.6462333" lon="11.5501283"><ele>360.0</ele><time>2026-03-24T15:31:05.933Z</time></trkpt><trkpt lat="43.6461817" lon="11.5500067"><ele>360.0</ele><time>2026-03-24T15:31:06.935Z</time></trkpt><trkpt lat="43.6461283" lon="11.5498833"><ele>360.0</ele><time>2026-03-24T15:31:07.933Z</time></trkpt><trkpt lat="43.6461033" lon="11.5497433"><ele>360.0</ele><time>2026-03-24T15:31:08.935Z</time></trkpt><trkpt lat="43.646095" lon="11.549595"><ele>358.6</ele><time>2026-03-24T15:31:09.934Z</time></trkpt><trkpt lat="43.6460917" lon="11.549445"><ele>357.2</ele><time>2026-03-24T15:31:10.933Z</time></trkpt><trkpt lat="43.646075" lon="11.549295"><ele>355.79999999999995</ele><time>2026-03-24T15:31:11.933Z</time></trkpt><trkpt lat="43.64603" lon="11.5491567"><ele>354.4</ele><time>2026-03-24T15:31:12.934Z</time></trkpt><trkpt lat="43.6459633" lon="11.5490317"><ele>353.0</ele><time>2026-03-24T15:31:13.934Z</time></trkpt><trkpt lat="43.64588" lon="11.5489233"><ele>353.0</ele><time>2026-03-24T15:31:14.934Z</time></trkpt><trkpt lat="43.6457833" lon="11.5488333"><ele>353.0</ele><time>2026-03-24T15:31:15.935Z</time></trkpt><trkpt lat="43.645685" lon="11.5487433"><ele>353.0</ele><time>2026-03-24T15:31:16.936Z</time></trkpt><trkpt lat="43.6455967" lon="11.5486433"><ele>353.0</ele><time>2026-03-24T15:31:17.935Z</time></trkpt><trkpt lat="43.6455067" lon="11.5485517"><ele>352.0</ele><time>2026-03-24T15:31:18.933Z</time></trkpt><trkpt lat="43.6454117" lon="11.5484633"><ele>351.0</ele><time>2026-03-24T15:31:19.935Z</time></trkpt><trkpt lat="43.6453217" lon="11.5483667"><ele>350.0</ele><time>2026-03-24T15:31:20.932Z</time></trkpt><trkpt lat="43.645235" lon="11.548265"><ele>349.0</ele><time>2026-03-24T15:31:21.933Z</time></trkpt><trkpt lat="43.6451333" lon="11.5481867"><ele>349.0</ele><time>2026-03-24T15:31:22.932Z</time></trkpt><trkpt lat="43.6450417" lon="11.548095"><ele>349.0</ele><time>2026-03-24T15:31:23.933Z</time></trkpt><trkpt lat="43.644955" lon="11.548005"><ele>349.0</ele><time>2026-03-24T15:31:24.931Z</time></trkpt><trkpt lat="43.64487" lon="11.54793"><ele>349.0</ele><time>2026-03-24T15:31:25.931Z</time></trkpt><trkpt lat="43.6447967" lon="11.5478567"><ele>349.0</ele><time>2026-03-24T15:31:26.931Z</time></trkpt><trkpt lat="43.6447283" lon="11.5477933"><ele>348.3333333333333</ele><time>2026-03-24T15:31:27.931Z</time></trkpt><trkpt lat="43.6446683" lon="11.5477417"><ele>347.66666666666663</ele><time>2026-03-24T15:31:28.931Z</time></trkpt><trkpt lat="43.644615" lon="11.5476867"><ele>347.0</ele><time>2026-03-24T15:31:29.931Z</time></trkpt><trkpt lat="43.6445183" lon="11.5475983"><ele>346.3333333333333</ele><time>2026-03-24T15:31:31.933Z</time></trkpt><trkpt lat="43.6444167" lon="11.5475783"><ele>345.6666666666667</ele><time>2026-03-24T15:31:33.93Z</time></trkpt><trkpt lat="43.6443633" lon="11.5476267"><ele>345.0</ele><time>2026-03-24T15:31:34.931Z</time></trkpt><trkpt lat="43.6443133" lon="11.5476867"><ele>345.0</ele><time>2026-03-24T15:31:35.931Z</time></trkpt><trkpt lat="43.6442783" lon="11.547785"><ele>345.0</ele><time>2026-03-24T15:31:36.931Z</time></trkpt><trkpt lat="43.6442283" lon="11.5478617"><ele>345.0</ele><time>2026-03-24T15:31:37.933Z</time></trkpt><trkpt lat="43.644175" lon="11.5479417"><ele>345.0</ele><time>2026-03-24T15:31:38.932Z</time></trkpt><trkpt lat="43.6441283" lon="11.5480417"><ele>345.0</ele><time>2026-03-24T15:31:39.93Z</time></trkpt><trkpt lat="43.6440583" lon="11.548125"><ele>345.0</ele><time>2026-03-24T15:31:40.931Z</time></trkpt><trkpt lat="43.6440067" lon="11.5482367"><ele>345.6</ele><time>2026-03-24T15:31:41.931Z</time></trkpt><trkpt lat="43.643945" lon="11.5483433"><ele>346.2</ele><time>2026-03-24T15:31:42.931Z</time></trkpt><trkpt lat="43.643875" lon="11.5484433"><ele>346.79999999999995</ele><time>2026-03-24T15:31:43.933Z</time></trkpt><trkpt lat="43.6438117" lon="11.5485533"><ele>347.4</ele><time>2026-03-24T15:31:44.932Z</time></trkpt><trkpt lat="43.6437583" lon="11.54867"><ele>348.0</ele><time>2026-03-24T15:31:45.93Z</time></trkpt><trkpt lat="43.6437" lon="11.5487833"><ele>348.0</ele><time>2026-03-24T15:31:46.931Z</time></trkpt><trkpt lat="43.6436467" lon="11.5489017"><ele>348.0</ele><time>2026-03-24T15:31:47.933Z</time></trkpt><trkpt lat="43.643595" lon="11.5490233"><ele>348.0</ele><time>2026-03-24T15:31:48.933Z</time></trkpt><trkpt lat="43.6435533" lon="11.549145"><ele>348.0</ele><time>2026-03-24T15:31:49.934Z</time></trkpt><trkpt lat="43.6435117" lon="11.5492667"><ele>348.0</ele><time>2026-03-24T15:31:50.933Z</time></trkpt><trkpt lat="43.6434783" lon="11.549395"><ele>347.0</ele><time>2026-03-24T15:31:51.933Z</time></trkpt><trkpt lat="43.6434333" lon="11.54952"><ele>346.0</ele><time>2026-03-24T15:31:52.933Z</time></trkpt><trkpt lat="43.6433967" lon="11.5496517"><ele>345.0</ele><time>2026-03-24T15:31:53.935Z</time></trkpt><trkpt lat="43.6433583" lon="11.5497767"><ele>344.0</ele><time>2026-03-24T15:31:54.933Z</time></trkpt><trkpt lat="43.64332" lon="11.5499033"><ele>343.0</ele><time>2026-03-24T15:31:55.934Z</time></trkpt><trkpt lat="43.6432883" lon="11.5500317"><ele>342.79999999999995</ele><time>2026-03-24T15:31:56.933Z</time></trkpt><trkpt lat="43.643255" lon="11.550165"><ele>342.6</ele><time>2026-03-24T15:31:57.933Z</time></trkpt><trkpt lat="43.6432233" lon="11.5502983"><ele>342.4</ele><time>2026-03-24T15:31:58.935Z</time></trkpt><trkpt lat="43.6431917" lon="11.5504317"><ele>342.20000000000005</ele><time>2026-03-24T15:31:59.933Z</time></trkpt><trkpt lat="43.64315" lon="11.550555"><ele>342.0</ele><time>2026-03-24T15:32:00.935Z</time></trkpt><trkpt lat="43.643095" lon="11.5506717"><ele>342.0</ele><time>2026-03-24T15:32:01.936Z</time></trkpt><trkpt lat="43.6430417" lon="11.550775"><ele>342.0</ele><time>2026-03-24T15:32:02.933Z</time></trkpt><trkpt lat="43.6429767" lon="11.5508683"><ele>342.0</ele><time>2026-03-24T15:32:03.933Z</time></trkpt><trkpt lat="43.642915" lon="11.5509617"><ele>342.0</ele><time>2026-03-24T15:32:04.933Z</time></trkpt><trkpt lat="43.6428483" lon="11.5510483"><ele>342.0</ele><time>2026-03-24T15:32:05.933Z</time></trkpt><trkpt lat="43.6427933" lon="11.55114"><ele>341.8333333333333</ele><time>2026-03-24T15:32:06.935Z</time></trkpt><trkpt lat="43.6427367" lon="11.5512317"><ele>341.6666666666667</ele><time>2026-03-24T15:32:07.933Z</time></trkpt><trkpt lat="43.6426817" lon="11.5513233"><ele>341.5</ele><time>2026-03-24T15:32:08.934Z</time></trkpt><trkpt lat="43.6426283" lon="11.5514133"><ele>341.33333333333337</ele><time>2026-03-24T15:32:09.932Z</time></trkpt><trkpt lat="43.6425733" lon="11.551505"><ele>341.1666666666667</ele><time>2026-03-24T15:32:10.932Z</time></trkpt><trkpt lat="43.6425183" lon="11.5515917"><ele>341.0</ele><time>2026-03-24T15:32:11.933Z</time></trkpt><trkpt lat="43.6424717" lon="11.5516867"><ele>341.0</ele><time>2026-03-24T15:32:12.935Z</time></trkpt><trkpt lat="43.6424267" lon="11.551785"><ele>341.0</ele><time>2026-03-24T15:32:13.933Z</time></trkpt><trkpt lat="43.6424" lon="11.551895"><ele>341.0</ele><time>2026-03-24T15:32:14.934Z</time></trkpt><trkpt lat="43.6423783" lon="11.55201"><ele>341.0</ele><time>2026-03-24T15:32:15.933Z</time></trkpt><trkpt lat="43.6423633" lon="11.5521317"><ele>341.0</ele><time>2026-03-24T15:32:16.935Z</time></trkpt><trkpt lat="43.64236" lon="11.552255"><ele>341.0</ele><time>2026-03-24T15:32:17.933Z</time></trkpt><trkpt lat="43.6423583" lon="11.55238"><ele>340.6666666666667</ele><time>2026-03-24T15:32:18.934Z</time></trkpt><trkpt lat="43.6423467" lon="11.552505"><ele>340.33333333333337</ele><time>2026-03-24T15:32:19.935Z</time></trkpt><trkpt lat="43.6423367" lon="11.55263"><ele>340.0</ele><time>2026-03-24T15:32:20.935Z</time></trkpt><trkpt lat="43.6423167" lon="11.55275"><ele>339.6666666666667</ele><time>2026-03-24T15:32:21.933Z</time></trkpt><trkpt lat="43.6422883" lon="11.5528533"><ele>339.3333333333333</ele><time>2026-03-24T15:32:22.934Z</time></trkpt><trkpt lat="43.6422417" lon="11.55293"><ele>339.0</ele><time>2026-03-24T15:32:23.935Z</time></trkpt><trkpt lat="43.6421683" lon="11.5529717"><ele>338.3333333333333</ele><time>2026-03-24T15:32:24.933Z</time></trkpt><trkpt lat="43.6420817" lon="11.55296"><ele>337.6666666666667</ele><time>2026-03-24T15:32:25.934Z</time></trkpt><trkpt lat="43.6419967" lon="11.552915"><ele>337.0</ele><time>2026-03-24T15:32:26.935Z</time></trkpt><trkpt lat="43.6419167" lon="11.55288"><ele>336.33333333333337</ele><time>2026-03-24T15:32:27.935Z</time></trkpt><trkpt lat="43.6418317" lon="11.5528567"><ele>335.6666666666667</ele><time>2026-03-24T15:32:28.932Z</time></trkpt><trkpt lat="43.6417417" lon="11.5528683"><ele>335.0</ele><time>2026-03-24T15:32:29.934Z</time></trkpt><trkpt lat="43.6416533" lon="11.5529"><ele>335.0</ele><time>2026-03-24T15:32:30.933Z</time></trkpt><trkpt lat="43.6415683" lon="11.5529583"><ele>335.0</ele><time>2026-03-24T15:32:31.933Z</time></trkpt><trkpt lat="43.6414867" lon="11.553025"><ele>335.0</ele><time>2026-03-24T15:32:32.933Z</time></trkpt><trkpt lat="43.6414083" lon="11.553095"><ele>335.0</ele><time>2026-03-24T15:32:33.934Z</time></trkpt><trkpt lat="43.6413283" lon="11.5531567"><ele>335.0</ele><time>2026-03-24T15:32:34.932Z</time></trkpt><trkpt lat="43.64125" lon="11.55322"><ele>335.0</ele><time>2026-03-24T15:32:35.932Z</time></trkpt><trkpt lat="43.6411867" lon="11.553305"><ele>335.0</ele><time>2026-03-24T15:32:36.931Z</time></trkpt><trkpt lat="43.64115" lon="11.553415"><ele>335.0</ele><time>2026-03-24T15:32:37.933Z</time></trkpt><trkpt lat="43.6411333" lon="11.5535317"><ele>335.0</ele><time>2026-03-24T15:32:38.934Z</time></trkpt><trkpt lat="43.6411317" lon="11.5536517"><ele>335.0</ele><time>2026-03-24T15:32:39.932Z</time></trkpt><trkpt lat="43.6411433" lon="11.5537683"><ele>335.0</ele><time>2026-03-24T15:32:40.933Z</time></trkpt><trkpt lat="43.6411767" lon="11.5538833"><ele>335.1666666666667</ele><time>2026-03-24T15:32:41.934Z</time></trkpt><trkpt lat="43.6412033" lon="11.554"><ele>335.33333333333337</ele><time>2026-03-24T15:32:42.935Z</time></trkpt><trkpt lat="43.64123" lon="11.5541133"><ele>335.5</ele><time>2026-03-24T15:32:43.935Z</time></trkpt><trkpt lat="43.6412283" lon="11.5542367"><ele>335.6666666666667</ele><time>2026-03-24T15:32:44.934Z</time></trkpt><trkpt lat="43.6411967" lon="11.5543517"><ele>335.8333333333333</ele><time>2026-03-24T15:32:45.934Z</time></trkpt><trkpt lat="43.6411417" lon="11.5544367"><ele>336.0</ele><time>2026-03-24T15:32:46.934Z</time></trkpt><trkpt lat="43.6410633" lon="11.5544883"><ele>335.0</ele><time>2026-03-24T15:32:47.933Z</time></trkpt><trkpt lat="43.6409817" lon="11.5545167"><ele>334.0</ele><time>2026-03-24T15:32:48.935Z</time></trkpt><trkpt lat="43.6408917" lon="11.5545283"><ele>333.0</ele><time>2026-03-24T15:32:49.935Z</time></trkpt><trkpt lat="43.6408033" lon="11.5545583"><ele>332.0</ele><time>2026-03-24T15:32:50.933Z</time></trkpt><trkpt lat="43.640725" lon="11.55462"><ele>331.0</ele><time>2026-03-24T15:32:51.932Z</time></trkpt><trkpt lat="43.6406633" lon="11.5547083"><ele>330.0</ele><time>2026-03-24T15:32:52.932Z</time></trkpt><trkpt lat="43.6406183" lon="11.5548067"><ele>330.0</ele><time>2026-03-24T15:32:53.932Z</time></trkpt><trkpt lat="43.6405917" lon="11.554915"><ele>330.0</ele><time>2026-03-24T15:32:54.933Z</time></trkpt><trkpt lat="43.6405933" lon="11.5550317"><ele>330.0</ele><time>2026-03-24T15:32:55.935Z</time></trkpt><trkpt lat="43.640605" lon="11.55515"><ele>330.0</ele><time>2026-03-24T15:32:56.933Z</time></trkpt><trkpt lat="43.6406167" lon="11.5552733"><ele>330.0</ele><time>2026-03-24T15:32:57.934Z</time></trkpt><trkpt lat="43.640625" lon="11.5554017"><ele>330.0</ele><time>2026-03-24T15:32:58.933Z</time></trkpt><trkpt lat="43.64063" lon="11.5555333"><ele>329.6666666666667</ele><time>2026-03-24T15:32:59.935Z</time></trkpt><trkpt lat="43.6406333" lon="11.555665"><ele>329.3333333333333</ele><time>2026-03-24T15:33:00.935Z</time></trkpt><trkpt lat="43.6406267" lon="11.5557883"><ele>329.0</ele><time>2026-03-24T15:33:01.934Z</time></trkpt><trkpt lat="43.6405967" lon="11.555895"><ele>328.66666666666663</ele><time>2026-03-24T15:33:02.933Z</time></trkpt><trkpt lat="43.6405433" lon="11.5559833"><ele>328.3333333333333</ele><time>2026-03-24T15:33:03.932Z</time></trkpt><trkpt lat="43.6404667" lon="11.5560333"><ele>328.0</ele><time>2026-03-24T15:33:04.934Z</time></trkpt><trkpt lat="43.640365" lon="11.556015"><ele>327.2</ele><time>2026-03-24T15:33:05.933Z</time></trkpt><trkpt lat="43.6402817" lon="11.5559783"><ele>326.4</ele><time>2026-03-24T15:33:06.933Z</time></trkpt><trkpt lat="43.640195" lon="11.5559583"><ele>325.59999999999997</ele><time>2026-03-24T15:33:07.933Z</time></trkpt><trkpt lat="43.6400983" lon="11.555915"><ele>324.79999999999995</ele><time>2026-03-24T15:33:08.933Z</time></trkpt><trkpt lat="43.6400017" lon="11.5558683"><ele>324.0</ele><time>2026-03-24T15:33:09.934Z</time></trkpt><trkpt lat="43.6399017" lon="11.5558333"><ele>324.0</ele><time>2026-03-24T15:33:10.933Z</time></trkpt><trkpt lat="43.6398" lon="11.5558017"><ele>324.0</ele><time>2026-03-24T15:33:11.932Z</time></trkpt><trkpt lat="43.639695" lon="11.5557683"><ele>324.0</ele><time>2026-03-24T15:33:12.933Z</time></trkpt><trkpt lat="43.6395867" lon="11.5557317"><ele>324.0</ele><time>2026-03-24T15:33:13.932Z</time></trkpt><trkpt lat="43.6394783" lon="11.555705"><ele>324.0</ele><time>2026-03-24T15:33:14.935Z</time></trkpt><trkpt lat="43.6393683" lon="11.5556817"><ele>323.0</ele><time>2026-03-24T15:33:15.933Z</time></trkpt><trkpt lat="43.6392567" lon="11.5556683"><ele>322.0</ele><time>2026-03-24T15:33:16.933Z</time></trkpt><trkpt lat="43.6391467" lon="11.5556633"><ele>321.0</ele><time>2026-03-24T15:33:17.932Z</time></trkpt><trkpt lat="43.6390367" lon="11.555675"><ele>320.0</ele><time>2026-03-24T15:33:18.935Z</time></trkpt><trkpt lat="43.6389283" lon="11.5557183"><ele>319.0</ele><time>2026-03-24T15:33:19.933Z</time></trkpt><trkpt lat="43.6388217" lon="11.5557767"><ele>319.0</ele><time>2026-03-24T15:33:20.933Z</time></trkpt><trkpt lat="43.6387117" lon="11.555835"><ele>319.0</ele><time>2026-03-24T15:33:21.934Z</time></trkpt><trkpt lat="43.638605" lon="11.5558833"><ele>319.0</ele><time>2026-03-24T15:33:22.932Z</time></trkpt><trkpt lat="43.6385083" lon="11.555925"><ele>319.0</ele><time>2026-03-24T15:33:23.932Z</time></trkpt><trkpt lat="43.6384233" lon="11.5559667"><ele>319.0</ele><time>2026-03-24T15:33:24.933Z</time></trkpt><trkpt lat="43.638345" lon="11.55601"><ele>318.2</ele><time>2026-03-24T15:33:25.935Z</time></trkpt><trkpt lat="43.6382767" lon="11.5560767"><ele>317.4</ele><time>2026-03-24T15:33:26.935Z</time></trkpt><trkpt lat="43.6382233" lon="11.5561783"><ele>316.6</ele><time>2026-03-24T15:33:27.933Z</time></trkpt><trkpt lat="43.6381917" lon="11.5563"><ele>315.8</ele><time>2026-03-24T15:33:28.932Z</time></trkpt><trkpt lat="43.6381883" lon="11.5564317"><ele>315.0</ele><time>2026-03-24T15:33:29.933Z</time></trkpt><trkpt lat="43.6382" lon="11.5565683"><ele>314.8</ele><time>2026-03-24T15:33:30.934Z</time></trkpt><trkpt lat="43.6382167" lon="11.5567083"><ele>314.6</ele><time>2026-03-24T15:33:31.935Z</time></trkpt><trkpt lat="43.6382083" lon="11.5568417"><ele>314.4</ele><time>2026-03-24T15:33:32.933Z</time></trkpt><trkpt lat="43.6381733" lon="11.5569567"><ele>314.2</ele><time>2026-03-24T15:33:33.933Z</time></trkpt><trkpt lat="43.63812" lon="11.5570517"><ele>314.0</ele><time>2026-03-24T15:33:34.933Z</time></trkpt><trkpt lat="43.6380533" lon="11.5571183"><ele>313.59999999999997</ele><time>2026-03-24T15:33:35.935Z</time></trkpt><trkpt lat="43.6379617" lon="11.5571267"><ele>313.2</ele><time>2026-03-24T15:33:36.933Z</time></trkpt><trkpt lat="43.6378733" lon="11.5570833"><ele>312.79999999999995</ele><time>2026-03-24T15:33:37.934Z</time></trkpt><trkpt lat="43.637795" lon="11.55701"><ele>312.4</ele><time>2026-03-24T15:33:38.936Z</time></trkpt><trkpt lat="43.6377167" lon="11.55693"><ele>312.0</ele><time>2026-03-24T15:33:39.931Z</time></trkpt><trkpt lat="43.6376333" lon="11.5568533"><ele>312.0</ele><time>2026-03-24T15:33:40.931Z</time></trkpt><trkpt lat="43.637545" lon="11.55678"><ele>312.0</ele><time>2026-03-24T15:33:41.931Z</time></trkpt><trkpt lat="43.637455" lon="11.556715"><ele>312.0</ele><time>2026-03-24T15:33:42.932Z</time></trkpt><trkpt lat="43.6373633" lon="11.5566517"><ele>312.0</ele><time>2026-03-24T15:33:43.933Z</time></trkpt><trkpt lat="43.6372733" lon="11.5565917"><ele>312.0</ele><time>2026-03-24T15:33:44.932Z</time></trkpt><trkpt lat="43.63718" lon="11.5565433"><ele>312.0</ele><time>2026-03-24T15:33:45.93Z</time></trkpt><trkpt lat="43.6370883" lon="11.5565067"><ele>312.0</ele><time>2026-03-24T15:33:46.933Z</time></trkpt><trkpt lat="43.636995" lon="11.5564967"><ele>312.0</ele><time>2026-03-24T15:33:47.932Z</time></trkpt><trkpt lat="43.6369033" lon="11.5565017"><ele>312.0</ele><time>2026-03-24T15:33:48.932Z</time></trkpt><trkpt lat="43.6368117" lon="11.55653"><ele>312.0</ele><time>2026-03-24T15:33:49.931Z</time></trkpt><trkpt lat="43.6367267" lon="11.55658"><ele>311.5</ele><time>2026-03-24T15:33:50.934Z</time></trkpt><trkpt lat="43.63665" lon="11.556645"><ele>311.0</ele><time>2026-03-24T15:33:51.931Z</time></trkpt><trkpt lat="43.636585" lon="11.55672"><ele>310.5</ele><time>2026-03-24T15:33:52.931Z</time></trkpt><trkpt lat="43.636525" lon="11.5568"><ele>310.0</ele><time>2026-03-24T15:33:53.932Z</time></trkpt><trkpt lat="43.636465" lon="11.55688"><ele>309.5</ele><time>2026-03-24T15:33:54.932Z</time></trkpt><trkpt lat="43.6364" lon="11.5569567"><ele>309.0</ele><time>2026-03-24T15:33:55.935Z</time></trkpt><trkpt lat="43.6363383" lon="11.557035"><ele>309.3333333333333</ele><time>2026-03-24T15:33:56.933Z</time></trkpt><trkpt lat="43.636275" lon="11.5571117"><ele>309.6666666666667</ele><time>2026-03-24T15:33:57.932Z</time></trkpt><trkpt lat="43.6362117" lon="11.55719"><ele>310.0</ele><time>2026-03-24T15:33:58.936Z</time></trkpt><trkpt lat="43.6361483" lon="11.5572683"><ele>310.33333333333337</ele><time>2026-03-24T15:33:59.932Z</time></trkpt><trkpt lat="43.6360867" lon="11.5573417"><ele>310.6666666666667</ele><time>2026-03-24T15:34:00.932Z</time></trkpt><trkpt lat="43.636025" lon="11.5574133"><ele>311.0</ele><time>2026-03-24T15:34:01.934Z</time></trkpt><trkpt lat="43.635965" lon="11.5574833"><ele>311.0</ele><time>2026-03-24T15:34:02.933Z</time></trkpt><trkpt lat="43.63591" lon="11.557555"><ele>311.0</ele><time>2026-03-24T15:34:03.932Z</time></trkpt><trkpt lat="43.6358667" lon="11.5576367"><ele>311.0</ele><time>2026-03-24T15:34:04.933Z</time></trkpt><trkpt lat="43.635835" lon="11.55773"><ele>311.0</ele><time>2026-03-24T15:34:05.933Z</time></trkpt><trkpt lat="43.635825" lon="11.5578317"><ele>311.0</ele><time>2026-03-24T15:34:06.934Z</time></trkpt><trkpt lat="43.6358267" lon="11.557935"><ele>311.0</ele><time>2026-03-24T15:34:07.933Z</time></trkpt><trkpt lat="43.63584" lon="11.55804"><ele>311.4285714285714</ele><time>2026-03-24T15:34:08.934Z</time></trkpt><trkpt lat="43.6358483" lon="11.5581433"><ele>311.8571428571429</ele><time>2026-03-24T15:34:09.935Z</time></trkpt><trkpt lat="43.6358567" lon="11.5582483"><ele>312.2857142857143</ele><time>2026-03-24T15:34:10.933Z</time></trkpt><trkpt lat="43.6358567" lon="11.5583483"><ele>312.71428571428567</ele><time>2026-03-24T15:34:11.933Z</time></trkpt><trkpt lat="43.63584" lon="11.5584467"><ele>313.1428571428571</ele><time>2026-03-24T15:34:12.934Z</time></trkpt><trkpt lat="43.635805" lon="11.5585317"><ele>313.57142857142856</ele><time>2026-03-24T15:34:13.934Z</time></trkpt><trkpt lat="43.635755" lon="11.55859"><ele>314.0</ele><time>2026-03-24T15:34:14.932Z</time></trkpt><trkpt lat="43.6356267" lon="11.5585817"><ele>313.99999999999994</ele><time>2026-03-24T15:34:16.934Z</time></trkpt><trkpt lat="43.6355683" lon="11.5585283"><ele>314.0</ele><time>2026-03-24T15:34:17.932Z</time></trkpt><trkpt lat="43.6355133" lon="11.5584683"><ele>314.0</ele><time>2026-03-24T15:34:18.933Z</time></trkpt><trkpt lat="43.6354567" lon="11.5584067"><ele>314.0</ele><time>2026-03-24T15:34:19.932Z</time></trkpt><trkpt lat="43.6353983" lon="11.5583533"><ele>314.0</ele><time>2026-03-24T15:34:20.933Z</time></trkpt><trkpt lat="43.635335" lon="11.5583067"><ele>313.99999999999994</ele><time>2026-03-24T15:34:21.933Z</time></trkpt><trkpt lat="43.6352667" lon="11.5582783"><ele>314.0</ele><time>2026-03-24T15:34:22.931Z</time></trkpt><trkpt lat="43.6351967" lon="11.558265"><ele>313.71428571428567</ele><time>2026-03-24T15:34:23.934Z</time></trkpt><trkpt lat="43.6351267" lon="11.5582767"><ele>313.42857142857144</ele><time>2026-03-24T15:34:24.932Z</time></trkpt><trkpt lat="43.6350583" lon="11.5583083"><ele>313.1428571428571</ele><time>2026-03-24T15:34:25.933Z</time></trkpt><trkpt lat="43.6350017" lon="11.5583633"><ele>312.85714285714283</ele><time>2026-03-24T15:34:26.934Z</time></trkpt><trkpt lat="43.6349517" lon="11.5584333"><ele>312.57142857142856</ele><time>2026-03-24T15:34:27.932Z</time></trkpt><trkpt lat="43.6349067" lon="11.5585083"><ele>312.2857142857143</ele><time>2026-03-24T15:34:28.931Z</time></trkpt><trkpt lat="43.6348633" lon="11.55859"><ele>312.0</ele><time>2026-03-24T15:34:29.932Z</time></trkpt><trkpt lat="43.63482" lon="11.5586717"><ele>312.8333333333333</ele><time>2026-03-24T15:34:30.932Z</time></trkpt><trkpt lat="43.634775" lon="11.5587567"><ele>313.6666666666667</ele><time>2026-03-24T15:34:31.933Z</time></trkpt><trkpt lat="43.63473" lon="11.5588433"><ele>314.5</ele><time>2026-03-24T15:34:32.934Z</time></trkpt><trkpt lat="43.634685" lon="11.5589317"><ele>315.33333333333337</ele><time>2026-03-24T15:34:33.933Z</time></trkpt><trkpt lat="43.6346417" lon="11.5590217"><ele>316.1666666666667</ele><time>2026-03-24T15:34:34.935Z</time></trkpt><trkpt lat="43.634595" lon="11.5591133"><ele>317.0</ele><time>2026-03-24T15:34:35.932Z</time></trkpt><trkpt lat="43.63455" lon="11.559205"><ele>317.0</ele><time>2026-03-24T15:34:36.932Z</time></trkpt><trkpt lat="43.6345017" lon="11.559295"><ele>317.0</ele><time>2026-03-24T15:34:37.932Z</time></trkpt><trkpt lat="43.6344567" lon="11.559385"><ele>317.0</ele><time>2026-03-24T15:34:38.933Z</time></trkpt><trkpt lat="43.634415" lon="11.55948"><ele>317.0</ele><time>2026-03-24T15:34:39.932Z</time></trkpt><trkpt lat="43.6343733" lon="11.559575"><ele>317.0</ele><time>2026-03-24T15:34:40.933Z</time></trkpt><trkpt lat="43.6343283" lon="11.5596683"><ele>317.0</ele><time>2026-03-24T15:34:41.932Z</time></trkpt><trkpt lat="43.6342817" lon="11.559765"><ele>316.1666666666667</ele><time>2026-03-24T15:34:42.934Z</time></trkpt><trkpt lat="43.634235" lon="11.559865"><ele>315.33333333333337</ele><time>2026-03-24T15:34:43.934Z</time></trkpt><trkpt lat="43.6341917" lon="11.5599633"><ele>314.5</ele><time>2026-03-24T15:34:44.934Z</time></trkpt><trkpt lat="43.6341483" lon="11.5600617"><ele>313.6666666666667</ele><time>2026-03-24T15:34:45.932Z</time></trkpt><trkpt lat="43.634095" lon="11.5601533"><ele>312.8333333333333</ele><time>2026-03-24T15:34:46.931Z</time></trkpt><trkpt lat="43.6340317" lon="11.5602317"><ele>312.0</ele><time>2026-03-24T15:34:47.933Z</time></trkpt><trkpt lat="43.6339583" lon="11.560285"><ele>312.0</ele><time>2026-03-24T15:34:48.932Z</time></trkpt><trkpt lat="43.63388" lon="11.5603133"><ele>312.0</ele><time>2026-03-24T15:34:49.934Z</time></trkpt><trkpt lat="43.633805" lon="11.5602917"><ele>312.0</ele><time>2026-03-24T15:34:50.932Z</time></trkpt><trkpt lat="43.6337383" lon="11.5602333"><ele>312.0</ele><time>2026-03-24T15:34:51.932Z</time></trkpt><trkpt lat="43.6336867" lon="11.5601533"><ele>312.0</ele><time>2026-03-24T15:34:52.933Z</time></trkpt><trkpt lat="43.63364" lon="11.5600617"><ele>312.0</ele><time>2026-03-24T15:34:53.933Z</time></trkpt><trkpt lat="43.6335917" lon="11.5599667"><ele>311.5</ele><time>2026-03-24T15:34:54.934Z</time></trkpt><trkpt lat="43.63354" lon="11.55987"><ele>311.0</ele><time>2026-03-24T15:34:55.935Z</time></trkpt><trkpt lat="43.6334833" lon="11.5597717"><ele>310.5</ele><time>2026-03-24T15:34:56.935Z</time></trkpt><trkpt lat="43.6334283" lon="11.559675"><ele>310.0</ele><time>2026-03-24T15:34:57.936Z</time></trkpt><trkpt lat="43.6333717" lon="11.5595767"><ele>309.5</ele><time>2026-03-24T15:34:58.934Z</time></trkpt><trkpt lat="43.6333167" lon="11.5594817"><ele>309.0</ele><time>2026-03-24T15:34:59.935Z</time></trkpt><trkpt lat="43.6332617" lon="11.5593817"><ele>309.0</ele><time>2026-03-24T15:35:00.935Z</time></trkpt><trkpt lat="43.633205" lon="11.559285"><ele>309.0</ele><time>2026-03-24T15:35:01.933Z</time></trkpt><trkpt lat="43.63315" lon="11.5591867"><ele>309.0</ele><time>2026-03-24T15:35:02.932Z</time></trkpt><trkpt lat="43.6330933" lon="11.5590867"><ele>309.0</ele><time>2026-03-24T15:35:03.932Z</time></trkpt><trkpt lat="43.6330367" lon="11.558985"><ele>309.0</ele><time>2026-03-24T15:35:04.932Z</time></trkpt><trkpt lat="43.6329783" lon="11.5588817"><ele>309.0</ele><time>2026-03-24T15:35:05.933Z</time></trkpt><trkpt lat="43.6329217" lon="11.5587817"><ele>309.0</ele><time>2026-03-24T15:35:06.934Z</time></trkpt><trkpt lat="43.6328633" lon="11.5586833"><ele>309.0</ele><time>2026-03-24T15:35:07.933Z</time></trkpt><trkpt lat="43.6328" lon="11.5585983"><ele>309.0</ele><time>2026-03-24T15:35:08.934Z</time></trkpt><trkpt lat="43.6327217" lon="11.558535"><ele>309.0</ele><time>2026-03-24T15:35:09.933Z</time></trkpt><trkpt lat="43.6326367" lon="11.5584917"><ele>307.8</ele><time>2026-03-24T15:35:10.931Z</time></trkpt><trkpt lat="43.6325483" lon="11.5584767"><ele>306.59999999999997</ele><time>2026-03-24T15:35:11.934Z</time></trkpt><trkpt lat="43.6324517" lon="11.5584783"><ele>305.4</ele><time>2026-03-24T15:35:12.932Z</time></trkpt><trkpt lat="43.6323533" lon="11.5584917"><ele>304.2</ele><time>2026-03-24T15:35:13.93Z</time></trkpt><trkpt lat="43.6322533" lon="11.5585117"><ele>303.0</ele><time>2026-03-24T15:35:14.934Z</time></trkpt><trkpt lat="43.6321533" lon="11.5585467"><ele>303.0</ele><time>2026-03-24T15:35:15.932Z</time></trkpt><trkpt lat="43.6320583" lon="11.5585983"><ele>303.0</ele><time>2026-03-24T15:35:16.934Z</time></trkpt><trkpt lat="43.6319683" lon="11.5586617"><ele>303.0</ele><time>2026-03-24T15:35:17.932Z</time></trkpt><trkpt lat="43.6318833" lon="11.5587383"><ele>303.0</ele><time>2026-03-24T15:35:18.934Z</time></trkpt><trkpt lat="43.6318017" lon="11.5588267"><ele>303.0</ele><time>2026-03-24T15:35:19.931Z</time></trkpt><trkpt lat="43.631725" lon="11.55892"><ele>304.0</ele><time>2026-03-24T15:35:20.934Z</time></trkpt><trkpt lat="43.63164" lon="11.5590067"><ele>305.0</ele><time>2026-03-24T15:35:21.933Z</time></trkpt><trkpt lat="43.631565" lon="11.559095"><ele>306.0</ele><time>2026-03-24T15:35:22.932Z</time></trkpt><trkpt lat="43.631485" lon="11.5591833"><ele>307.0</ele><time>2026-03-24T15:35:23.932Z</time></trkpt><trkpt lat="43.63141" lon="11.5592683"><ele>308.0</ele><time>2026-03-24T15:35:24.933Z</time></trkpt><trkpt lat="43.631335" lon="11.559345"><ele>308.0</ele><time>2026-03-24T15:35:25.933Z</time></trkpt><trkpt lat="43.63126" lon="11.55942"><ele>308.0</ele><time>2026-03-24T15:35:26.932Z</time></trkpt><trkpt lat="43.6312" lon="11.559505"><ele>308.0</ele><time>2026-03-24T15:35:27.932Z</time></trkpt><trkpt lat="43.6311467" lon="11.5596"><ele>308.0</ele><time>2026-03-24T15:35:28.932Z</time></trkpt><trkpt lat="43.6311033" lon="11.5597083"><ele>308.0</ele><time>2026-03-24T15:35:29.932Z</time></trkpt><trkpt lat="43.6310683" lon="11.55982"><ele>308.0</ele><time>2026-03-24T15:35:30.932Z</time></trkpt><trkpt lat="43.63104" lon="11.5599383"><ele>306.0</ele><time>2026-03-24T15:35:31.933Z</time></trkpt><trkpt lat="43.6310117" lon="11.5600583"><ele>304.0</ele><time>2026-03-24T15:35:32.932Z</time></trkpt><trkpt lat="43.6309817" lon="11.5601783"><ele>302.0</ele><time>2026-03-24T15:35:33.932Z</time></trkpt><trkpt lat="43.6309267" lon="11.5602783"><ele>300.0</ele><time>2026-03-24T15:35:34.932Z</time></trkpt><trkpt lat="43.6308467" lon="11.5603383"><ele>298.0</ele><time>2026-03-24T15:35:35.934Z</time></trkpt><trkpt lat="43.6307617" lon="11.5603583"><ele>300.3333333333333</ele><time>2026-03-24T15:35:36.932Z</time></trkpt><trkpt lat="43.6306883" lon="11.5603833"><ele>302.66666666666663</ele><time>2026-03-24T15:35:37.932Z</time></trkpt><trkpt lat="43.630615" lon="11.560415"><ele>305.0</ele><time>2026-03-24T15:35:38.932Z</time></trkpt><trkpt lat="43.6305383" lon="11.5604567"><ele>307.3333333333333</ele><time>2026-03-24T15:35:39.933Z</time></trkpt><trkpt lat="43.63047" lon="11.5605333"><ele>309.6666666666667</ele><time>2026-03-24T15:35:40.934Z</time></trkpt><trkpt lat="43.630415" lon="11.5606233"><ele>312.0</ele><time>2026-03-24T15:35:41.932Z</time></trkpt><trkpt lat="43.63037" lon="11.56072"><ele>312.0</ele><time>2026-03-24T15:35:42.932Z</time></trkpt><trkpt lat="43.630335" lon="11.56083"><ele>312.0</ele><time>2026-03-24T15:35:43.932Z</time></trkpt><trkpt lat="43.6302933" lon="11.5609283"><ele>312.0</ele><time>2026-03-24T15:35:44.934Z</time></trkpt><trkpt lat="43.63025" lon="11.56103"><ele>312.0</ele><time>2026-03-24T15:35:45.932Z</time></trkpt><trkpt lat="43.630215" lon="11.56113"><ele>312.0</ele><time>2026-03-24T15:35:46.932Z</time></trkpt><trkpt lat="43.63018" lon="11.5612333"><ele>312.0</ele><time>2026-03-24T15:35:47.933Z</time></trkpt><trkpt lat="43.6301583" lon="11.5613417"><ele>310.1666666666667</ele><time>2026-03-24T15:35:48.933Z</time></trkpt><trkpt lat="43.6301317" lon="11.5614467"><ele>308.3333333333333</ele><time>2026-03-24T15:35:49.932Z</time></trkpt><trkpt lat="43.6301117" lon="11.561555"><ele>306.5</ele><time>2026-03-24T15:35:50.933Z</time></trkpt><trkpt lat="43.63009" lon="11.5616617"><ele>304.66666666666663</ele><time>2026-03-24T15:35:51.932Z</time></trkpt><trkpt lat="43.6300733" lon="11.5617667"><ele>302.8333333333333</ele><time>2026-03-24T15:35:52.932Z</time></trkpt><trkpt lat="43.6300417" lon="11.5618683"><ele>301.0</ele><time>2026-03-24T15:35:53.933Z</time></trkpt><trkpt lat="43.6300183" lon="11.5619683"><ele>302.57142857142856</ele><time>2026-03-24T15:35:54.933Z</time></trkpt><trkpt lat="43.6299983" lon="11.562065"><ele>304.1428571428571</ele><time>2026-03-24T15:35:55.933Z</time></trkpt><trkpt lat="43.62998" lon="11.56216"><ele>305.7142857142857</ele><time>2026-03-24T15:35:56.933Z</time></trkpt><trkpt lat="43.6299617" lon="11.5622533"><ele>307.2857142857143</ele><time>2026-03-24T15:35:57.933Z</time></trkpt><trkpt lat="43.6299433" lon="11.562345"><ele>308.85714285714283</ele><time>2026-03-24T15:35:58.933Z</time></trkpt><trkpt lat="43.6299267" lon="11.5624383"><ele>310.42857142857144</ele><time>2026-03-24T15:35:59.933Z</time></trkpt><trkpt lat="43.6299083" lon="11.5625283"><ele>312.0</ele><time>2026-03-24T15:36:00.933Z</time></trkpt><trkpt lat="43.6298933" lon="11.5626183"><ele>312.0</ele><time>2026-03-24T15:36:01.933Z</time></trkpt><trkpt lat="43.6298817" lon="11.5627083"><ele>312.0</ele><time>2026-03-24T15:36:02.934Z</time></trkpt><trkpt lat="43.629865" lon="11.562795"><ele>312.0</ele><time>2026-03-24T15:36:03.933Z</time></trkpt><trkpt lat="43.6298517" lon="11.5628817"><ele>312.0</ele><time>2026-03-24T15:36:04.934Z</time></trkpt><trkpt lat="43.6298333" lon="11.5629667"><ele>312.0</ele><time>2026-03-24T15:36:05.933Z</time></trkpt><trkpt lat="43.62982" lon="11.5630533"><ele>312.0</ele><time>2026-03-24T15:36:06.934Z</time></trkpt><trkpt lat="43.6297933" lon="11.5632233"><ele>312.0</ele><time>2026-03-24T15:36:08.933Z</time></trkpt><trkpt lat="43.6297567" lon="11.563385"><ele>313.0</ele><time>2026-03-24T15:36:10.933Z</time></trkpt><trkpt lat="43.6297167" lon="11.563455"><ele>314.0</ele><time>2026-03-24T15:36:11.934Z</time></trkpt><trkpt lat="43.6296067" lon="11.5635367"><ele>315.0</ele><time>2026-03-24T15:36:13.934Z</time></trkpt><trkpt lat="43.6294933" lon="11.563515"><ele>316.0</ele><time>2026-03-24T15:36:15.933Z</time></trkpt><trkpt lat="43.6294017" lon="11.5634117"><ele>317.0</ele><time>2026-03-24T15:36:17.933Z</time></trkpt><trkpt lat="43.62935" lon="11.5632583"><ele>317.25</ele><time>2026-03-24T15:36:19.934Z</time></trkpt><trkpt lat="43.6293167" lon="11.5630933"><ele>317.5</ele><time>2026-03-24T15:36:21.933Z</time></trkpt><trkpt lat="43.6293133" lon="11.5629267"><ele>317.75</ele><time>2026-03-24T15:36:23.934Z</time></trkpt><trkpt lat="43.6293083" lon="11.5627633"><ele>318.0</ele><time>2026-03-24T15:36:25.933Z</time></trkpt><trkpt lat="43.62928" lon="11.5625933"><ele>316.8333333333333</ele><time>2026-03-24T15:36:27.932Z</time></trkpt><trkpt lat="43.6292433" lon="11.5624283"><ele>315.6666666666667</ele><time>2026-03-24T15:36:29.935Z</time></trkpt><trkpt lat="43.629215" lon="11.5623383"><ele>314.5</ele><time>2026-03-24T15:36:30.932Z</time></trkpt><trkpt lat="43.629195" lon="11.562245"><ele>313.33333333333337</ele><time>2026-03-24T15:36:31.932Z</time></trkpt><trkpt lat="43.6291733" lon="11.5621533"><ele>312.1666666666667</ele><time>2026-03-24T15:36:32.932Z</time></trkpt><trkpt lat="43.6291417" lon="11.5620667"><ele>311.0</ele><time>2026-03-24T15:36:33.93Z</time></trkpt><trkpt lat="43.6291083" lon="11.561985"><ele>310.1428571428571</ele><time>2026-03-24T15:36:34.932Z</time></trkpt><trkpt lat="43.629085" lon="11.5618933"><ele>309.28571428571433</ele><time>2026-03-24T15:36:35.932Z</time></trkpt><trkpt lat="43.6290467" lon="11.5618117"><ele>308.42857142857144</ele><time>2026-03-24T15:36:36.931Z</time></trkpt><trkpt lat="43.629015" lon="11.5617267"><ele>307.57142857142856</ele><time>2026-03-24T15:36:37.932Z</time></trkpt><trkpt lat="43.6289817" lon="11.5616483"><ele>306.71428571428567</ele><time>2026-03-24T15:36:38.932Z</time></trkpt><trkpt lat="43.62893" lon="11.5615633"><ele>305.8571428571429</ele><time>2026-03-24T15:36:39.931Z</time></trkpt><trkpt lat="43.6289083" lon="11.5614617"><ele>305.0</ele><time>2026-03-24T15:36:40.933Z</time></trkpt><trkpt lat="43.6288633" lon="11.5613717"><ele>305.0</ele><time>2026-03-24T15:36:41.932Z</time></trkpt><trkpt lat="43.6288217" lon="11.5612833"><ele>305.0</ele><time>2026-03-24T15:36:42.931Z</time></trkpt><trkpt lat="43.6287817" lon="11.5612067"><ele>305.0</ele><time>2026-03-24T15:36:43.932Z</time></trkpt><trkpt lat="43.6287317" lon="11.5611417"><ele>305.0</ele><time>2026-03-24T15:36:44.935Z</time></trkpt><trkpt lat="43.6286783" lon="11.5610783"><ele>305.0</ele><time>2026-03-24T15:36:45.933Z</time></trkpt><trkpt lat="43.62862" lon="11.5610317"><ele>305.0</ele><time>2026-03-24T15:36:46.934Z</time></trkpt><trkpt lat="43.628555" lon="11.5610083"><ele>305.0</ele><time>2026-03-24T15:36:47.936Z</time></trkpt><trkpt lat="43.6284867" lon="11.5610133"><ele>305.5</ele><time>2026-03-24T15:36:48.935Z</time></trkpt><trkpt lat="43.6284217" lon="11.5610183"><ele>306.0</ele><time>2026-03-24T15:36:49.932Z</time></trkpt><trkpt lat="43.628365" lon="11.5610567"><ele>306.5</ele><time>2026-03-24T15:36:50.933Z</time></trkpt><trkpt lat="43.6283117" lon="11.56111"><ele>307.0</ele><time>2026-03-24T15:36:51.934Z</time></trkpt><trkpt lat="43.6282367" lon="11.561255"><ele>307.5</ele><time>2026-03-24T15:36:53.934Z</time></trkpt><trkpt lat="43.6281983" lon="11.5613383"><ele>308.0</ele><time>2026-03-24T15:36:54.932Z</time></trkpt><trkpt lat="43.6281517" lon="11.561415"><ele>308.33333333333337</ele><time>2026-03-24T15:36:55.934Z</time></trkpt><trkpt lat="43.6281033" lon="11.5614933"><ele>308.6666666666667</ele><time>2026-03-24T15:36:56.933Z</time></trkpt><trkpt lat="43.6280533" lon="11.5615733"><ele>309.0</ele><time>2026-03-24T15:36:57.933Z</time></trkpt><trkpt lat="43.6279967" lon="11.5616483"><ele>309.3333333333333</ele><time>2026-03-24T15:36:58.933Z</time></trkpt><trkpt lat="43.6279333" lon="11.5617117"><ele>309.66666666666663</ele><time>2026-03-24T15:36:59.934Z</time></trkpt><trkpt lat="43.6278617" lon="11.56175"><ele>310.0</ele><time>2026-03-24T15:37:00.932Z</time></trkpt><trkpt lat="43.6277833" lon="11.5617617"><ele>310.0</ele><time>2026-03-24T15:37:01.932Z</time></trkpt><trkpt lat="43.6277067" lon="11.56175"><ele>310.0</ele><time>2026-03-24T15:37:02.933Z</time></trkpt><trkpt lat="43.627635" lon="11.5617117"><ele>310.0</ele><time>2026-03-24T15:37:03.932Z</time></trkpt><trkpt lat="43.6275617" lon="11.5616683"><ele>310.0</ele><time>2026-03-24T15:37:04.932Z</time></trkpt><trkpt lat="43.627485" lon="11.5616217"><ele>310.0</ele><time>2026-03-24T15:37:05.933Z</time></trkpt><trkpt lat="43.6274" lon="11.56159"><ele>310.0</ele><time>2026-03-24T15:37:06.932Z</time></trkpt><trkpt lat="43.627315" lon="11.56158"><ele>310.0</ele><time>2026-03-24T15:37:07.933Z</time></trkpt><trkpt lat="43.6272267" lon="11.561595"><ele>310.0</ele><time>2026-03-24T15:37:08.933Z</time></trkpt><trkpt lat="43.6271367" lon="11.5616083"><ele>310.0</ele><time>2026-03-24T15:37:09.935Z</time></trkpt><trkpt lat="43.6270433" lon="11.561635"><ele>310.0</ele><time>2026-03-24T15:37:10.933Z</time></trkpt><trkpt lat="43.626945" lon="11.5616483"><ele>310.0</ele><time>2026-03-24T15:37:11.933Z</time></trkpt><trkpt lat="43.6268417" lon="11.5616683"><ele>309.6</ele><time>2026-03-24T15:37:12.933Z</time></trkpt><trkpt lat="43.6267367" lon="11.56168"><ele>309.2</ele><time>2026-03-24T15:37:13.932Z</time></trkpt><trkpt lat="43.626635" lon="11.5616933"><ele>308.8</ele><time>2026-03-24T15:37:14.935Z</time></trkpt><trkpt lat="43.62653" lon="11.5617067"><ele>308.4</ele><time>2026-03-24T15:37:15.934Z</time></trkpt><trkpt lat="43.6264267" lon="11.5617167"><ele>308.0</ele><time>2026-03-24T15:37:16.932Z</time></trkpt><trkpt lat="43.62633" lon="11.5617283"><ele>308.0</ele><time>2026-03-24T15:37:17.933Z</time></trkpt><trkpt lat="43.6262383" lon="11.561755"><ele>308.0</ele><time>2026-03-24T15:37:18.935Z</time></trkpt><trkpt lat="43.6261583" lon="11.5618017"><ele>308.0</ele><time>2026-03-24T15:37:19.933Z</time></trkpt><trkpt lat="43.62609" lon="11.5618733"><ele>308.0</ele><time>2026-03-24T15:37:20.933Z</time></trkpt><trkpt lat="43.6260383" lon="11.5619667"><ele>308.0</ele><time>2026-03-24T15:37:21.933Z</time></trkpt><trkpt lat="43.6260017" lon="11.56208"><ele>308.0</ele><time>2026-03-24T15:37:22.933Z</time></trkpt><trkpt lat="43.6259833" lon="11.5622"><ele>306.6666666666667</ele><time>2026-03-24T15:37:23.934Z</time></trkpt><trkpt lat="43.6259833" lon="11.56232"><ele>305.33333333333337</ele><time>2026-03-24T15:37:24.932Z</time></trkpt><trkpt lat="43.625995" lon="11.562445"><ele>304.0</ele><time>2026-03-24T15:37:25.931Z</time></trkpt><trkpt lat="43.6259917" lon="11.562565"><ele>302.6666666666667</ele><time>2026-03-24T15:37:26.932Z</time></trkpt><trkpt lat="43.6259633" lon="11.56268"><ele>301.3333333333333</ele><time>2026-03-24T15:37:27.93Z</time></trkpt><trkpt lat="43.6259117" lon="11.5627733"><ele>300.0</ele><time>2026-03-24T15:37:28.932Z</time></trkpt><trkpt lat="43.6258467" lon="11.56285"><ele>300.2</ele><time>2026-03-24T15:37:29.932Z</time></trkpt><trkpt lat="43.625765" lon="11.5628933"><ele>300.4</ele><time>2026-03-24T15:37:30.931Z</time></trkpt><trkpt lat="43.62567" lon="11.5628917"><ele>300.6</ele><time>2026-03-24T15:37:31.932Z</time></trkpt><trkpt lat="43.6255767" lon="11.5628833"><ele>300.8</ele><time>2026-03-24T15:37:32.93Z</time></trkpt><trkpt lat="43.625485" lon="11.5628883"><ele>301.0</ele><time>2026-03-24T15:37:33.931Z</time></trkpt><trkpt lat="43.625395" lon="11.56289"><ele>301.16666666666663</ele><time>2026-03-24T15:37:34.933Z</time></trkpt><trkpt lat="43.6253067" lon="11.5628817"><ele>301.3333333333333</ele><time>2026-03-24T15:37:35.931Z</time></trkpt><trkpt lat="43.6252267" lon="11.562845"><ele>301.5</ele><time>2026-03-24T15:37:36.933Z</time></trkpt><trkpt lat="43.62516" lon="11.562775"><ele>301.6666666666667</ele><time>2026-03-24T15:37:37.933Z</time></trkpt><trkpt lat="43.6251" lon="11.5626983"><ele>301.83333333333337</ele><time>2026-03-24T15:37:38.933Z</time></trkpt><trkpt lat="43.62504" lon="11.5626167"><ele>302.0</ele><time>2026-03-24T15:37:39.934Z</time></trkpt><trkpt lat="43.6249833" lon="11.5625333"><ele>302.0</ele><time>2026-03-24T15:37:40.933Z</time></trkpt><trkpt lat="43.6249167" lon="11.5624583"><ele>302.0</ele><time>2026-03-24T15:37:41.935Z</time></trkpt><trkpt lat="43.6248517" lon="11.5623833"><ele>302.0</ele><time>2026-03-24T15:37:42.934Z</time></trkpt><trkpt lat="43.62478" lon="11.5623183"><ele>302.0</ele><time>2026-03-24T15:37:43.933Z</time></trkpt><trkpt lat="43.62471" lon="11.5622517"><ele>302.0</ele><time>2026-03-24T15:37:44.933Z</time></trkpt><trkpt lat="43.624635" lon="11.5621967"><ele>302.0</ele><time>2026-03-24T15:37:45.934Z</time></trkpt><trkpt lat="43.6245567" lon="11.5621433"><ele>302.5</ele><time>2026-03-24T15:37:46.933Z</time></trkpt><trkpt lat="43.6244767" lon="11.5621083"><ele>303.0</ele><time>2026-03-24T15:37:47.933Z</time></trkpt><trkpt lat="43.624395" lon="11.5620767"><ele>303.5</ele><time>2026-03-24T15:37:48.932Z</time></trkpt><trkpt lat="43.6243117" lon="11.5620517"><ele>304.0</ele><time>2026-03-24T15:37:49.933Z</time></trkpt><trkpt lat="43.624225" lon="11.5620333"><ele>304.5</ele><time>2026-03-24T15:37:50.931Z</time></trkpt><trkpt lat="43.6241417" lon="11.5620067"><ele>305.0</ele><time>2026-03-24T15:37:51.93Z</time></trkpt><trkpt lat="43.6240583" lon="11.5619833"><ele>304.0</ele><time>2026-03-24T15:37:52.931Z</time></trkpt><trkpt lat="43.6239783" lon="11.5619383"><ele>303.0</ele><time>2026-03-24T15:37:53.931Z</time></trkpt><trkpt lat="43.6239" lon="11.5618833"><ele>302.0</ele><time>2026-03-24T15:37:54.931Z</time></trkpt><trkpt lat="43.6238317" lon="11.5618017"><ele>301.0</ele><time>2026-03-24T15:37:55.934Z</time></trkpt><trkpt lat="43.6237667" lon="11.56172"><ele>300.0</ele><time>2026-03-24T15:37:56.935Z</time></trkpt><trkpt lat="43.6237033" lon="11.5616317"><ele>299.0</ele><time>2026-03-24T15:37:57.934Z</time></trkpt><trkpt lat="43.6236433" lon="11.56153"><ele>299.0</ele><time>2026-03-24T15:37:58.934Z</time></trkpt><trkpt lat="43.6235783" lon="11.5614333"><ele>299.0</ele><time>2026-03-24T15:37:59.932Z</time></trkpt><trkpt lat="43.6235133" lon="11.561335"><ele>299.0</ele><time>2026-03-24T15:38:00.933Z</time></trkpt><trkpt lat="43.6234483" lon="11.5612333"><ele>299.0</ele><time>2026-03-24T15:38:01.934Z</time></trkpt><trkpt lat="43.6233883" lon="11.5611267"><ele>299.0</ele><time>2026-03-24T15:38:02.933Z</time></trkpt><trkpt lat="43.6233267" lon="11.5610233"><ele>298.2</ele><time>2026-03-24T15:38:03.934Z</time></trkpt><trkpt lat="43.6232683" lon="11.5609083"><ele>297.4</ele><time>2026-03-24T15:38:04.933Z</time></trkpt><trkpt lat="43.6232167" lon="11.5607883"><ele>296.6</ele><time>2026-03-24T15:38:05.931Z</time></trkpt><trkpt lat="43.6231667" lon="11.5606633"><ele>295.8</ele><time>2026-03-24T15:38:06.931Z</time></trkpt><trkpt lat="43.623115" lon="11.5605417"><ele>295.0</ele><time>2026-03-24T15:38:07.931Z</time></trkpt><trkpt lat="43.6230667" lon="11.5604167"><ele>294.2</ele><time>2026-03-24T15:38:08.931Z</time></trkpt><trkpt lat="43.6230167" lon="11.56029"><ele>293.4</ele><time>2026-03-24T15:38:09.93Z</time></trkpt><trkpt lat="43.6229633" lon="11.5601683"><ele>292.6</ele><time>2026-03-24T15:38:10.932Z</time></trkpt><trkpt lat="43.6229117" lon="11.5600467"><ele>291.8</ele><time>2026-03-24T15:38:11.931Z</time></trkpt><trkpt lat="43.6228533" lon="11.5599283"><ele>291.0</ele><time>2026-03-24T15:38:12.931Z</time></trkpt><trkpt lat="43.6227917" lon="11.559815"><ele>291.0</ele><time>2026-03-24T15:38:13.932Z</time></trkpt><trkpt lat="43.6227233" lon="11.55971"><ele>291.0</ele><time>2026-03-24T15:38:14.933Z</time></trkpt><trkpt lat="43.6226483" lon="11.559615"><ele>291.0</ele><time>2026-03-24T15:38:15.931Z</time></trkpt><trkpt lat="43.6225733" lon="11.5595283"><ele>291.0</ele><time>2026-03-24T15:38:16.934Z</time></trkpt><trkpt lat="43.622515" lon="11.5594217"><ele>291.0</ele><time>2026-03-24T15:38:17.933Z</time></trkpt><trkpt lat="43.6224783" lon="11.5592967"><ele>290.0</ele><time>2026-03-24T15:38:18.935Z</time></trkpt><trkpt lat="43.6224567" lon="11.5591567"><ele>289.0</ele><time>2026-03-24T15:38:19.933Z</time></trkpt><trkpt lat="43.6224167" lon="11.5590283"><ele>288.0</ele><time>2026-03-24T15:38:20.933Z</time></trkpt><trkpt lat="43.622355" lon="11.5589167"><ele>287.0</ele><time>2026-03-24T15:38:21.934Z</time></trkpt><trkpt lat="43.622315" lon="11.55879"><ele>286.0</ele><time>2026-03-24T15:38:22.934Z</time></trkpt><trkpt lat="43.6222933" lon="11.5586533"><ele>285.2</ele><time>2026-03-24T15:38:23.931Z</time></trkpt><trkpt lat="43.6222767" lon="11.5585117"><ele>284.40000000000003</ele><time>2026-03-24T15:38:24.93Z</time></trkpt><trkpt lat="43.6222417" lon="11.55838"><ele>283.6</ele><time>2026-03-24T15:38:25.932Z</time></trkpt><trkpt lat="43.62218" lon="11.5582717"><ele>282.8</ele><time>2026-03-24T15:38:26.932Z</time></trkpt><trkpt lat="43.622105" lon="11.5581817"><ele>282.0</ele><time>2026-03-24T15:38:27.932Z</time></trkpt><trkpt lat="43.6220233" lon="11.5581"><ele>282.6</ele><time>2026-03-24T15:38:28.931Z</time></trkpt><trkpt lat="43.6219383" lon="11.55803"><ele>283.2</ele><time>2026-03-24T15:38:29.933Z</time></trkpt><trkpt lat="43.62185" lon="11.5579633"><ele>283.8</ele><time>2026-03-24T15:38:30.931Z</time></trkpt><trkpt lat="43.6217667" lon="11.5578867"><ele>284.4</ele><time>2026-03-24T15:38:31.932Z</time></trkpt><trkpt lat="43.6216817" lon="11.5578117"><ele>285.0</ele><time>2026-03-24T15:38:32.933Z</time></trkpt><trkpt lat="43.6216" lon="11.557725"><ele>285.0</ele><time>2026-03-24T15:38:33.93Z</time></trkpt><trkpt lat="43.621515" lon="11.5576483"><ele>285.0</ele><time>2026-03-24T15:38:34.933Z</time></trkpt><trkpt lat="43.62143" lon="11.557565"><ele>285.0</ele><time>2026-03-24T15:38:35.934Z</time></trkpt><trkpt lat="43.62135" lon="11.55748"><ele>285.0</ele><time>2026-03-24T15:38:36.932Z</time></trkpt><trkpt lat="43.6212817" lon="11.557385"><ele>285.0</ele><time>2026-03-24T15:38:37.932Z</time></trkpt><trkpt lat="43.6212383" lon="11.557275"><ele>285.0</ele><time>2026-03-24T15:38:38.933Z</time></trkpt><trkpt lat="43.6212183" lon="11.5571567"><ele>285.0</ele><time>2026-03-24T15:38:39.932Z</time></trkpt><trkpt lat="43.62123" lon="11.5570333"><ele>285.0</ele><time>2026-03-24T15:38:40.932Z</time></trkpt><trkpt lat="43.62126" lon="11.5569233"><ele>285.0</ele><time>2026-03-24T15:38:41.93Z</time></trkpt><trkpt lat="43.62132" lon="11.556835"><ele>285.0</ele><time>2026-03-24T15:38:42.933Z</time></trkpt><trkpt lat="43.6213833" lon="11.55676"><ele>285.0</ele><time>2026-03-24T15:38:43.933Z</time></trkpt><trkpt lat="43.621455" lon="11.5566917"><ele>284.8333333333333</ele><time>2026-03-24T15:38:44.932Z</time></trkpt><trkpt lat="43.621525" lon="11.5566233"><ele>284.6666666666667</ele><time>2026-03-24T15:38:45.931Z</time></trkpt><trkpt lat="43.6215917" lon="11.5565533"><ele>284.5</ele><time>2026-03-24T15:38:46.931Z</time></trkpt><trkpt lat="43.6216583" lon="11.5564883"><ele>284.33333333333337</ele><time>2026-03-24T15:38:47.932Z</time></trkpt><trkpt lat="43.6217217" lon="11.556415"><ele>284.1666666666667</ele><time>2026-03-24T15:38:48.93Z</time></trkpt><trkpt lat="43.621785" lon="11.5563517"><ele>284.0</ele><time>2026-03-24T15:38:49.933Z</time></trkpt><trkpt lat="43.6218467" lon="11.5562883"><ele>284.0</ele><time>2026-03-24T15:38:50.935Z</time></trkpt><trkpt lat="43.62191" lon="11.5562267"><ele>284.0</ele><time>2026-03-24T15:38:51.933Z</time></trkpt><trkpt lat="43.6219717" lon="11.556165"><ele>284.0</ele><time>2026-03-24T15:38:52.931Z</time></trkpt><trkpt lat="43.6220317" lon="11.556105"><ele>284.0</ele><time>2026-03-24T15:38:53.933Z</time></trkpt><trkpt lat="43.6220917" lon="11.5560417"><ele>284.0</ele><time>2026-03-24T15:38:54.934Z</time></trkpt><trkpt lat="43.6221517" lon="11.5559733"><ele>284.0</ele><time>2026-03-24T15:38:55.933Z</time></trkpt><trkpt lat="43.6222167" lon="11.5559133"><ele>284.0</ele><time>2026-03-24T15:38:56.933Z</time></trkpt><trkpt lat="43.6222767" lon="11.555845"><ele>284.0</ele><time>2026-03-24T15:38:57.931Z</time></trkpt><trkpt lat="43.6223383" lon="11.5557783"><ele>284.0</ele><time>2026-03-24T15:38:58.931Z</time></trkpt><trkpt lat="43.6224" lon="11.555705"><ele>284.0</ele><time>2026-03-24T15:38:59.931Z</time></trkpt><trkpt lat="43.6224517" lon="11.55562"><ele>284.0</ele><time>2026-03-24T15:39:00.931Z</time></trkpt><trkpt lat="43.622495" lon="11.5555283"><ele>284.0</ele><time>2026-03-24T15:39:01.932Z</time></trkpt><trkpt lat="43.6225367" lon="11.555435"><ele>283.5</ele><time>2026-03-24T15:39:02.931Z</time></trkpt><trkpt lat="43.6225733" lon="11.555335"><ele>283.0</ele><time>2026-03-24T15:39:03.93Z</time></trkpt><trkpt lat="43.6226017" lon="11.5552267"><ele>282.5</ele><time>2026-03-24T15:39:04.932Z</time></trkpt><trkpt lat="43.622625" lon="11.55512"><ele>282.0</ele><time>2026-03-24T15:39:05.933Z</time></trkpt><trkpt lat="43.6226383" lon="11.5550117"><ele>281.5</ele><time>2026-03-24T15:39:06.931Z</time></trkpt><trkpt lat="43.6226433" lon="11.5548983"><ele>281.0</ele><time>2026-03-24T15:39:07.933Z</time></trkpt><trkpt lat="43.6226433" lon="11.554785"><ele>281.0</ele><time>2026-03-24T15:39:08.932Z</time></trkpt><trkpt lat="43.6226433" lon="11.5546717"><ele>281.0</ele><time>2026-03-24T15:39:09.933Z</time></trkpt><trkpt lat="43.6226367" lon="11.5545567"><ele>281.0</ele><time>2026-03-24T15:39:10.933Z</time></trkpt><trkpt lat="43.622635" lon="11.55444"><ele>281.0</ele><time>2026-03-24T15:39:11.934Z</time></trkpt><trkpt lat="43.6226333" lon="11.554325"><ele>281.0</ele><time>2026-03-24T15:39:12.933Z</time></trkpt><trkpt lat="43.62263" lon="11.5542067"><ele>281.0</ele><time>2026-03-24T15:39:13.933Z</time></trkpt><trkpt lat="43.62262" lon="11.5540883"><ele>280.6666666666667</ele><time>2026-03-24T15:39:14.933Z</time></trkpt><trkpt lat="43.6226083" lon="11.55397"><ele>280.33333333333337</ele><time>2026-03-24T15:39:15.932Z</time></trkpt><trkpt lat="43.6225817" lon="11.5538517"><ele>280.0</ele><time>2026-03-24T15:39:16.933Z</time></trkpt><trkpt lat="43.6225517" lon="11.553735"><ele>279.6666666666667</ele><time>2026-03-24T15:39:17.932Z</time></trkpt><trkpt lat="43.6225167" lon="11.55362"><ele>279.3333333333333</ele><time>2026-03-24T15:39:18.931Z</time></trkpt><trkpt lat="43.6224683" lon="11.553515"><ele>279.0</ele><time>2026-03-24T15:39:19.932Z</time></trkpt><trkpt lat="43.6224183" lon="11.5534133"><ele>278.8333333333333</ele><time>2026-03-24T15:39:20.931Z</time></trkpt><trkpt lat="43.622365" lon="11.55332"><ele>278.6666666666667</ele><time>2026-03-24T15:39:21.931Z</time></trkpt><trkpt lat="43.622305" lon="11.5532317"><ele>278.5</ele><time>2026-03-24T15:39:22.931Z</time></trkpt><trkpt lat="43.6222417" lon="11.5531483"><ele>278.33333333333337</ele><time>2026-03-24T15:39:23.931Z</time></trkpt><trkpt lat="43.6221717" lon="11.55307"><ele>278.1666666666667</ele><time>2026-03-24T15:39:24.93Z</time></trkpt><trkpt lat="43.6221" lon="11.5529883"><ele>278.0</ele><time>2026-03-24T15:39:25.932Z</time></trkpt><trkpt lat="43.62202" lon="11.55292"><ele>276.8</ele><time>2026-03-24T15:39:26.935Z</time></trkpt><trkpt lat="43.6219383" lon="11.552855"><ele>275.6</ele><time>2026-03-24T15:39:27.932Z</time></trkpt><trkpt lat="43.6218533" lon="11.5528133"><ele>274.4</ele><time>2026-03-24T15:39:28.931Z</time></trkpt><trkpt lat="43.6217633" lon="11.5527767"><ele>273.2</ele><time>2026-03-24T15:39:29.931Z</time></trkpt><trkpt lat="43.621675" lon="11.5527383"><ele>272.0</ele><time>2026-03-24T15:39:30.931Z</time></trkpt><trkpt lat="43.62158" lon="11.5527083"><ele>272.0</ele><time>2026-03-24T15:39:31.933Z</time></trkpt><trkpt lat="43.6214817" lon="11.5527"><ele>272.0</ele><time>2026-03-24T15:39:32.932Z</time></trkpt><trkpt lat="43.6213833" lon="11.5527017"><ele>272.0</ele><time>2026-03-24T15:39:33.93Z</time></trkpt><trkpt lat="43.6212833" lon="11.5526983"><ele>272.0</ele><time>2026-03-24T15:39:34.933Z</time></trkpt><trkpt lat="43.621185" lon="11.5527083"><ele>272.0</ele><time>2026-03-24T15:39:35.931Z</time></trkpt><trkpt lat="43.62109" lon="11.552705"><ele>272.1666666666667</ele><time>2026-03-24T15:39:36.931Z</time></trkpt><trkpt lat="43.620995" lon="11.5527167"><ele>272.33333333333337</ele><time>2026-03-24T15:39:37.931Z</time></trkpt><trkpt lat="43.6209017" lon="11.5527333"><ele>272.5</ele><time>2026-03-24T15:39:38.931Z</time></trkpt><trkpt lat="43.6208083" lon="11.55274"><ele>272.6666666666667</ele><time>2026-03-24T15:39:39.93Z</time></trkpt><trkpt lat="43.620725" lon="11.55275"><ele>272.8333333333333</ele><time>2026-03-24T15:39:40.934Z</time></trkpt><trkpt lat="43.6206517" lon="11.5527433"><ele>273.0</ele><time>2026-03-24T15:39:41.932Z</time></trkpt><trkpt lat="43.6205917" lon="11.5526983"><ele>273.0</ele><time>2026-03-24T15:39:42.933Z</time></trkpt><trkpt lat="43.620555" lon="11.5526183"><ele>273.0</ele><time>2026-03-24T15:39:43.933Z</time></trkpt><trkpt lat="43.6205567" lon="11.5524933"><ele>273.0</ele><time>2026-03-24T15:39:44.931Z</time></trkpt><trkpt lat="43.620565" lon="11.5523783"><ele>273.0</ele><time>2026-03-24T15:39:45.931Z</time></trkpt><trkpt lat="43.6205817" lon="11.5522567"><ele>273.0</ele><time>2026-03-24T15:39:46.93Z</time></trkpt><trkpt lat="43.6205967" lon="11.5521317"><ele>273.0</ele><time>2026-03-24T15:39:47.931Z</time></trkpt><trkpt lat="43.620615" lon="11.551995"><ele>272.2</ele><time>2026-03-24T15:39:48.929Z</time></trkpt><trkpt lat="43.6206167" lon="11.55185"><ele>271.4</ele><time>2026-03-24T15:39:49.932Z</time></trkpt><trkpt lat="43.6206183" lon="11.5517"><ele>270.59999999999997</ele><time>2026-03-24T15:39:50.934Z</time></trkpt><trkpt lat="43.6206233" lon="11.55155"><ele>269.8</ele><time>2026-03-24T15:39:51.932Z</time></trkpt><trkpt lat="43.6206233" lon="11.5514"><ele>269.0</ele><time>2026-03-24T15:39:52.931Z</time></trkpt><trkpt lat="43.62063" lon="11.55125"><ele>268.59999999999997</ele><time>2026-03-24T15:39:53.935Z</time></trkpt><trkpt lat="43.620635" lon="11.5511017"><ele>268.2</ele><time>2026-03-24T15:39:54.933Z</time></trkpt><trkpt lat="43.6206433" lon="11.5509517"><ele>267.79999999999995</ele><time>2026-03-24T15:39:55.935Z</time></trkpt><trkpt lat="43.6206517" lon="11.5508017"><ele>267.4</ele><time>2026-03-24T15:39:56.932Z</time></trkpt><trkpt lat="43.62066" lon="11.5506483"><ele>267.0</ele><time>2026-03-24T15:39:57.932Z</time></trkpt><trkpt lat="43.6206683" lon="11.550495"><ele>266.25</ele><time>2026-03-24T15:39:58.931Z</time></trkpt><trkpt lat="43.6206767" lon="11.55034"><ele>265.5</ele><time>2026-03-24T15:39:59.932Z</time></trkpt><trkpt lat="43.620675" lon="11.5501833"><ele>264.75</ele><time>2026-03-24T15:40:00.932Z</time></trkpt><trkpt lat="43.62068" lon="11.5500217"><ele>264.0</ele><time>2026-03-24T15:40:01.934Z</time></trkpt><trkpt lat="43.620685" lon="11.5498533"><ele>264.0</ele><time>2026-03-24T15:40:02.933Z</time></trkpt><trkpt lat="43.6206783" lon="11.549685"><ele>264.0</ele><time>2026-03-24T15:40:03.934Z</time></trkpt><trkpt lat="43.6206717" lon="11.5495117"><ele>264.0</ele><time>2026-03-24T15:40:04.936Z</time></trkpt><trkpt lat="43.620655" lon="11.5493367"><ele>264.0</ele><time>2026-03-24T15:40:05.934Z</time></trkpt><trkpt lat="43.6206417" lon="11.5491567"><ele>262.5</ele><time>2026-03-24T15:40:06.936Z</time></trkpt><trkpt lat="43.62063" lon="11.5489717"><ele>261.0</ele><time>2026-03-24T15:40:07.935Z</time></trkpt><trkpt lat="43.6206217" lon="11.5487833"><ele>259.5</ele><time>2026-03-24T15:40:08.933Z</time></trkpt><trkpt lat="43.62062" lon="11.54859"><ele>258.0</ele><time>2026-03-24T15:40:09.933Z</time></trkpt><trkpt lat="43.6206267" lon="11.5483983"><ele>256.0</ele><time>2026-03-24T15:40:10.934Z</time></trkpt><trkpt lat="43.6206417" lon="11.5482017"><ele>254.0</ele><time>2026-03-24T15:40:11.935Z</time></trkpt><trkpt lat="43.620655" lon="11.548"><ele>252.0</ele><time>2026-03-24T15:40:12.934Z</time></trkpt><trkpt lat="43.6206683" lon="11.547795"><ele>250.0</ele><time>2026-03-24T15:40:13.934Z</time></trkpt><trkpt lat="43.62069" lon="11.5475867"><ele>249.25</ele><time>2026-03-24T15:40:14.934Z</time></trkpt><trkpt lat="43.6207217" lon="11.5473817"><ele>248.5</ele><time>2026-03-24T15:40:15.934Z</time></trkpt><trkpt lat="43.6207533" lon="11.54718"><ele>247.75</ele><time>2026-03-24T15:40:16.933Z</time></trkpt><trkpt lat="43.620785" lon="11.5469867"><ele>247.0</ele><time>2026-03-24T15:40:17.932Z</time></trkpt><trkpt lat="43.62082" lon="11.5468017"><ele>245.25</ele><time>2026-03-24T15:40:18.933Z</time></trkpt><trkpt lat="43.6208533" lon="11.54662"><ele>243.5</ele><time>2026-03-24T15:40:19.933Z</time></trkpt><trkpt lat="43.6208883" lon="11.546445"><ele>241.75</ele><time>2026-03-24T15:40:20.933Z</time></trkpt><trkpt lat="43.6209233" lon="11.5462767"><ele>240.0</ele><time>2026-03-24T15:40:21.934Z</time></trkpt><trkpt lat="43.62095" lon="11.546115"><ele>238.5</ele><time>2026-03-24T15:40:22.933Z</time></trkpt><trkpt lat="43.6209667" lon="11.5459583"><ele>237.0</ele><time>2026-03-24T15:40:23.933Z</time></trkpt><trkpt lat="43.6209717" lon="11.5458"><ele>235.5</ele><time>2026-03-24T15:40:24.934Z</time></trkpt><trkpt lat="43.620955" lon="11.5456417"><ele>234.0</ele><time>2026-03-24T15:40:25.932Z</time></trkpt><trkpt lat="43.6209183" lon="11.5454917"><ele>235.25</ele><time>2026-03-24T15:40:26.932Z</time></trkpt><trkpt lat="43.6208667" lon="11.5453467"><ele>236.5</ele><time>2026-03-24T15:40:27.933Z</time></trkpt><trkpt lat="43.6207933" lon="11.5452133"><ele>237.75</ele><time>2026-03-24T15:40:28.934Z</time></trkpt><trkpt lat="43.6207067" lon="11.5450967"><ele>239.0</ele><time>2026-03-24T15:40:29.935Z</time></trkpt><trkpt lat="43.6206067" lon="11.544995"><ele>239.0</ele><time>2026-03-24T15:40:30.934Z</time></trkpt><trkpt lat="43.6204983" lon="11.5449067"><ele>239.0</ele><time>2026-03-24T15:40:31.934Z</time></trkpt><trkpt lat="43.6203783" lon="11.5448467"><ele>239.0</ele><time>2026-03-24T15:40:32.935Z</time></trkpt><trkpt lat="43.62026" lon="11.5447817"><ele>239.0</ele><time>2026-03-24T15:40:33.937Z</time></trkpt><trkpt lat="43.6201383" lon="11.54472"><ele>237.75</ele><time>2026-03-24T15:40:34.934Z</time></trkpt><trkpt lat="43.6200183" lon="11.5446567"><ele>236.5</ele><time>2026-03-24T15:40:35.934Z</time></trkpt><trkpt lat="43.619905" lon="11.5445883"><ele>235.25</ele><time>2026-03-24T15:40:36.934Z</time></trkpt><trkpt lat="43.6198017" lon="11.5445083"><ele>234.0</ele><time>2026-03-24T15:40:37.934Z</time></trkpt><trkpt lat="43.6197083" lon="11.5443983"><ele>234.0</ele><time>2026-03-24T15:40:38.934Z</time></trkpt><trkpt lat="43.619645" lon="11.544245"><ele>234.0</ele><time>2026-03-24T15:40:39.934Z</time></trkpt><trkpt lat="43.6196117" lon="11.5440733"><ele>234.0</ele><time>2026-03-24T15:40:40.933Z</time></trkpt><trkpt lat="43.6196033" lon="11.543895"><ele>234.0</ele><time>2026-03-24T15:40:41.933Z</time></trkpt><trkpt lat="43.61961" lon="11.5437133"><ele>234.0</ele><time>2026-03-24T15:40:42.934Z</time></trkpt><trkpt lat="43.6196233" lon="11.5435333"><ele>234.0</ele><time>2026-03-24T15:40:43.934Z</time></trkpt><trkpt lat="43.6196267" lon="11.5433533"><ele>234.0</ele><time>2026-03-24T15:40:44.933Z</time></trkpt><trkpt lat="43.6196267" lon="11.5431683"><ele>234.0</ele><time>2026-03-24T15:40:45.933Z</time></trkpt><trkpt lat="43.6196233" lon="11.5429833"><ele>232.5</ele><time>2026-03-24T15:40:46.932Z</time></trkpt><trkpt lat="43.6196233" lon="11.5427933"><ele>231.0</ele><time>2026-03-24T15:40:47.932Z</time></trkpt><trkpt lat="43.6196217" lon="11.5426"><ele>229.5</ele><time>2026-03-24T15:40:48.934Z</time></trkpt><trkpt lat="43.6196217" lon="11.54241"><ele>228.0</ele><time>2026-03-24T15:40:49.932Z</time></trkpt><trkpt lat="43.6196283" lon="11.5422283"><ele>228.0</ele><time>2026-03-24T15:40:50.934Z</time></trkpt><trkpt lat="43.6196367" lon="11.54206"><ele>228.0</ele><time>2026-03-24T15:40:51.934Z</time></trkpt><trkpt lat="43.6196567" lon="11.5419017"><ele>228.0</ele><time>2026-03-24T15:40:52.932Z</time></trkpt><trkpt lat="43.6196983" lon="11.54175"><ele>228.0</ele><time>2026-03-24T15:40:53.931Z</time></trkpt><trkpt lat="43.61976" lon="11.5416167"><ele>228.25</ele><time>2026-03-24T15:40:54.933Z</time></trkpt><trkpt lat="43.6198383" lon="11.5415"><ele>228.5</ele><time>2026-03-24T15:40:55.932Z</time></trkpt><trkpt lat="43.6199033" lon="11.54138"><ele>228.75</ele><time>2026-03-24T15:40:56.934Z</time></trkpt><trkpt lat="43.619975" lon="11.5412617"><ele>229.0</ele><time>2026-03-24T15:40:57.931Z</time></trkpt><trkpt lat="43.6207433" lon="11.5406917"><ele>224.66666666666666</ele><time>2026-03-24T15:41:03.933Z</time></trkpt><trkpt lat="43.6209183" lon="11.5405883"><ele>220.33333333333331</ele><time>2026-03-24T15:41:04.933Z</time></trkpt><trkpt lat="43.6210967" lon="11.5405083"><ele>216.0</ele><time>2026-03-24T15:41:05.933Z</time></trkpt><trkpt lat="43.6212633" lon="11.540415"><ele>207.0</ele><time>2026-03-24T15:41:06.932Z</time></trkpt><trkpt lat="43.6214167" lon="11.5403"><ele>198.0</ele><time>2026-03-24T15:41:07.933Z</time></trkpt><trkpt lat="43.6215583" lon="11.540175"><ele>189.0</ele><time>2026-03-24T15:41:08.933Z</time></trkpt><trkpt lat="43.6216933" lon="11.540045"><ele>189.0</ele><time>2026-03-24T15:41:09.932Z</time></trkpt><trkpt lat="43.6218233" lon="11.5399117"><ele>189.0</ele><time>2026-03-24T15:41:10.933Z</time></trkpt><trkpt lat="43.6219467" lon="11.53977"><ele>189.0</ele><time>2026-03-24T15:41:11.933Z</time></trkpt><trkpt lat="43.6220733" lon="11.5396283"><ele>185.66666666666666</ele><time>2026-03-24T15:41:12.934Z</time></trkpt><trkpt lat="43.622195" lon="11.5394767"><ele>182.33333333333331</ele><time>2026-03-24T15:41:13.932Z</time></trkpt><trkpt lat="43.6223167" lon="11.5393217"><ele>179.0</ele><time>2026-03-24T15:41:14.932Z</time></trkpt><trkpt lat="43.6224333" lon="11.5391633"><ele>179.0</ele><time>2026-03-24T15:41:15.932Z</time></trkpt><trkpt lat="43.6225433" lon="11.5389967"><ele>179.0</ele><time>2026-03-24T15:41:16.933Z</time></trkpt><trkpt lat="43.6226483" lon="11.5388267"><ele>179.0</ele><time>2026-03-24T15:41:17.933Z</time></trkpt><trkpt lat="43.6227517" lon="11.5386533"><ele>175.0</ele><time>2026-03-24T15:41:18.932Z</time></trkpt><trkpt lat="43.6228533" lon="11.5384767"><ele>171.0</ele><time>2026-03-24T15:41:19.932Z</time></trkpt><trkpt lat="43.6229483" lon="11.5382967"><ele>167.0</ele><time>2026-03-24T15:41:20.933Z</time></trkpt><trkpt lat="43.6230367" lon="11.53811"><ele>167.0</ele><time>2026-03-24T15:41:21.933Z</time></trkpt><trkpt lat="43.623125" lon="11.5379233"><ele>167.0</ele><time>2026-03-24T15:41:22.932Z</time></trkpt><trkpt lat="43.623205" lon="11.5377317"><ele>167.0</ele><time>2026-03-24T15:41:23.932Z</time></trkpt><trkpt lat="43.6232983" lon="11.53755"><ele>166.33333333333331</ele><time>2026-03-24T15:41:24.933Z</time></trkpt><trkpt lat="43.6233817" lon="11.537365"><ele>165.66666666666666</ele><time>2026-03-24T15:41:25.932Z</time></trkpt><trkpt lat="43.623465" lon="11.537185"><ele>165.0</ele><time>2026-03-24T15:41:26.933Z</time></trkpt><trkpt lat="43.623545" lon="11.537005"><ele>165.0</ele><time>2026-03-24T15:41:27.931Z</time></trkpt><trkpt lat="43.623625" lon="11.53683"><ele>165.0</ele><time>2026-03-24T15:41:28.931Z</time></trkpt><trkpt lat="43.6237067" lon="11.5366567"><ele>165.0</ele><time>2026-03-24T15:41:29.932Z</time></trkpt><trkpt lat="43.62379" lon="11.5364883"><ele>165.0</ele><time>2026-03-24T15:41:30.93Z</time></trkpt><trkpt lat="43.623865" lon="11.536315"><ele>164.0</ele><time>2026-03-24T15:41:31.932Z</time></trkpt><trkpt lat="43.6239367" lon="11.536145"><ele>163.0</ele><time>2026-03-24T15:41:32.933Z</time></trkpt><trkpt lat="43.6240133" lon="11.5359817"><ele>162.0</ele><time>2026-03-24T15:41:33.933Z</time></trkpt><trkpt lat="43.624085" lon="11.5358117"><ele>161.0</ele><time>2026-03-24T15:41:34.934Z</time></trkpt><trkpt lat="43.6241583" lon="11.5356533"><ele>161.0</ele><time>2026-03-24T15:41:35.935Z</time></trkpt><trkpt lat="43.624235" lon="11.5355017"><ele>161.0</ele><time>2026-03-24T15:41:36.934Z</time></trkpt><trkpt lat="43.6243033" lon="11.5353567"><ele>161.0</ele><time>2026-03-24T15:41:37.934Z</time></trkpt><trkpt lat="43.6243683" lon="11.5352033"><ele>161.0</ele><time>2026-03-24T15:41:38.933Z</time></trkpt><trkpt lat="43.6244317" lon="11.5350533"><ele>161.75</ele><time>2026-03-24T15:41:39.937Z</time></trkpt><trkpt lat="43.6244883" lon="11.5349"><ele>162.5</ele><time>2026-03-24T15:41:40.935Z</time></trkpt><trkpt lat="43.6245467" lon="11.5347483"><ele>163.25</ele><time>2026-03-24T15:41:41.934Z</time></trkpt><trkpt lat="43.6246033" lon="11.5345967"><ele>164.0</ele><time>2026-03-24T15:41:42.934Z</time></trkpt><trkpt lat="43.62465" lon="11.5344433"><ele>164.2</ele><time>2026-03-24T15:41:43.931Z</time></trkpt><trkpt lat="43.624685" lon="11.5342917"><ele>164.39999999999998</ele><time>2026-03-24T15:41:44.933Z</time></trkpt><trkpt lat="43.6247233" lon="11.534145"><ele>164.6</ele><time>2026-03-24T15:41:45.932Z</time></trkpt><trkpt lat="43.6247583" lon="11.534"><ele>164.8</ele><time>2026-03-24T15:41:46.932Z</time></trkpt><trkpt lat="43.624795" lon="11.5338567"><ele>165.0</ele><time>2026-03-24T15:41:47.934Z</time></trkpt><trkpt lat="43.62483" lon="11.533715"><ele>164.2</ele><time>2026-03-24T15:41:48.932Z</time></trkpt><trkpt lat="43.6248617" lon="11.533575"><ele>163.4</ele><time>2026-03-24T15:41:49.933Z</time></trkpt><trkpt lat="43.6249" lon="11.5334383"><ele>162.60000000000002</ele><time>2026-03-24T15:41:50.932Z</time></trkpt><trkpt lat="43.6249283" lon="11.5333"><ele>161.8</ele><time>2026-03-24T15:41:51.931Z</time></trkpt><trkpt lat="43.6249617" lon="11.5331683"><ele>161.0</ele><time>2026-03-24T15:41:52.932Z</time></trkpt><trkpt lat="43.6249967" lon="11.5330367"><ele>161.0</ele><time>2026-03-24T15:41:53.933Z</time></trkpt><trkpt lat="43.6250367" lon="11.532905"><ele>161.0</ele><time>2026-03-24T15:41:54.933Z</time></trkpt><trkpt lat="43.6250667" lon="11.5327717"><ele>161.0</ele><time>2026-03-24T15:41:55.933Z</time></trkpt><trkpt lat="43.6251017" lon="11.5326417"><ele>161.0</ele><time>2026-03-24T15:41:56.933Z</time></trkpt><trkpt lat="43.6251333" lon="11.5325133"><ele>161.0</ele><time>2026-03-24T15:41:57.932Z</time></trkpt><trkpt lat="43.62516" lon="11.5323833"><ele>161.20000000000002</ele><time>2026-03-24T15:41:58.933Z</time></trkpt><trkpt lat="43.62519" lon="11.532255"><ele>161.4</ele><time>2026-03-24T15:41:59.933Z</time></trkpt><trkpt lat="43.6252217" lon="11.532125"><ele>161.6</ele><time>2026-03-24T15:42:00.934Z</time></trkpt><trkpt lat="43.6252517" lon="11.5319983"><ele>161.8</ele><time>2026-03-24T15:42:01.932Z</time></trkpt><trkpt lat="43.625285" lon="11.5318733"><ele>162.0</ele><time>2026-03-24T15:42:02.933Z</time></trkpt><trkpt lat="43.6253183" lon="11.531745"><ele>162.0</ele><time>2026-03-24T15:42:03.934Z</time></trkpt><trkpt lat="43.62535" lon="11.5316183"><ele>162.0</ele><time>2026-03-24T15:42:04.933Z</time></trkpt><trkpt lat="43.6253783" lon="11.531495"><ele>162.0</ele><time>2026-03-24T15:42:05.934Z</time></trkpt><trkpt lat="43.62541" lon="11.531375"><ele>162.0</ele><time>2026-03-24T15:42:06.933Z</time></trkpt><trkpt lat="43.625435" lon="11.5312517"><ele>162.0</ele><time>2026-03-24T15:42:07.935Z</time></trkpt><trkpt lat="43.6254633" lon="11.5311283"><ele>161.2</ele><time>2026-03-24T15:42:08.935Z</time></trkpt><trkpt lat="43.6254917" lon="11.53101"><ele>160.39999999999998</ele><time>2026-03-24T15:42:09.933Z</time></trkpt><trkpt lat="43.6255117" lon="11.530885"><ele>159.60000000000002</ele><time>2026-03-24T15:42:10.934Z</time></trkpt><trkpt lat="43.625535" lon="11.5307667"><ele>158.8</ele><time>2026-03-24T15:42:11.932Z</time></trkpt><trkpt lat="43.6255567" lon="11.5306467"><ele>158.0</ele><time>2026-03-24T15:42:12.935Z</time></trkpt><trkpt lat="43.6255717" lon="11.5305233"><ele>158.0</ele><time>2026-03-24T15:42:13.933Z</time></trkpt><trkpt lat="43.6255817" lon="11.5303967"><ele>158.0</ele><time>2026-03-24T15:42:14.935Z</time></trkpt><trkpt lat="43.6255883" lon="11.5302733"><ele>158.0</ele><time>2026-03-24T15:42:15.934Z</time></trkpt><trkpt lat="43.6255933" lon="11.5301467"><ele>158.0</ele><time>2026-03-24T15:42:16.932Z</time></trkpt><trkpt lat="43.625595" lon="11.5300217"><ele>158.0</ele><time>2026-03-24T15:42:17.932Z</time></trkpt><trkpt lat="43.625595" lon="11.5298967"><ele>157.8</ele><time>2026-03-24T15:42:18.931Z</time></trkpt><trkpt lat="43.62559" lon="11.5297683"><ele>157.60000000000002</ele><time>2026-03-24T15:42:19.933Z</time></trkpt><trkpt lat="43.62558" lon="11.529645"><ele>157.39999999999998</ele><time>2026-03-24T15:42:20.931Z</time></trkpt><trkpt lat="43.6255683" lon="11.52952"><ele>157.2</ele><time>2026-03-24T15:42:21.932Z</time></trkpt><trkpt lat="43.6255517" lon="11.5293967"><ele>157.0</ele><time>2026-03-24T15:42:22.93Z</time></trkpt><trkpt lat="43.625535" lon="11.5292717"><ele>156.4</ele><time>2026-03-24T15:42:23.931Z</time></trkpt><trkpt lat="43.6255183" lon="11.5291433"><ele>155.79999999999998</ele><time>2026-03-24T15:42:24.933Z</time></trkpt><trkpt lat="43.6254983" lon="11.5290183"><ele>155.2</ele><time>2026-03-24T15:42:25.931Z</time></trkpt><trkpt lat="43.6254767" lon="11.528895"><ele>154.6</ele><time>2026-03-24T15:42:26.931Z</time></trkpt><trkpt lat="43.6254533" lon="11.52877"><ele>154.0</ele><time>2026-03-24T15:42:27.93Z</time></trkpt><trkpt lat="43.6254267" lon="11.5286483"><ele>153.4</ele><time>2026-03-24T15:42:28.931Z</time></trkpt><trkpt lat="43.6254017" lon="11.5285233"><ele>152.8</ele><time>2026-03-24T15:42:29.931Z</time></trkpt><trkpt lat="43.6253767" lon="11.5284017"><ele>152.2</ele><time>2026-03-24T15:42:30.934Z</time></trkpt><trkpt lat="43.6253533" lon="11.5282767"><ele>151.6</ele><time>2026-03-24T15:42:31.934Z</time></trkpt><trkpt lat="43.6253283" lon="11.5281517"><ele>151.0</ele><time>2026-03-24T15:42:32.932Z</time></trkpt><trkpt lat="43.6253" lon="11.5280283"><ele>150.8</ele><time>2026-03-24T15:42:33.932Z</time></trkpt><trkpt lat="43.6252717" lon="11.527905"><ele>150.6</ele><time>2026-03-24T15:42:34.931Z</time></trkpt><trkpt lat="43.625245" lon="11.5277867"><ele>150.4</ele><time>2026-03-24T15:42:35.931Z</time></trkpt><trkpt lat="43.6252183" lon="11.527665"><ele>150.2</ele><time>2026-03-24T15:42:36.93Z</time></trkpt><trkpt lat="43.6251967" lon="11.5275417"><ele>150.0</ele><time>2026-03-24T15:42:37.931Z</time></trkpt><trkpt lat="43.6251767" lon="11.52742"><ele>150.0</ele><time>2026-03-24T15:42:38.931Z</time></trkpt><trkpt lat="43.6251583" lon="11.5272933"><ele>150.0</ele><time>2026-03-24T15:42:39.93Z</time></trkpt><trkpt lat="43.6251417" lon="11.527165"><ele>150.0</ele><time>2026-03-24T15:42:40.931Z</time></trkpt><trkpt lat="43.625125" lon="11.52704"><ele>150.0</ele><time>2026-03-24T15:42:41.932Z</time></trkpt><trkpt lat="43.62511" lon="11.5269117"><ele>150.0</ele><time>2026-03-24T15:42:42.931Z</time></trkpt><trkpt lat="43.6250967" lon="11.5267867"><ele>150.0</ele><time>2026-03-24T15:42:43.933Z</time></trkpt><trkpt lat="43.625085" lon="11.5266617"><ele>150.0</ele><time>2026-03-24T15:42:44.932Z</time></trkpt><trkpt lat="43.625075" lon="11.5265383"><ele>150.0</ele><time>2026-03-24T15:42:45.93Z</time></trkpt><trkpt lat="43.6250633" lon="11.5264117"><ele>150.0</ele><time>2026-03-24T15:42:46.934Z</time></trkpt><trkpt lat="43.6250517" lon="11.526285"><ele>150.0</ele><time>2026-03-24T15:42:47.931Z</time></trkpt><trkpt lat="43.6250467" lon="11.5261567"><ele>149.4</ele><time>2026-03-24T15:42:48.929Z</time></trkpt><trkpt lat="43.6250433" lon="11.5260283"><ele>148.8</ele><time>2026-03-24T15:42:49.931Z</time></trkpt><trkpt lat="43.62504" lon="11.5258967"><ele>148.2</ele><time>2026-03-24T15:42:50.933Z</time></trkpt><trkpt lat="43.6250367" lon="11.5257633"><ele>147.6</ele><time>2026-03-24T15:42:51.93Z</time></trkpt><trkpt lat="43.6250333" lon="11.5256333"><ele>147.0</ele><time>2026-03-24T15:42:52.931Z</time></trkpt><trkpt lat="43.6250333" lon="11.525505"><ele>147.16666666666666</ele><time>2026-03-24T15:42:53.933Z</time></trkpt><trkpt lat="43.625035" lon="11.5253767"><ele>147.33333333333334</ele><time>2026-03-24T15:42:54.93Z</time></trkpt><trkpt lat="43.6250367" lon="11.5252533"><ele>147.5</ele><time>2026-03-24T15:42:55.931Z</time></trkpt><trkpt lat="43.6250417" lon="11.5251283"><ele>147.66666666666669</ele><time>2026-03-24T15:42:56.933Z</time></trkpt><trkpt lat="43.625045" lon="11.5250083"><ele>147.83333333333334</ele><time>2026-03-24T15:42:57.931Z</time></trkpt><trkpt lat="43.6250483" lon="11.5248867"><ele>148.0</ele><time>2026-03-24T15:42:58.932Z</time></trkpt><trkpt lat="43.6250517" lon="11.5247617"><ele>148.0</ele><time>2026-03-24T15:42:59.931Z</time></trkpt><trkpt lat="43.625055" lon="11.52464"><ele>148.0</ele><time>2026-03-24T15:43:00.931Z</time></trkpt><trkpt lat="43.6250567" lon="11.52452"><ele>148.0</ele><time>2026-03-24T15:43:01.932Z</time></trkpt><trkpt lat="43.62506" lon="11.5243983"><ele>148.0</ele><time>2026-03-24T15:43:02.931Z</time></trkpt><trkpt lat="43.6250667" lon="11.524275"><ele>148.0</ele><time>2026-03-24T15:43:03.933Z</time></trkpt><trkpt lat="43.6250717" lon="11.5241517"><ele>148.0</ele><time>2026-03-24T15:43:04.932Z</time></trkpt><trkpt lat="43.6250783" lon="11.5240333"><ele>148.16666666666669</ele><time>2026-03-24T15:43:05.933Z</time></trkpt><trkpt lat="43.625085" lon="11.5239117"><ele>148.33333333333334</ele><time>2026-03-24T15:43:06.931Z</time></trkpt><trkpt lat="43.62509" lon="11.523795"><ele>148.5</ele><time>2026-03-24T15:43:07.931Z</time></trkpt><trkpt lat="43.625095" lon="11.5236783"><ele>148.66666666666666</ele><time>2026-03-24T15:43:08.931Z</time></trkpt><trkpt lat="43.6251067" lon="11.5235617"><ele>148.83333333333331</ele><time>2026-03-24T15:43:09.93Z</time></trkpt><trkpt lat="43.6251233" lon="11.52345"><ele>149.0</ele><time>2026-03-24T15:43:10.931Z</time></trkpt><trkpt lat="43.6251467" lon="11.5233417"><ele>149.0</ele><time>2026-03-24T15:43:11.932Z</time></trkpt><trkpt lat="43.6251817" lon="11.52324"><ele>149.0</ele><time>2026-03-24T15:43:12.935Z</time></trkpt><trkpt lat="43.6252267" lon="11.5231483"><ele>149.0</ele><time>2026-03-24T15:43:13.933Z</time></trkpt><trkpt lat="43.6252867" lon="11.5230817"><ele>149.0</ele><time>2026-03-24T15:43:14.933Z</time></trkpt><trkpt lat="43.625355" lon="11.5230433"><ele>149.0</ele><time>2026-03-24T15:43:15.933Z</time></trkpt><trkpt lat="43.625425" lon="11.523025"><ele>149.0</ele><time>2026-03-24T15:43:16.931Z</time></trkpt><trkpt lat="43.6254983" lon="11.5230133"><ele>149.0</ele><time>2026-03-24T15:43:17.931Z</time></trkpt><trkpt lat="43.62557" lon="11.5230017"><ele>149.0</ele><time>2026-03-24T15:43:18.93Z</time></trkpt><trkpt lat="43.62564" lon="11.5229867"><ele>149.0</ele><time>2026-03-24T15:43:19.932Z</time></trkpt><trkpt lat="43.6257167" lon="11.52297"><ele>149.0</ele><time>2026-03-24T15:43:20.931Z</time></trkpt><trkpt lat="43.625795" lon="11.5229483"><ele>149.0</ele><time>2026-03-24T15:43:21.93Z</time></trkpt><trkpt lat="43.6258733" lon="11.5229217"><ele>149.0</ele><time>2026-03-24T15:43:22.932Z</time></trkpt><trkpt lat="43.6259533" lon="11.522885"><ele>149.0</ele><time>2026-03-24T15:43:23.931Z</time></trkpt><trkpt lat="43.6260267" lon="11.522835"><ele>149.0</ele><time>2026-03-24T15:43:24.93Z</time></trkpt><trkpt lat="43.6260933" lon="11.5227733"><ele>149.0</ele><time>2026-03-24T15:43:25.932Z</time></trkpt><trkpt lat="43.62616" lon="11.5227033"><ele>149.0</ele><time>2026-03-24T15:43:26.932Z</time></trkpt><trkpt lat="43.6262217" lon="11.5226317"><ele>149.0</ele><time>2026-03-24T15:43:27.931Z</time></trkpt><trkpt lat="43.6262783" lon="11.52256"><ele>149.0</ele><time>2026-03-24T15:43:28.932Z</time></trkpt><trkpt lat="43.6263333" lon="11.522485"><ele>149.0</ele><time>2026-03-24T15:43:29.931Z</time></trkpt><trkpt lat="43.6263867" lon="11.5224083"><ele>149.0</ele><time>2026-03-24T15:43:30.93Z</time></trkpt><trkpt lat="43.6264417" lon="11.5223333"><ele>149.0</ele><time>2026-03-24T15:43:31.936Z</time></trkpt><trkpt lat="43.6264933" lon="11.5222517"><ele>149.0</ele><time>2026-03-24T15:43:32.934Z</time></trkpt><trkpt lat="43.626545" lon="11.5221667"><ele>149.0</ele><time>2026-03-24T15:43:33.933Z</time></trkpt><trkpt lat="43.6265933" lon="11.5220767"><ele>149.0</ele><time>2026-03-24T15:43:34.933Z</time></trkpt><trkpt lat="43.6266417" lon="11.5219817"><ele>149.0</ele><time>2026-03-24T15:43:35.933Z</time></trkpt><trkpt lat="43.6266883" lon="11.521885"><ele>149.0</ele><time>2026-03-24T15:43:36.933Z</time></trkpt><trkpt lat="43.6267333" lon="11.5217917"><ele>149.0</ele><time>2026-03-24T15:43:37.933Z</time></trkpt><trkpt lat="43.62678" lon="11.5217017"><ele>149.0</ele><time>2026-03-24T15:43:38.931Z</time></trkpt><trkpt lat="43.6268283" lon="11.5216083"><ele>149.0</ele><time>2026-03-24T15:43:39.931Z</time></trkpt><trkpt lat="43.6268717" lon="11.5215233"><ele>149.0</ele><time>2026-03-24T15:43:40.93Z</time></trkpt><trkpt lat="43.6269117" lon="11.521445"><ele>149.0</ele><time>2026-03-24T15:43:41.931Z</time></trkpt><trkpt lat="43.6269567" lon="11.5213583"><ele>149.0</ele><time>2026-03-24T15:43:42.93Z</time></trkpt><trkpt lat="43.627005" lon="11.52127"><ele>149.0</ele><time>2026-03-24T15:43:43.932Z</time></trkpt><trkpt lat="43.6270533" lon="11.5211983"><ele>149.0</ele><time>2026-03-24T15:43:44.931Z</time></trkpt><trkpt lat="43.627095" lon="11.521115"><ele>149.0</ele><time>2026-03-24T15:43:45.932Z</time></trkpt><trkpt lat="43.62713" lon="11.521025"><ele>149.0</ele><time>2026-03-24T15:43:46.932Z</time></trkpt><trkpt lat="43.627155" lon="11.5209333"><ele>149.0</ele><time>2026-03-24T15:43:47.931Z</time></trkpt><trkpt lat="43.6271733" lon="11.520835"><ele>149.16666666666666</ele><time>2026-03-24T15:43:48.932Z</time></trkpt><trkpt lat="43.6272033" lon="11.5207417"><ele>149.33333333333331</ele><time>2026-03-24T15:43:49.931Z</time></trkpt><trkpt lat="43.6272367" lon="11.5206483"><ele>149.5</ele><time>2026-03-24T15:43:50.933Z</time></trkpt><trkpt lat="43.6272767" lon="11.5205567"><ele>149.66666666666666</ele><time>2026-03-24T15:43:51.931Z</time></trkpt><trkpt lat="43.6273017" lon="11.5204517"><ele>149.83333333333334</ele><time>2026-03-24T15:43:52.931Z</time></trkpt><trkpt lat="43.6273533" lon="11.520365"><ele>150.0</ele><time>2026-03-24T15:43:53.933Z</time></trkpt><trkpt lat="43.6273683" lon="11.5202617"><ele>150.5</ele><time>2026-03-24T15:43:54.931Z</time></trkpt><trkpt lat="43.6274167" lon="11.5201733"><ele>151.0</ele><time>2026-03-24T15:43:55.932Z</time></trkpt><trkpt lat="43.6274267" lon="11.5200567"><ele>151.5</ele><time>2026-03-24T15:43:56.935Z</time></trkpt><trkpt lat="43.6274767" lon="11.519965"><ele>152.0</ele><time>2026-03-24T15:43:57.931Z</time></trkpt><trkpt lat="43.627475" lon="11.5198533"><ele>152.5</ele><time>2026-03-24T15:43:58.933Z</time></trkpt><trkpt lat="43.6275167" lon="11.5197583"><ele>153.0</ele><time>2026-03-24T15:43:59.935Z</time></trkpt><trkpt lat="43.6275333" lon="11.5196533"><ele>153.33333333333334</ele><time>2026-03-24T15:44:00.932Z</time></trkpt><trkpt lat="43.6275683" lon="11.5195583"><ele>153.66666666666666</ele><time>2026-03-24T15:44:01.933Z</time></trkpt><trkpt lat="43.6275783" lon="11.5194483"><ele>154.0</ele><time>2026-03-24T15:44:02.933Z</time></trkpt><trkpt lat="43.6275983" lon="11.5193383"><ele>154.33333333333331</ele><time>2026-03-24T15:44:03.932Z</time></trkpt><trkpt lat="43.6276233" lon="11.5192267"><ele>154.66666666666666</ele><time>2026-03-24T15:44:04.934Z</time></trkpt><trkpt lat="43.6276483" lon="11.519115"><ele>155.0</ele><time>2026-03-24T15:44:05.933Z</time></trkpt><trkpt lat="43.6276717" lon="11.5190033"><ele>155.0</ele><time>2026-03-24T15:44:06.936Z</time></trkpt><trkpt lat="43.6276867" lon="11.5188983"><ele>155.0</ele><time>2026-03-24T15:44:07.934Z</time></trkpt><trkpt lat="43.6277033" lon="11.5187933"><ele>155.0</ele><time>2026-03-24T15:44:08.933Z</time></trkpt><trkpt lat="43.62772" lon="11.518695"><ele>155.0</ele><time>2026-03-24T15:44:09.936Z</time></trkpt><trkpt lat="43.6277383" lon="11.5186"><ele>155.0</ele><time>2026-03-24T15:44:10.933Z</time></trkpt><trkpt lat="43.6277567" lon="11.5185083"><ele>155.0</ele><time>2026-03-24T15:44:11.936Z</time></trkpt><trkpt lat="43.627775" lon="11.518415"><ele>155.0</ele><time>2026-03-24T15:44:12.931Z</time></trkpt><trkpt lat="43.62779" lon="11.518325"><ele>154.83333333333331</ele><time>2026-03-24T15:44:13.931Z</time></trkpt><trkpt lat="43.6278017" lon="11.5182267"><ele>154.66666666666666</ele><time>2026-03-24T15:44:14.933Z</time></trkpt><trkpt lat="43.6278117" lon="11.5181283"><ele>154.5</ele><time>2026-03-24T15:44:15.932Z</time></trkpt><trkpt lat="43.6278217" lon="11.518025"><ele>154.33333333333334</ele><time>2026-03-24T15:44:16.932Z</time></trkpt><trkpt lat="43.6278267" lon="11.5179217"><ele>154.16666666666669</ele><time>2026-03-24T15:44:17.933Z</time></trkpt><trkpt lat="43.6278333" lon="11.5178117"><ele>154.0</ele><time>2026-03-24T15:44:18.933Z</time></trkpt><trkpt lat="43.6278383" lon="11.5176983"><ele>154.5</ele><time>2026-03-24T15:44:19.931Z</time></trkpt><trkpt lat="43.6278433" lon="11.51759"><ele>155.0</ele><time>2026-03-24T15:44:20.931Z</time></trkpt><trkpt lat="43.6278533" lon="11.5174933"><ele>155.5</ele><time>2026-03-24T15:44:21.931Z</time></trkpt><trkpt lat="43.62785" lon="11.517345"><ele>156.0</ele><time>2026-03-24T15:44:23.933Z</time></trkpt><trkpt lat="43.627785" lon="11.517265"><ele>156.5</ele><time>2026-03-24T15:44:25.93Z</time></trkpt><trkpt lat="43.6277017" lon="11.5172917"><ele>157.0</ele><time>2026-03-24T15:44:27.93Z</time></trkpt><trkpt lat="43.6276167" lon="11.5173417"><ele>155.25</ele><time>2026-03-24T15:44:29.932Z</time></trkpt><trkpt lat="43.6275117" lon="11.51734"><ele>153.5</ele><time>2026-03-24T15:44:31.931Z</time></trkpt><trkpt lat="43.6274283" lon="11.5172417"><ele>151.75</ele><time>2026-03-24T15:44:33.931Z</time></trkpt><trkpt lat="43.6274133" lon="11.5170733"><ele>150.0</ele><time>2026-03-24T15:44:35.935Z</time></trkpt><trkpt lat="43.6274367" lon="11.5169133"><ele>147.0</ele><time>2026-03-24T15:44:37.932Z</time></trkpt><trkpt lat="43.627445" lon="11.5167583"><ele>147.0</ele><time>2026-03-24T15:44:39.934Z</time></trkpt><trkpt lat="43.6274367" lon="11.516655"><ele>147.0</ele><time>2026-03-24T15:44:41.933Z</time></trkpt><trkpt lat="43.627445" lon="11.5165417"><ele>147.0</ele><time>2026-03-24T15:44:45.932Z</time></trkpt><trkpt lat="43.6274383" lon="11.5164333"><ele>147.0</ele><time>2026-03-24T15:44:48.932Z</time></trkpt></trkseg></trk></gpx>